GFSNGP_850_spd_015.txt.gz
Wind_Speed
3 5 5 1 5 7 5 6 7 7 6 10 1 3 5 14 8 5 6 9 23 35 39 37 37 33 30 30 33 31 28 22 20 13 14 17 15 12 16 21 20 21 16 14
2 5 7 4 8 7 6 3 2 5 6 3 11 15 13 12 13 5 2 6 11 10 29 34 35 32 29 29 30 32 29 24 17 15 23 16 13 10 13 15 20 19 19 20
3 4 6 6 7 5 6 5 3 5 7 5 8 11 15 13 11 12 5 3 7 7 4 19 28 26 27 30 31 32 29 23 22 23 21 17 13 14 14 16 18 21 23 24
2 3 2 8 4 3 4 3 7 9 10 11 11 22 27 23 19 17 12 9 8 7 7 7 13 18 23 28 30 28 25 25 24 22 18 13 11 12 13 18 22 20 24 21
4 4 5 8 3 3 3 4 5 8 7 11 10 14 17 15 13 12 11 12 13 10 10 12 18 19 21 26 27 27 26 25 19 15 12 8 4 13 17 26 20 20 20 19
2 4 6 6 2 4 4 2 6 13 9 10 10 4 3 12 13 15 13 11 11 12 9 8 13 15 19 24 24 23 21 14 10 8 4 4 9 21 22 20 23 24 23 22
2 2 7 6 6 2 6 6 7 9 10 12 4 2 7 12 11 5 4 6 9 11 7 1 9 18 26 27 25 22 14 15 12 5 6 7 16 21 22 24 26 25 16 21
3 2 5 7 4 6 6 11 10 9 8 8 7 8 11 13 10 4 3 3 2 3 4 11 14 16 22 22 18 18 14 5 3 8 7 15 19 22 22 21 17 13 17 19
6 5 8 6 12 12 10 9 6 7 9 7 10 11 12 10 6 7 5 4 2 2 3 7 8 8 12 10 6 5 8 14 9 7 16 19 19 18 17 16 14 14 16 18
5 2 6 13 7 12 16 15 10 11 8 7 11 8 9 7 7 6 5 4 4 5 7 6 5 5 6 9 13 16 8 6 11 17 16 15 16 14 16 18 20 19 16 17
2 4 19 18 18 16 16 13 12 10 7 10 5 11 6 7 7 6 6 7 7 8 8 6 6 6 4 3 3 5 10 13 14 15 15 15 16 17 17 18 20 20 20 22
4 3 17 10 15 10 12 13 12 9 9 10 8 10 6 8 8 7 7 8 9 10 8 5 4 5 9 12 14 15 15 15 15 15 16 17 19 19 15 18 20 23 23 21
7 12 20 19 15 11 13 13 10 8 9 9 10 8 8 10 12 12 9 8 9 10 9 9 9 10 12 13 14 16 16 16 17 18 19 20 20 21 23 23 24 26 25 21
17 23 17 8 13 11 11 12 11 14 15 15 16 17 17 16 15 14 13 10 7 7 8 9 10 11 13 15 18 20 23 25 25 24 23 24 25 26 27 30 32 26 22 21
11 11 25 24 17 13 13 14 16 18 18 16 14 14 12 12 10 6 2 4 7 10 8 9 12 14 16 16 16 18 20 24 26 29 30 32 32 33 31 30 33 33 34 31
23 22 19 16 15 17 19 19 20 17 13 11 8 5 3 2 1 2 6 8 9 10 10 10 10 12 13 16 20 23 23 24 25 28 30 33 36 39 39 39 38 37 36 33
25 20 20 22 21 19 18 17 13 10 8 5 5 4 4 4 4 4 6 8 10 9 9 11 12 15 20 25 26 30 33 34 33 31 30 32 34 37 39 38 41 41 39 33
16 21 17 20 22 20 16 12 10 8 7 8 8 7 7 7 10 10 12 13 10 8 9 15 20 24 27 28 30 31 32 35 36 36 36 36 37 37 36 38 43 39 35 33
20 22 24 21 17 14 13 11 10 10 9 9 8 8 8 9 10 11 12 11 12 15 18 23 27 30 31 30 30 31 32 33 32 31 33 35 37 37 36 37 37 30 35 37
23 20 19 19 15 12 13 11 10 10 9 7 6 7 7 9 11 11 11 12 13 17 21 27 29 28 28 29 29 29 26 27 32 32 29 29 29 34 36 34 35 36 39 35
20 19 18 17 15 13 11 9 8 8 6 4 4 7 8 9 10 12 13 14 18 22 24 25 26 27 28 28 28 26 25 25 28 29 27 28 27 23 19 15 17 22 21 17
18 18 16 14 12 11 10 8 6 4 1 3 5 8 10 11 13 13 14 16 20 23 23 24 24 25 25 25 25 24 24 24 24 25 24 24 24 23 21 19 16 14 13 10
17 15 13 11 10 9 8 6 3 1 3 6 10 13 14 14 15 16 17 19 21 22 22 21 23 25 25 25 24 24 23 24 24 24 23 23 22 21 21 21 20 18 16 13
14 12 10 11 10 7 6 4 1 3 5 7 11 14 15 15 15 15 17 18 20 21 22 21 23 23 26 25 24 24 24 23 25 25 24 23 22 22 22 22 20 19 17 16
13 12 13 13 11 8 5 7 5 6 7 9 12 12 13 15 16 18 20 19 19 20 21 21 21 20 23 24 25 23 23 24 24 24 23 23 22 22 21 21 20 19 18 16
15 15 16 14 8 5 3 2 5 8 10 11 12 12 11 15 17 20 21 21 19 18 19 21 21 21 21 22 23 23 23 22 22 23 22 23 22 22 21 20 19 19 18 18
14 10 10 8 4 1 3 6 8 8 11 12 13 12 11 15 19 21 21 21 17 17 19 20 20 21 20 20 22 23 22 21 21 22 21 22 22 22 21 21 20 20 19 19

GFSNGP_850_spd_018.txt.gz
Wind_Speed
4 2 2 0 2 1 5 5 6 9 8 9 6 5 9 12 6 6 12 24 29 28 34 42 45 47 45 42 36 33 33 35 34 29 23 19 17 17 17 8 8 11 18 16
4 3 1 3 5 4 4 3 5 5 6 1 10 13 17 14 13 13 12 9 6 3 6 28 41 42 42 38 35 36 36 36 32 26 21 24 25 24 15 10 2 11 16 18
5 4 5 5 7 6 5 3 5 5 4 4 7 10 10 13 14 12 12 13 11 10 7 5 14 30 34 34 34 36 36 33 29 28 29 31 28 23 17 12 16 14 21 23
3 3 2 7 4 5 8 4 7 8 6 12 15 20 20 18 19 18 14 9 7 6 7 7 7 13 23 27 33 35 33 31 31 30 32 29 22 13 7 17 12 20 26 25
4 3 4 6 3 6 5 1 3 7 6 15 20 19 13 11 11 9 6 5 6 7 7 9 11 16 23 31 33 35 36 33 32 34 29 21 13 9 14 11 20 24 21 23
2 4 6 7 4 4 7 2 6 10 5 7 7 3 3 5 3 3 3 6 7 9 11 13 12 15 25 26 30 32 29 30 25 15 7 4 13 19 11 17 21 22 24 25
2 2 7 8 6 3 6 6 10 16 14 9 4 5 8 12 11 7 5 6 6 8 11 9 8 12 20 25 28 26 21 15 13 9 9 18 17 6 16 19 21 23 25 23
3 3 6 8 4 7 7 13 17 13 13 18 18 15 12 10 9 7 5 5 5 5 7 6 4 11 18 21 18 15 12 10 11 17 17 8 9 15 18 20 21 20 19 19
8 6 6 8 6 22 21 18 13 16 14 15 13 11 10 10 9 8 9 10 11 11 12 12 11 7 7 6 2 8 16 19 21 10 6 12 17 17 16 17 19 17 17 22
4 3 2 7 14 18 20 20 20 17 17 12 15 13 12 10 10 10 10 10 10 9 9 9 7 4 1 2 5 8 8 7 8 12 14 16 16 16 17 18 20 21 20 18
3 2 18 14 21 24 24 22 20 18 15 16 15 15 13 13 11 10 9 8 7 8 8 8 8 9 9 8 8 9 11 12 14 15 16 16 17 18 19 20 21 21 22 23
5 17 10 9 17 21 22 19 16 15 17 16 13 15 12 12 10 9 11 11 10 10 9 10 8 8 9 9 11 13 15 15 15 17 18 20 22 24 21 23 23 23 24 25
10 18 20 24 19 16 18 17 15 15 15 16 15 12 12 15 13 12 14 13 12 10 8 7 6 6 8 11 14 17 19 19 20 22 24 25 25 27 31 30 28 30 29 30
24 29 22 20 13 16 16 17 17 20 20 19 20 19 19 18 16 12 10 8 5 5 5 5 6 9 11 13 14 14 16 18 21 24 26 28 29 31 32 36 39 38 35 33
26 7 20 22 21 19 19 21 22 22 20 19 17 16 14 13 10 8 5 2 3 4 4 5 7 8 11 14 16 19 22 24 26 29 30 31 32 34 36 38 40 42 44 42
19 20 25 24 23 22 21 19 20 21 18 16 14 11 9 7 5 2 2 2 2 4 5 7 9 13 17 22 26 27 28 29 31 32 33 34 33 33 33 35 35 37 41 46
32 24 24 24 25 22 21 19 20 18 15 11 10 8 7 7 6 6 4 4 4 5 7 11 14 18 22 25 28 30 31 32 31 30 30 29 29 30 32 34 34 35 40 36
11 21 17 18 24 24 22 18 15 13 12 11 11 10 9 7 5 4 4 4 4 6 10 14 19 23 26 26 27 27 27 27 27 28 29 28 27 25 28 29 33 35 35 34
19 22 22 24 24 22 18 16 13 13 13 12 11 9 6 5 4 5 6 7 9 13 17 20 23 24 24 24 25 25 25 25 26 26 27 26 26 26 25 25 24 21 23 31
22 22 24 24 18 16 17 15 13 13 13 11 8 6 4 3 4 6 9 11 12 15 19 21 22 23 24 24 23 24 24 24 24 24 25 25 25 25 24 25 25 25 23 18
24 22 21 21 19 17 15 14 13 13 12 8 4 2 2 4 6 7 9 11 13 16 19 20 21 23 24 24 24 23 23 23 23 24 24 24 24 24 25 26 26 26 25 23
23 21 20 19 18 17 14 13 11 10 7 4 1 1 4 5 8 10 12 12 15 17 19 21 22 23 23 23 23 23 23 23 24 24 23 23 24 24 25 25 25 25 24 21
21 21 19 17 16 16 15 11 9 6 4 2 3 5 6 8 9 10 12 15 16 17 19 21 22 22 23 23 24 23 23 23 23 24 23 23 23 23 24 24 23 23 22 22
19 18 17 16 14 13 12 10 7 4 2 4 6 7 8 9 10 12 14 16 18 19 19 20 21 22 22 23 23 23 23 22 23 23 23 22 22 22 22 22 22 22 21 21
17 15 16 16 14 11 9 8 6 3 3 5 7 10 10 11 12 13 15 19 19 19 19 20 21 21 21 22 22 22 22 22 22 22 22 22 23 23 22 22 22 22 21 21
19 21 18 16 13 10 9 8 7 5 6 7 8 10 11 13 13 15 18 20 20 19 19 20 20 20 20 21 21 21 21 20 21 21 21 21 22 22 22 22 22 21 21 21
19 18 16 12 8 6 3 3 5 6 7 9 10 12 13 14 16 18 20 21 20 19 18 19 20 20 19 20 20 20 20 19 20 20 20 21 22 22 22 22 23 22 22 22

GFSNGP_850_spd_021.txt.gz
Wind_Speed
3 4 4 4 5 6 7 6 6 8 8 8 4 7 10 11 5 2 5 11 19 27 29 31 34 35 36 39 41 42 38 38 35 30 30 31 28 26 20 18 13 8 6 14
3 2 3 4 7 7 5 3 7 4 6 5 2 8 13 8 11 14 13 10 4 4 11 17 25 33 38 39 40 40 36 34 34 33 31 30 27 22 22 16 13 9 9 14
4 2 2 6 8 8 6 5 6 6 8 5 4 6 13 20 18 16 13 10 7 5 4 2 4 8 15 24 33 34 31 34 36 35 32 29 28 28 23 18 14 10 22 14
3 3 2 7 2 4 5 3 4 4 6 5 10 17 18 17 19 16 13 11 8 7 8 8 8 8 11 17 24 29 33 34 32 30 30 31 30 26 21 15 13 24 19 21
4 4 4 5 4 7 6 4 2 8 8 13 18 19 13 9 8 7 6 5 6 8 9 11 12 13 15 18 23 27 27 27 28 30 28 23 13 9 11 16 25 21 20 22
3 4 8 8 4 5 6 2 4 7 9 11 4 3 3 4 5 3 2 2 3 5 7 10 12 12 13 14 18 20 22 22 21 23 23 23 22 16 20 27 23 20 21 23
3 3 7 7 5 10 5 7 17 18 18 14 4 5 10 11 10 7 4 1 1 3 5 6 7 8 7 7 10 13 16 18 17 15 19 17 20 26 27 15 18 22 24 23
3 2 6 8 6 8 7 11 24 19 17 14 16 18 18 15 11 8 6 5 5 4 5 5 6 4 4 7 11 10 10 10 16 16 19 23 19 12 12 20 24 25 24 24
8 6 4 8 2 8 25 29 22 22 21 20 25 23 19 16 14 12 10 9 10 9 11 13 12 10 11 10 5 1 5 12 12 10 6 9 14 18 20 21 22 23 24 26
4 2 3 6 12 25 24 25 23 22 25 26 26 23 21 18 16 14 12 11 9 8 9 11 9 7 7 5 4 4 5 7 9 11 13 15 17 19 20 21 22 24 26 27
1 1 5 7 17 22 22 21 23 23 24 23 22 22 20 19 16 13 11 10 9 9 10 11 10 8 6 4 4 5 7 9 10 11 14 16 17 19 21 24 25 28 30 29
6 17 7 11 19 21 25 23 22 23 23 19 17 21 19 18 14 13 13 12 11 12 11 9 5 4 5 6 9 11 13 14 16 18 20 22 25 29 26 28 28 28 29 31
8 26 12 25 23 22 23 22 20 20 19 22 20 18 17 19 17 17 16 14 10 8 6 4 2 3 6 9 11 13 15 17 19 22 24 27 29 31 37 40 37 37 35 34
15 28 18 26 17 22 22 22 21 21 20 19 20 19 20 20 19 15 13 9 6 4 2 1 2 5 7 10 13 15 18 21 24 26 29 31 32 33 33 34 38 45 38 34
24 13 24 25 27 24 22 24 25 25 25 24 21 19 17 18 16 12 9 6 3 2 1 1 4 7 11 15 19 22 24 26 28 29 29 30 30 31 31 32 33 35 39 39
19 21 27 31 29 28 27 26 27 26 22 21 20 18 16 12 10 8 6 5 3 1 3 6 10 13 17 20 23 25 25 26 28 29 30 30 30 30 30 29 30 30 32 35
30 23 28 29 29 29 25 24 23 24 22 20 18 15 12 10 9 7 5 3 1 4 7 11 14 18 21 23 25 26 27 28 28 28 28 27 27 26 26 26 27 29 30 29
15 22 24 27 31 29 25 23 22 20 19 16 15 14 13 10 8 6 3 1 4 7 10 14 17 20 22 23 24 26 26 26 26 26 26 26 25 25 25 25 26 27 28 29
19 26 24 25 24 25 26 24 20 18 17 17 16 14 12 8 6 3 0 3 7 10 13 16 19 20 21 22 23 24 25 25 25 25 25 25 25 24 25 25 26 26 27 28
23 23 24 25 25 22 23 19 18 19 18 16 14 11 8 5 1 2 4 8 10 13 16 17 18 20 21 22 23 23 24 24 25 25 25 25 25 25 25 26 26 26 26 25
25 26 28 27 23 21 19 19 18 18 17 14 10 7 4 1 1 4 7 9 12 15 17 17 18 19 21 22 23 23 23 24 24 25 25 25 25 24 25 26 26 26 26 25
27 25 22 20 19 19 17 17 15 14 13 10 8 4 2 2 4 7 9 11 13 15 16 18 19 21 22 22 22 24 23 23 24 24 24 24 24 25 25 25 26 26 26 25
23 20 19 20 19 19 18 15 13 10 9 7 5 2 2 4 7 9 10 12 13 15 17 19 19 20 21 22 23 23 23 23 23 23 22 22 23 24 25 25 25 25 25 25
19 20 20 18 16 16 17 15 12 9 6 4 2 3 6 8 9 10 11 12 15 16 17 18 19 20 22 23 23 23 22 22 23 22 22 22 22 23 23 24 24 25 24 24
19 18 18 18 17 16 14 13 10 6 3 3 5 7 9 9 10 11 12 14 16 17 18 18 19 21 22 22 22 22 21 21 22 22 22 22 23 23 23 23 24 25 25 24
18 19 18 16 15 14 12 10 5 3 6 8 9 9 9 10 11 12 14 15 17 18 18 18 19 21 22 21 21 21 21 21 20 21 22 22 23 23 23 24 24 24 24 24
18 17 16 14 11 10 8 4 3 5 7 9 10 10 11 12 12 14 16 17 18 18 18 18 19 20 21 21 20 20 19 20 21 21 21 22 23 23 24 23 23 24 24 24

GFSNGP_850_spd_024.txt.gz
Wind_Speed
6 6 5 6 5 8 7 6 6 7 7 9 7 7 10 10 6 3 1 1 3 7 10 14 16 19 21 23 27 31 34 33 33 34 31 30 33 33 31 26 22 18 19 17
2 3 2 4 6 7 5 4 4 5 7 7 3 3 1 4 10 15 15 14 12 11 9 7 5 7 12 16 20 24 27 29 28 30 32 31 32 32 26 24 23 21 18 15
4 2 3 6 7 8 6 5 7 7 10 5 2 3 7 14 17 17 16 15 14 12 10 8 6 5 7 9 13 18 21 23 26 30 33 32 31 30 28 27 24 21 16 16
3 3 1 7 1 4 9 6 5 3 4 8 11 11 12 13 17 17 15 13 12 10 8 7 8 9 10 12 15 15 17 20 24 25 22 24 25 24 23 25 29 27 21 21
5 4 5 4 5 7 8 8 7 6 6 15 20 19 10 9 11 12 10 10 9 9 10 10 11 13 13 12 12 11 12 14 15 15 17 19 20 23 21 19 21 26 25 27
3 4 8 8 5 7 5 4 8 12 10 14 12 4 4 9 9 9 9 8 6 5 5 5 8 10 11 9 6 4 3 6 7 11 17 20 18 15 19 23 27 30 32 18
2 3 7 8 3 10 6 8 20 27 26 22 5 5 16 14 10 7 5 5 4 2 3 4 4 5 6 7 8 7 5 6 9 10 11 14 18 20 23 26 22 16 19 24
3 3 7 11 5 9 7 3 28 30 28 19 12 17 17 13 11 8 6 6 6 6 8 10 11 8 12 15 15 12 9 5 1 7 13 13 12 11 11 15 19 22 26 28
9 7 5 15 5 16 9 15 27 31 24 21 21 20 19 17 14 11 10 9 10 11 14 15 13 11 12 12 7 3 2 3 4 5 7 9 11 14 17 19 22 24 26 29
3 4 6 9 16 11 15 25 28 27 26 24 24 24 23 19 16 14 13 12 11 11 12 12 9 7 7 6 4 4 4 6 8 10 11 13 15 17 19 21 23 25 28 31
3 3 2 10 15 16 19 22 24 22 25 26 26 26 22 21 18 16 14 12 10 9 9 10 7 6 6 4 4 5 7 9 11 13 15 17 19 21 23 23 24 28 30 31
7 15 12 10 20 21 23 24 24 25 24 22 23 25 23 21 18 16 15 13 11 9 8 9 6 4 3 5 7 9 11 12 15 17 20 23 26 29 28 30 31 31 31 28
8 20 15 16 23 22 23 21 22 23 23 25 22 22 22 23 20 18 15 12 11 10 8 5 2 2 4 7 9 12 15 18 21 23 25 27 29 32 38 38 34 33 32 31
16 25 13 21 15 22 23 24 23 23 23 22 24 23 23 22 21 17 15 12 10 7 5 3 0 3 6 9 12 15 17 20 21 23 25 27 28 29 31 34 39 40 36 34
22 18 16 25 26 26 25 26 27 26 26 26 23 23 22 22 20 18 15 11 8 6 4 1 3 6 9 12 16 18 20 21 23 24 25 26 27 28 29 30 32 34 37 35
17 14 22 29 32 30 29 28 29 29 27 27 26 23 22 20 19 16 13 10 7 4 1 3 6 10 13 15 17 18 20 22 24 25 26 27 27 28 28 28 28 30 31 32
26 20 26 29 31 31 29 28 26 29 28 26 24 24 21 18 16 14 13 11 7 2 2 6 10 12 15 17 19 21 22 23 24 24 25 26 26 26 26 27 28 29 29 28
13 17 23 29 35 33 30 27 26 25 26 25 23 20 17 15 14 13 11 7 3 3 6 9 11 14 16 18 20 21 22 22 23 24 24 25 25 25 26 27 27 29 30 29
12 22 23 26 26 27 27 27 26 24 24 22 20 17 15 14 12 10 6 2 2 5 8 11 14 15 17 18 19 20 21 21 22 23 23 24 24 24 25 26 27 27 28 29
23 23 24 26 24 24 26 24 25 23 19 17 17 19 17 13 10 6 4 3 4 7 10 13 15 15 17 18 19 20 21 22 22 23 23 23 24 25 24 25 26 27 28 28
25 26 26 26 27 25 23 21 18 18 19 18 16 14 11 9 6 4 4 5 7 10 13 15 16 16 17 18 19 20 21 21 22 23 23 24 24 24 24 25 25 26 27 27
24 24 26 25 24 23 19 16 17 19 19 17 13 10 8 6 5 4 5 6 8 11 14 16 16 17 16 18 19 20 21 21 22 22 23 23 24 24 24 25 26 26 26 27
26 25 24 21 19 20 18 17 17 15 15 13 10 8 6 5 4 4 6 8 11 14 16 17 17 17 17 17 19 20 21 21 22 23 23 22 23 24 24 25 25 25 26 27
23 20 19 18 18 20 21 19 16 14 12 11 8 6 3 3 5 7 9 11 14 15 16 17 17 17 18 18 19 20 21 22 21 22 21 22 22 23 23 24 25 25 25 25
16 17 17 18 19 18 16 16 14 11 8 5 3 2 5 7 9 10 12 14 14 15 17 17 17 17 18 19 20 20 21 21 21 21 21 22 23 23 23 24 24 25 25 25
17 17 17 15 14 14 13 11 7 5 1 2 4 6 8 10 12 12 13 14 15 16 17 17 17 17 18 19 20 20 20 20 20 20 21 21 22 23 24 24 24 24 24 24
14 13 12 12 10 9 8 6 4 3 3 6 8 10 12 12 13 13 14 15 16 17 18 17 16 17 18 19 20 20 20 20 19 20 20 21 21 22 23 24 24 24 24 24

GFSNGP_850_spd_027.txt.gz
Wind_Speed
5 5 6 6 5 10 10 7 7 8 9 9 7 6 6 8 4 2 5 6 7 6 4 3 1 1 3 5 8 11 13 15 18 20 21 20 20 22 25 27 27 25 23 22
3 3 6 5 7 10 10 2 8 7 8 10 5 4 1 2 9 16 18 20 19 19 16 13 10 7 5 2 4 6 8 9 11 13 15 17 20 23 25 24 25 25 28 27
4 2 3 5 7 10 5 5 5 8 11 5 5 5 8 12 15 19 20 21 20 18 15 12 10 8 5 4 6 8 10 11 11 11 12 15 19 22 21 22 27 27 25 27
3 2 5 3 2 3 11 5 9 5 5 5 4 8 12 15 21 20 18 18 17 16 13 11 10 8 8 7 8 8 8 8 8 7 8 12 15 16 17 22 23 26 31 32
5 5 3 2 5 7 7 14 10 13 6 8 17 14 8 14 16 18 17 15 14 12 10 9 8 10 10 10 8 6 5 5 4 2 2 4 7 9 14 23 26 28 28 30
3 5 9 5 4 8 4 12 8 12 11 20 16 7 6 15 15 16 15 14 12 11 9 8 8 7 6 8 7 9 9 8 7 6 3 2 2 6 11 14 17 21 25 27
3 3 6 6 5 12 6 14 13 22 23 27 10 4 23 20 17 15 14 14 12 11 8 8 8 6 7 10 13 15 14 13 11 7 3 1 4 9 12 15 16 15 17 20
3 2 8 12 8 10 8 5 15 20 28 24 15 20 27 22 19 17 15 14 12 10 12 13 12 9 14 16 15 13 10 7 4 1 3 6 6 5 7 11 15 18 22 24
9 7 2 25 8 23 7 8 11 25 32 32 25 28 26 24 21 19 17 17 17 15 17 16 14 12 13 14 9 6 4 3 3 3 4 6 7 9 11 14 18 21 24 27
3 5 7 14 23 11 16 13 11 27 37 30 28 29 28 26 24 22 20 19 17 16 16 16 12 10 10 10 7 5 4 3 4 6 8 10 12 14 15 18 20 23 25 28
3 5 3 16 20 21 16 15 15 24 31 30 28 30 29 28 26 24 22 19 17 15 15 14 12 10 10 8 5 3 4 6 7 9 11 13 15 16 18 18 20 22 23 24
6 17 10 12 28 22 19 18 21 28 28 27 28 31 30 28 26 24 22 20 18 16 14 15 11 9 7 4 3 4 6 8 11 13 15 17 18 19 20 21 22 21 21 23
1 8 20 10 20 24 23 23 25 28 30 32 28 29 30 30 27 25 23 20 17 16 14 12 9 5 4 4 5 7 9 11 14 16 18 20 22 24 25 25 26 26 25 25
14 11 9 16 12 23 24 26 25 25 25 27 31 30 29 29 28 24 22 19 17 15 12 9 6 4 3 4 6 9 11 13 15 17 19 21 22 24 25 27 29 27 27 26
16 21 12 21 18 25 25 26 27 28 30 31 30 31 30 30 28 25 22 19 16 12 10 7 4 1 3 6 8 11 13 15 16 17 18 20 21 23 25 26 27 29 30 29
17 12 13 21 25 27 29 30 32 33 34 34 33 31 29 27 26 24 20 16 12 11 8 5 1 2 5 8 10 12 14 15 16 16 18 19 21 22 24 25 26 27 28 30
15 10 14 21 25 26 27 28 30 34 34 35 33 31 30 28 25 21 18 14 10 8 5 2 2 4 7 9 11 12 13 14 15 16 18 19 20 21 22 23 24 25 26 27
9 6 12 17 29 30 27 26 29 30 32 32 33 30 28 24 20 18 13 14 10 6 3 1 4 7 9 10 11 12 13 14 15 16 17 18 19 20 21 22 23 24 26 26
7 4 9 19 24 26 27 29 29 28 28 27 28 26 22 18 14 16 16 12 7 4 2 4 6 8 10 11 12 13 13 13 14 15 16 17 18 19 20 21 22 22 24 26
16 17 20 24 24 26 30 28 27 28 28 25 22 16 15 15 16 15 12 8 5 4 4 6 8 10 11 12 13 13 13 14 14 16 16 17 18 18 19 19 20 22 23 24
23 25 27 27 26 24 24 25 26 25 21 16 14 14 17 18 14 11 8 6 5 5 6 8 9 11 11 12 12 13 13 14 15 16 16 17 17 17 18 19 20 22 23 24
23 24 24 25 26 27 25 22 19 19 18 17 16 18 17 15 12 9 7 5 4 6 8 10 11 12 12 12 13 13 14 14 15 16 16 17 17 18 19 20 21 22 22 24
23 25 26 27 27 25 21 17 15 15 17 17 15 14 11 9 7 5 5 5 6 8 9 12 13 13 13 13 14 14 15 15 15 16 16 17 18 19 20 20 21 22 23 24
26 24 23 21 21 21 20 18 16 15 13 12 10 7 5 4 3 4 5 6 8 9 11 13 14 14 14 14 15 16 16 16 16 16 17 17 18 19 19 20 21 21 22 23
21 21 20 18 18 18 17 16 14 11 9 7 5 2 1 3 5 6 7 9 10 12 14 15 16 15 15 15 16 16 17 17 16 17 17 18 18 19 19 20 21 22 22 22
18 18 16 14 14 12 10 8 6 6 3 1 2 4 6 7 8 10 11 12 13 14 16 16 16 16 16 16 16 17 18 17 17 18 18 19 19 19 19 20 21 22 22 22
20 18 17 17 14 11 8 5 3 2 3 4 5 7 9 10 12 12 14 15 15 16 17 17 16 16 16 16 17 18 18 18 19 19 19 19 19 19 20 21 21 22 22 21

GFSNGP_850_spd_033.txt.gz
Wind_Speed
24 20 20 22 24 22 20 18 18 17 18 16 13 8 9 8 4 6 9 9 9 11 11 11 12 12 12 12 12 11 10 9 9 7 8 7 7 7 7 10 11 11 11 12
22 22 21 19 18 20 22 23 21 21 21 16 17 9 6 9 6 9 9 9 10 12 12 11 12 12 12 12 11 10 11 10 8 7 6 6 7 10 11 11 11 10 8 10
17 20 19 19 17 19 19 21 17 18 20 16 17 12 12 14 11 11 11 14 14 14 14 15 15 14 13 13 12 12 10 8 6 6 5 4 5 4 4 3 3 5 5 10
10 4 14 10 16 22 22 20 19 19 18 16 13 13 7 7 13 14 16 17 17 17 17 16 16 16 15 13 12 11 9 8 7 7 6 7 6 5 4 4 3 2 6 11
9 11 13 18 13 12 15 17 17 17 16 17 11 4 6 9 14 18 19 19 19 18 17 17 16 15 15 14 13 12 12 11 11 11 12 11 12 10 9 8 7 6 5 6
7 15 18 12 16 15 14 14 13 14 13 8 7 8 10 20 21 21 20 20 20 18 17 17 16 15 15 15 14 14 14 14 14 13 13 11 10 10 9 6 5 2 4 7
13 9 9 11 13 15 13 12 6 5 6 10 10 15 9 25 23 23 22 21 20 18 17 16 16 16 16 16 15 15 15 15 14 12 11 8 5 4 3 1 2 2 3 3
10 12 14 8 10 14 15 17 7 9 11 12 11 12 24 26 27 27 25 22 20 19 18 17 16 16 16 16 15 13 12 11 10 7 6 7 7 5 4 2 1 1 3 4
8 6 9 19 20 23 22 13 10 13 12 12 20 23 26 28 28 27 25 22 20 20 20 18 17 16 17 16 14 13 12 11 10 9 7 6 5 3 2 1 0 3 4 5
9 9 13 11 20 17 15 17 14 12 12 17 25 26 28 29 28 27 25 24 22 21 20 19 17 16 16 15 14 13 13 11 10 8 6 5 3 2 1 2 4 5 5 6
17 19 20 15 15 22 17 13 13 11 14 20 24 28 31 31 29 28 26 24 23 22 21 19 18 16 15 15 14 14 12 10 9 7 6 4 4 3 3 8 8 8 10 10
9 15 13 16 16 18 18 20 15 16 16 21 25 29 30 30 29 28 27 26 24 22 21 20 18 17 15 14 13 12 11 10 9 7 6 3 2 6 7 9 9 11 12 12
14 11 10 18 17 13 14 15 17 17 19 22 25 27 29 29 28 28 26 25 23 22 20 19 17 16 13 14 13 11 9 8 7 5 4 4 2 3 2 12 14 15 16 16
23 11 10 15 13 10 9 9 13 15 17 20 22 24 25 25 25 25 24 22 21 21 20 18 16 14 12 11 10 10 8 7 5 3 3 2 3 4 4 5 6 7 12 18
9 10 12 8 7 7 5 8 10 14 18 21 21 23 23 23 23 22 20 21 21 20 19 18 17 14 12 10 8 7 5 4 4 5 5 6 6 5 5 6 7 8 9 10
4 6 7 8 7 6 8 11 13 15 16 20 23 22 23 23 23 24 22 21 22 21 21 19 16 11 9 7 4 3 3 4 4 5 6 5 5 5 6 7 8 8 10 11
8 8 8 9 9 8 10 10 12 14 15 19 23 25 25 29 31 31 28 25 22 22 20 16 11 7 6 5 4 3 4 5 6 6 7 8 8 8 8 8 9 9 10 13
9 8 6 7 9 9 9 11 16 19 22 25 28 35 38 35 29 25 27 25 22 19 15 12 9 7 6 6 6 6 6 7 8 9 9 10 11 10 10 10 9 10 11 12
8 6 8 9 8 12 15 18 21 24 28 32 37 35 31 27 28 28 25 21 18 15 12 8 7 6 5 5 7 7 8 9 10 11 11 12 11 10 10 9 10 11 12 13
6 7 8 12 14 13 18 19 22 24 24 26 27 30 32 31 28 24 20 18 13 10 7 6 3 4 6 6 8 9 10 10 10 11 12 12 11 12 10 12 12 12 13 13
17 16 18 19 21 23 22 21 24 26 27 31 32 31 31 28 22 18 14 13 9 8 5 3 4 6 7 9 10 10 11 11 11 11 11 10 10 10 11 11 12 13 14 14
27 28 29 29 30 31 29 30 30 30 28 26 24 24 24 21 16 12 8 5 4 1 1 3 5 8 11 11 11 11 11 11 11 10 10 11 11 11 12 12 13 14 14 15
32 32 32 33 32 31 30 29 27 25 25 23 21 18 16 14 11 7 5 2 2 2 4 7 10 12 13 12 11 11 10 11 11 11 11 11 12 12 13 14 14 15 15 15
32 32 31 29 28 27 30 26 23 21 19 17 15 12 9 6 4 2 1 1 3 5 8 10 12 14 14 12 11 11 11 10 11 12 13 14 13 14 14 15 15 15 16 16
29 28 27 27 28 25 23 20 19 17 14 13 11 9 6 5 1 2 2 4 4 4 9 13 13 13 13 10 11 12 11 11 13 14 14 13 14 15 15 16 16 16 18 19
25 25 26 25 23 20 18 17 17 15 12 11 10 8 7 6 5 4 5 6 8 7 7 9 12 14 11 10 12 12 13 13 13 13 15 14 15 15 16 16 17 17 18 19
22 20 19 20 19 17 15 14 13 12 10 10 7 8 7 6 8 6 6 6 7 9 9 9 10 12 13 12 12 13 14 14 14 15 15 15 15 15 16 16 16 19 21 21

GFSNGP_850_spd_036.txt.gz
Wind_Speed
21 20 20 17 20 20 20 21 17 13 20 20 19 15 6 11 6 10 7 10 11 14 15 16 16 16 15 17 18 19 18 15 15 16 13 12 12 13 14 15 17 17 19 22
23 21 19 22 22 20 21 22 20 17 17 15 18 12 10 10 12 8 10 11 12 11 17 15 16 18 20 22 20 16 17 17 15 10 9 7 8 10 9 9 9 7 9 9
19 19 13 21 21 19 16 18 17 17 16 14 13 12 12 21 15 16 11 12 13 16 18 17 20 20 20 18 18 19 18 14 15 16 16 15 15 13 13 12 8 6 5 5
7 2 20 10 14 16 16 16 15 16 16 12 13 17 7 4 7 15 16 15 16 18 20 20 20 19 20 20 20 19 18 16 14 13 11 11 11 11 9 8 8 7 7 7
9 13 13 18 13 14 13 18 18 20 17 16 20 21 7 3 7 17 21 22 21 21 22 23 23 24 23 21 20 18 17 15 13 13 13 11 10 10 9 8 7 6 5 6
5 15 18 5 11 15 17 13 12 14 13 10 10 4 3 14 12 19 24 22 23 23 23 23 23 23 22 21 19 18 17 16 15 14 14 16 14 12 9 10 11 11 9 7
10 6 7 7 13 23 17 8 8 14 17 13 4 0 10 14 20 23 25 26 25 24 24 23 23 23 22 20 19 18 17 18 19 19 15 12 12 11 10 8 8 7 6 5
7 8 12 7 13 17 10 12 9 14 9 3 3 4 11 23 27 28 28 27 27 26 25 24 23 22 21 20 21 23 21 19 16 13 10 9 9 10 10 8 7 5 6 7
5 2 5 17 22 20 14 11 14 11 14 9 10 15 25 29 28 28 28 28 27 26 25 23 21 21 23 22 19 17 16 15 13 13 13 12 12 12 10 8 11 11 8 8
2 9 16 4 17 27 20 17 20 13 14 11 15 21 25 26 28 30 29 28 26 26 26 24 22 20 20 20 18 18 17 16 16 15 13 11 10 11 12 12 9 7 9 10
11 12 18 39 22 17 15 19 11 8 8 12 18 26 27 27 29 29 28 27 26 25 23 22 21 21 19 18 18 19 18 17 16 16 12 14 11 8 8 6 7 9 10 11
6 7 4 15 20 19 14 19 21 12 14 13 19 26 27 28 29 28 28 26 24 22 22 20 19 19 17 17 18 18 17 16 15 15 12 7 6 6 7 8 9 9 10 11
7 14 11 17 20 16 13 13 24 13 13 15 16 21 26 25 27 26 26 26 24 23 23 21 19 18 16 16 17 17 17 14 13 11 10 9 8 5 6 9 10 11 12 14
13 20 16 18 11 13 13 10 13 13 11 14 16 19 25 26 26 26 25 24 24 24 24 23 22 19 19 21 20 17 14 13 10 8 6 6 7 7 8 10 10 11 13 14
14 8 5 10 16 14 13 7 5 6 6 10 17 21 24 26 28 26 25 25 26 25 24 24 20 17 15 15 17 16 13 10 6 4 4 6 7 8 8 8 8 9 9 8
14 11 9 8 9 8 7 7 5 6 8 13 19 23 24 25 24 25 26 30 31 28 25 22 21 20 15 11 10 8 5 2 3 5 5 6 7 7 8 9 10 10 11 12
14 15 19 15 11 6 4 3 3 7 11 15 21 26 32 33 34 32 30 30 31 26 22 21 20 18 13 8 9 7 5 5 6 5 7 8 9 9 10 11 11 12 12 16
12 11 11 10 6 3 6 7 9 14 18 20 27 30 31 31 32 31 28 22 20 23 20 17 15 16 12 8 4 3 5 5 5 7 8 11 11 10 12 12 12 12 14 15
8 7 8 9 9 10 12 11 13 16 19 21 25 27 28 29 27 25 22 20 21 19 14 12 11 7 4 2 2 3 6 8 8 10 10 12 11 11 13 12 14 16 15 14
14 14 13 16 15 14 17 15 17 18 18 21 25 27 25 24 25 26 23 20 15 13 10 7 5 3 1 2 5 6 8 9 9 10 12 12 10 13 14 11 13 14 14 16
23 22 23 24 25 24 23 21 23 25 22 25 26 28 28 26 22 18 16 15 11 7 4 3 3 5 5 5 8 9 10 11 11 10 11 11 12 12 12 13 14 15 16 17
27 29 30 30 31 31 27 26 28 28 27 29 28 25 23 20 16 14 12 9 8 5 3 2 2 4 7 8 9 9 10 10 13 12 11 11 13 14 14 14 16 16 17 19
34 34 34 34 34 34 32 30 29 28 27 25 22 19 17 15 11 9 8 6 4 1 3 5 7 8 8 8 10 10 10 12 11 12 14 14 14 16 17 16 17 18 18 17
33 33 33 31 31 31 32 28 26 24 22 20 18 15 11 9 9 8 6 4 4 3 6 8 9 10 11 10 9 10 11 11 12 12 13 15 15 15 16 18 18 19 19 21
29 29 28 28 28 25 23 22 22 20 18 16 14 12 10 7 7 6 5 4 4 3 9 13 13 13 10 10 11 12 13 13 15 17 15 14 15 16 18 17 19 21 22 24
26 26 25 24 23 20 17 16 20 18 14 13 13 12 11 9 7 7 8 9 9 8 9 9 14 15 12 13 14 13 13 13 16 16 17 18 19 19 17 17 20 21 22 23
22 20 19 20 19 16 14 14 14 12 14 12 10 9 8 9 8 7 6 7 9 8 8 11 11 13 14 16 16 16 15 15 15 17 19 19 19 18 17 19 21 23 23 21

GFSNGP_850_spd_039.txt.gz
Wind_Speed
18 14 12 14 21 19 17 14 10 7 7 9 10 6 20 13 7 5 16 18 23 23 20 17 15 14 13 15 19 18 20 19 18 18 21 19 15 14 17 17 15 15 16 17
7 19 20 15 16 21 16 6 14 11 12 14 23 21 16 17 20 18 27 30 20 20 24 22 21 20 19 17 18 19 19 20 20 20 19 16 16 17 15 14 13 15 16 17
15 3 6 12 18 14 9 15 12 11 13 15 13 12 22 24 31 31 24 21 19 20 27 28 27 25 25 23 20 19 20 20 20 18 16 16 14 15 14 13 12 12 13 13
5 4 8 16 5 13 10 13 12 6 4 5 10 20 27 34 42 34 25 25 25 25 28 28 27 27 28 24 22 21 20 19 18 18 16 15 15 13 12 10 10 10 10 10
3 11 5 12 7 12 10 12 7 6 5 7 18 12 4 15 22 30 29 28 27 27 28 29 29 27 25 23 24 24 23 21 21 20 20 17 15 13 12 12 12 11 9 10
5 8 16 3 15 11 1 7 4 4 8 7 11 3 5 16 20 25 25 28 30 28 28 26 24 24 23 25 25 24 22 20 18 16 16 15 14 14 15 14 12 11 12 11
11 4 7 6 9 4 5 5 7 15 9 2 3 9 15 19 19 23 28 30 29 28 28 26 25 24 24 25 24 23 22 22 21 18 16 14 15 15 14 14 13 13 14 15
4 4 6 18 7 12 6 16 21 24 5 9 15 12 23 23 23 27 30 29 28 29 28 26 26 26 26 25 24 24 23 21 19 18 17 16 16 15 14 15 15 15 15 14
8 5 9 24 11 26 23 23 27 2 11 9 19 24 23 26 30 32 32 33 31 30 29 27 27 27 28 27 26 25 24 22 19 15 15 14 17 18 17 15 14 15 15 15
5 5 9 20 22 28 21 25 30 17 17 14 16 19 24 30 33 34 33 32 31 30 31 28 27 27 27 28 27 26 24 20 19 19 21 21 20 20 19 18 17 17 17 17
2 3 17 21 12 25 32 28 33 32 8 4 12 22 20 29 32 32 31 31 29 31 29 27 27 27 26 26 25 24 23 24 25 25 25 24 22 18 16 16 15 14 15 15
5 14 13 7 5 10 22 24 26 23 16 6 4 18 26 28 30 32 31 29 28 29 29 27 26 25 23 22 23 25 26 25 24 22 20 18 16 15 13 10 11 11 12 13
3 10 14 16 16 9 9 6 12 16 10 7 11 14 24 26 29 29 30 30 32 32 29 27 28 26 23 23 24 25 23 22 22 18 16 12 9 8 7 6 5 6 7 9
12 14 10 7 6 6 8 12 11 12 12 9 4 16 23 26 28 29 31 32 33 33 31 29 27 24 20 20 21 19 18 18 18 17 15 12 8 5 5 7 9 10 12 13
23 16 10 9 10 10 8 12 9 9 5 4 17 25 27 29 30 32 33 35 35 34 31 29 27 22 18 17 16 14 15 15 12 10 6 5 5 5 7 10 11 11 12 14
19 14 11 11 12 10 9 8 11 11 12 21 25 30 34 35 36 35 34 35 38 34 28 26 22 17 14 13 13 13 11 9 7 9 8 7 6 8 9 10 11 12 13 15
19 20 21 18 13 9 11 11 10 13 18 23 29 33 37 39 39 35 33 32 33 30 25 19 18 15 13 13 11 9 12 10 8 4 4 5 7 10 12 14 14 14 15 17
7 8 10 9 9 9 11 12 12 14 16 19 23 29 33 34 37 35 32 28 25 19 14 12 14 15 13 10 8 6 5 3 2 5 9 10 10 11 14 14 15 15 15 16
10 10 10 12 14 14 14 14 15 16 19 21 24 28 30 30 30 28 22 17 16 18 16 12 10 7 6 4 2 1 2 4 6 7 9 11 11 12 13 13 15 15 16 16
20 20 20 22 21 20 22 20 20 22 22 24 29 30 31 27 23 20 18 21 17 15 12 9 6 4 3 2 1 3 4 4 6 9 11 12 11 11 12 12 11 14 16 17
28 28 30 30 31 29 29 26 27 30 28 26 28 29 28 25 21 19 17 19 17 12 8 6 4 3 5 6 6 7 7 7 8 9 10 10 11 12 13 14 15 17 18 19
31 33 34 34 35 35 32 32 32 32 32 31 29 26 24 22 19 19 17 15 12 9 7 7 6 6 6 5 6 7 8 8 10 10 10 11 13 14 15 16 18 19 20 21
36 36 36 36 37 36 34 33 31 30 29 26 23 20 20 18 15 13 15 10 7 6 6 7 8 8 7 6 8 9 9 10 10 11 12 13 13 14 16 16 16 19 21 21
34 34 34 32 31 32 33 28 26 24 23 21 20 18 15 14 15 13 10 7 5 5 8 11 11 10 8 8 9 10 11 12 13 13 15 16 16 15 14 17 18 18 20 22
28 28 28 28 29 28 25 22 22 21 20 20 17 15 13 12 11 10 8 7 7 8 11 12 14 14 12 12 12 13 13 11 12 14 15 16 18 20 21 19 18 19 22 25
25 26 25 23 22 20 21 19 21 19 16 17 17 15 13 11 11 10 8 8 9 8 7 11 12 11 14 13 15 13 13 14 15 16 18 19 21 21 20 20 21 22 24 26
21 20 19 20 19 17 15 13 13 16 12 11 10 8 6 6 5 4 5 7 6 6 9 10 10 12 13 13 13 14 15 16 16 16 18 20 21 23 22 20 21 22 24 25

GFSNGP_850_spd_042.txt.gz
Wind_Speed
17 14 18 19 9 9 14 7 9 7 9 10 10 11 15 17 12 9 22 27 29 28 24 22 20 20 21 22 27 43 45 43 46 45 34 31 36 35 32 38 33 29 27 25
10 13 16 20 20 16 15 10 7 8 8 8 19 22 14 20 26 23 19 26 30 30 26 25 22 21 21 18 22 33 40 38 36 34 34 30 28 27 26 27 26 24 22 21
6 16 13 11 27 19 6 7 6 8 8 8 9 10 17 28 33 34 31 31 30 34 33 30 27 28 25 22 21 25 26 30 27 29 28 28 29 26 25 23 22 20 20 21
7 14 8 18 4 16 16 9 7 5 6 10 18 28 29 26 33 37 33 33 29 34 34 32 31 29 24 22 23 26 26 28 31 31 30 27 25 23 22 22 19 17 18 19
4 7 16 5 12 3 7 14 8 8 11 9 19 16 11 17 29 27 35 34 34 35 34 37 34 31 27 24 23 22 24 25 25 24 22 21 21 21 19 18 17 17 16 16
3 4 6 9 7 19 2 8 9 15 12 9 9 2 5 18 29 39 35 33 39 35 33 35 33 31 29 25 24 23 21 20 19 19 17 18 17 18 17 16 16 15 16 15
4 4 8 11 23 15 11 7 19 6 14 15 6 11 18 15 26 28 28 32 28 29 33 34 33 31 28 25 23 21 22 22 21 19 17 16 16 16 16 17 17 17 17 16
5 4 10 2 13 5 6 9 21 26 10 9 13 9 10 22 24 26 29 30 30 32 32 33 32 29 26 24 24 24 23 21 20 18 17 17 17 18 18 18 17 18 20 22
9 7 4 3 1 10 5 9 13 23 23 26 14 13 22 24 25 25 25 29 29 31 32 30 28 25 25 25 25 24 22 20 18 16 15 14 15 17 17 17 18 19 20 21
3 8 11 7 9 19 12 9 15 23 24 22 15 18 24 29 32 31 35 33 31 32 30 28 26 24 22 24 23 21 19 18 18 18 18 18 18 17 17 18 18 18 18 18
5 6 5 18 9 12 10 5 11 14 19 20 14 13 21 25 32 34 34 31 31 31 30 28 26 24 23 22 22 20 20 21 20 19 19 20 18 17 18 15 12 12 14 14
6 11 7 15 14 8 10 6 10 13 15 14 18 17 17 24 29 31 31 31 29 28 28 27 25 24 22 22 22 23 22 20 20 19 19 18 19 19 16 13 12 11 11 12
7 19 13 13 12 8 15 14 11 13 12 18 20 20 12 22 25 28 29 28 29 31 29 27 26 25 22 21 20 20 21 22 21 20 18 16 13 10 11 10 10 10 11 11
22 18 7 15 8 8 5 2 4 5 12 15 19 16 19 16 27 31 30 32 31 30 29 29 28 24 21 19 19 19 20 19 19 18 16 13 11 9 7 6 6 7 8 11
22 16 11 6 5 7 8 8 5 2 1 4 6 15 24 32 33 31 31 33 34 33 30 29 27 25 23 23 23 21 18 16 14 11 8 6 5 7 9 10 11 10 10 12
16 12 15 14 13 13 11 9 9 9 8 12 18 25 29 31 33 33 33 34 36 36 32 29 29 26 22 19 16 13 10 9 9 11 12 13 11 10 9 8 9 10 12 13
13 14 18 17 16 17 15 10 10 12 13 16 21 25 28 32 32 32 32 31 33 34 30 25 22 16 11 10 10 12 13 12 10 7 7 6 6 6 7 8 10 11 12 14
6 5 6 7 9 11 13 14 14 16 18 18 20 22 26 30 36 36 34 30 27 25 20 16 14 12 10 9 7 7 7 6 4 3 3 4 5 7 8 9 10 11 12 14
10 10 11 12 13 15 17 18 18 20 22 23 26 31 34 34 31 28 24 22 21 21 19 14 12 10 9 7 4 3 2 1 1 2 4 6 7 7 8 10 12 14 14 14
21 21 20 22 22 23 24 23 23 26 27 28 33 34 33 29 26 24 22 26 23 21 15 13 10 9 8 6 4 4 4 5 5 5 7 8 8 9 9 10 10 12 14 15
27 28 30 31 33 31 30 30 32 33 31 29 31 32 30 27 24 22 23 26 20 15 13 11 10 9 7 7 6 7 7 7 7 8 7 7 7 9 10 12 13 14 15 17
30 32 34 34 35 35 34 34 34 33 32 31 30 28 27 26 23 23 22 21 16 12 10 10 9 8 7 7 7 7 7 7 8 8 8 9 10 11 11 13 14 15 16 18
31 32 33 33 33 33 31 31 30 30 29 27 25 22 22 20 17 16 18 13 10 10 10 11 10 8 6 6 7 8 8 8 8 8 9 11 12 12 13 13 16 18 19 19
29 29 29 28 27 27 29 26 25 25 24 23 22 19 17 15 17 15 12 9 10 10 10 11 10 8 8 8 9 10 10 9 9 10 11 12 13 16 18 20 21 19 18 19
22 22 21 22 24 24 22 20 21 20 19 19 18 16 15 13 12 13 9 9 9 9 11 12 12 11 12 13 13 11 10 11 12 13 14 15 17 18 19 19 20 20 21 23
20 21 21 20 19 17 16 15 18 16 15 16 15 13 12 11 9 8 8 9 9 9 10 11 12 12 13 14 14 14 15 16 16 17 16 15 16 19 20 20 18 19 20 22
17 17 17 17 16 13 12 11 11 13 11 9 9 8 6 5 5 5 5 5 6 8 11 12 11 12 14 15 15 14 14 14 16 16 16 18 19 19 18 18 19 20 20 22

GFSNGP_850_spd_045.txt.gz
Wind_Speed
5 6 10 15 16 18 16 12 13 7 11 10 10 10 14 22 13 14 13 23 24 28 26 26 30 33 35 33 36 41 44 45 47 45 45 47 48 41 39 40 40 37 40 40
4 6 2 13 20 18 19 14 8 6 7 8 15 19 9 18 24 21 20 19 29 32 29 28 29 29 27 28 27 29 34 38 40 42 41 39 42 39 35 37 37 41 35 42
5 2 6 8 5 13 17 17 9 12 9 7 7 9 16 27 30 30 31 27 26 33 33 34 33 32 29 27 22 23 26 29 35 39 41 43 46 44 40 31 29 29 31 27
4 1 3 9 3 14 18 20 15 8 5 9 9 19 21 28 34 35 35 37 35 33 32 35 37 34 30 28 24 22 25 27 30 34 38 40 42 36 27 27 24 26 25 26
2 2 7 9 6 2 8 24 23 15 9 8 19 15 18 27 24 28 29 33 34 32 38 35 40 36 33 29 25 24 25 25 27 28 28 27 26 26 28 25 26 26 26 26
3 2 6 18 5 16 12 20 5 7 9 12 9 8 6 27 26 25 21 24 27 37 39 34 37 37 32 29 26 26 26 24 22 20 18 22 24 25 24 23 23 22 22 21
4 4 8 8 1 7 1 7 22 16 16 14 5 17 31 34 30 28 28 33 33 26 29 33 34 33 33 27 25 24 23 21 21 21 23 24 24 23 23 22 21 21 21 21
4 4 8 7 4 7 5 36 27 22 19 18 22 19 18 28 28 24 29 29 27 21 28 28 30 30 28 26 25 22 20 21 23 23 22 22 23 24 24 23 23 23 22 23
9 7 7 7 5 12 6 12 32 25 22 18 18 17 14 11 19 23 18 14 15 20 26 26 28 28 27 25 22 20 20 20 22 22 22 21 22 23 23 22 22 23 23 22
2 7 11 20 26 22 16 8 33 31 19 14 14 14 11 12 13 15 18 19 23 25 25 26 26 23 19 17 18 19 21 22 22 21 21 20 19 19 19 19 19 18 21 21
8 10 10 23 25 25 23 21 17 24 19 10 11 14 17 12 6 11 12 14 19 22 23 23 22 20 19 17 19 21 21 22 21 20 20 21 20 19 18 18 15 14 15 16
4 6 5 12 20 16 19 21 12 19 16 15 11 10 13 11 9 7 11 15 15 17 20 21 20 19 19 19 19 18 20 21 20 19 20 19 20 20 17 14 14 13 13 13
6 19 19 14 5 9 7 5 10 14 13 14 14 7 5 5 5 5 5 11 15 20 20 20 19 19 19 18 18 17 17 18 17 16 17 17 18 16 17 15 12 11 11 12
14 14 4 12 12 15 12 11 10 9 9 10 9 3 4 2 9 9 10 15 17 18 19 18 20 20 20 20 19 18 18 19 20 21 20 18 15 11 7 5 8 9 8 7
12 12 9 12 9 10 10 10 10 8 8 5 2 8 10 12 15 16 17 20 25 25 22 21 21 21 21 21 21 22 23 22 20 18 15 11 9 9 9 8 9 9 9 9
14 9 10 11 12 12 11 9 9 10 8 8 8 10 14 20 24 23 22 24 27 28 27 25 24 23 23 20 19 17 13 11 9 8 8 7 6 7 8 8 7 6 6 7
10 6 11 11 11 13 13 13 12 11 12 12 14 16 19 23 27 28 28 28 30 31 28 25 24 18 14 9 6 7 7 7 5 4 5 4 4 4 3 4 5 5 6 8
2 2 3 4 7 8 12 13 12 13 17 17 20 22 26 28 35 34 32 30 29 28 24 19 14 12 10 9 8 8 7 7 5 4 2 1 0 1 2 4 5 6 8 10
7 9 9 10 9 12 14 16 16 17 18 21 28 35 36 35 33 31 27 27 26 26 23 17 14 13 13 11 8 7 6 5 4 3 2 3 4 4 5 6 7 7 8 9
20 19 19 22 22 23 24 22 23 27 28 30 33 33 33 30 27 25 24 29 26 23 17 15 13 13 12 10 7 7 6 5 5 5 5 6 6 6 6 6 7 9 11 12
26 27 29 30 31 29 30 29 30 32 30 29 30 31 31 28 26 24 24 28 22 16 14 12 11 11 10 9 8 8 8 7 7 7 7 6 6 7 8 9 10 11 13 14
27 30 32 32 31 31 29 29 30 30 30 29 29 27 26 26 24 24 24 22 17 13 11 11 10 9 9 8 8 8 8 8 8 7 7 7 8 9 10 11 12 14 15 16
29 31 31 30 29 29 27 27 27 26 26 24 22 20 20 20 18 17 20 16 14 13 11 11 10 9 9 9 9 9 8 8 8 8 8 9 9 10 12 14 14 15 13 14
26 26 26 24 23 24 26 24 23 22 22 21 20 18 16 15 17 16 15 13 12 11 11 11 10 10 11 11 10 10 10 10 10 10 11 11 12 12 13 13 14 15 15 16
19 19 19 18 20 21 19 17 17 17 16 17 16 16 14 14 12 12 9 9 9 10 11 11 12 12 13 13 12 12 12 11 10 11 11 11 11 13 14 15 15 16 17 19
15 16 16 16 16 14 13 11 14 14 12 13 13 12 11 10 9 8 8 8 9 10 11 10 10 10 11 11 11 11 11 11 12 13 13 13 15 15 15 16 17 18 19 20
13 12 12 12 12 10 9 9 7 10 8 8 7 6 6 5 5 5 5 6 7 9 10 11 12 12 13 12 12 12 12 11 12 13 13 14 15 16 17 18 19 21 22 22

GFSNGP_850_spd_048.txt.gz
Wind_Speed
3 5 4 8 9 6 5 6 7 8 12 9 9 12 17 28 23 19 21 22 20 21 21 23 28 31 31 29 32 32 32 36 38 43 47 47 47 49 52 52 51 49 49 42
4 9 10 11 7 8 6 5 8 11 14 9 20 18 17 24 22 23 22 22 24 25 25 27 25 25 29 27 28 30 32 32 32 35 39 40 39 41 44 49 50 47 43 38
2 2 3 7 7 12 7 5 5 5 10 15 12 11 12 26 25 26 26 29 27 23 26 29 29 26 28 30 29 30 33 33 33 32 34 34 33 37 39 42 42 40 36 34
1 0 3 6 3 5 8 9 8 7 6 13 23 28 28 30 22 24 30 27 32 34 32 29 32 36 32 33 30 28 31 31 29 27 28 31 33 35 37 38 35 32 32 36
3 3 7 10 6 6 8 17 5 8 7 10 25 26 27 28 30 28 25 25 24 31 35 36 35 36 35 34 33 30 30 27 25 24 25 28 30 32 35 36 34 32 26 26
3 2 5 4 3 5 3 9 3 5 6 8 19 8 10 28 30 34 30 25 28 29 30 29 34 37 35 36 35 31 29 24 22 20 19 20 20 22 23 24 25 24 23 20
3 3 7 6 6 1 2 6 13 10 10 12 6 11 33 42 39 37 35 35 30 30 28 24 26 27 30 34 33 29 24 20 18 13 10 10 11 17 22 25 26 24 21 18
4 4 8 7 2 6 7 11 11 19 17 16 28 42 43 33 27 26 29 29 28 25 26 24 21 22 28 30 28 22 18 16 13 10 13 17 20 24 23 22 20 18 18 20
8 7 4 7 10 11 16 18 19 19 22 29 31 39 38 31 18 13 12 15 17 15 17 16 17 20 25 24 20 18 15 15 14 16 16 17 18 18 17 16 16 17 17 18
2 5 12 21 21 20 18 23 27 17 14 28 31 36 32 26 14 11 8 4 4 7 10 12 14 14 14 15 15 15 16 16 18 18 19 16 14 12 12 13 14 15 16 16
10 7 13 24 10 25 26 21 24 25 17 23 30 31 28 20 14 9 5 3 3 5 11 11 12 15 16 13 12 15 17 17 18 17 16 16 15 12 10 9 8 9 11 12
4 5 3 12 17 21 16 18 17 17 16 16 26 27 17 11 4 7 7 6 6 11 14 14 13 15 14 13 14 14 16 18 17 17 17 15 14 16 16 14 13 13 13 14
6 18 19 19 11 15 16 17 21 18 14 18 23 16 6 3 2 5 8 10 8 12 12 16 15 13 15 15 16 15 14 18 18 18 20 21 21 21 22 18 15 12 11 11
8 16 7 10 10 17 17 10 15 15 11 10 10 7 2 5 7 7 9 12 16 16 18 14 15 14 16 18 20 22 24 25 24 24 22 20 17 14 11 10 8 6 5 5
9 10 11 13 10 11 11 9 10 12 12 9 9 6 4 7 10 15 15 13 15 18 20 19 19 16 16 18 21 20 20 20 18 17 13 11 8 6 5 4 3 4 7 7
15 11 9 8 10 10 12 15 11 13 13 12 12 13 12 13 16 18 19 18 21 26 25 24 25 22 19 17 19 19 18 15 13 12 11 9 7 6 6 5 5 5 4 4
9 6 10 9 9 11 13 11 11 11 12 14 17 16 20 23 27 30 31 31 33 33 30 28 27 21 20 18 17 17 15 13 10 9 9 7 6 5 4 4 4 4 4 5
2 3 4 4 6 9 12 10 12 14 16 17 19 22 29 31 35 34 33 31 30 30 27 23 19 17 17 16 15 14 12 11 9 8 7 6 5 4 3 3 2 1 2 4
7 7 8 11 12 15 17 16 17 18 18 22 25 29 31 32 30 30 27 28 29 29 25 18 16 17 18 16 13 11 10 9 8 8 6 6 5 4 3 3 2 2 3 6
16 16 17 18 18 20 22 22 25 29 29 30 31 29 30 28 25 24 25 31 28 24 19 18 17 18 16 14 12 11 9 8 8 7 6 5 5 5 5 4 4 5 7 9
22 24 26 27 28 28 27 25 25 27 26 27 28 28 27 26 24 23 25 28 22 16 15 14 15 14 13 12 11 10 9 8 7 7 6 6 5 5 5 6 7 8 9 11
26 28 29 29 29 29 27 26 26 28 28 28 26 25 24 24 22 23 23 22 16 12 12 13 13 12 11 10 9 9 8 7 7 7 6 6 6 6 7 8 10 11 11 11
26 26 26 26 26 26 25 24 23 22 22 21 19 18 18 18 17 16 20 17 14 11 11 13 12 11 11 10 10 9 9 8 8 8 8 8 8 9 9 10 11 12 13 13
23 22 22 20 21 21 23 20 19 19 19 18 18 16 14 13 15 17 16 13 11 11 11 12 11 11 11 11 10 10 10 10 10 10 10 10 10 10 11 12 12 13 13 15
16 16 15 15 17 19 17 15 15 15 14 15 14 13 12 11 11 12 9 10 10 11 12 12 12 13 13 12 12 11 11 10 10 10 10 10 11 12 13 14 15 16 17 18
13 13 13 14 15 13 13 10 12 13 10 10 10 10 9 10 9 8 9 9 11 11 12 12 11 11 11 10 10 10 10 10 11 12 13 13 14 15 16 16 16 17 19 19
12 12 12 12 12 10 8 8 7 9 8 7 7 8 7 7 6 7 8 9 10 11 11 11 11 11 11 11 11 11 11 12 13 14 15 15 15 15 16 17 18 19 19 19

GFSNGP_850_spd_051.txt.gz
Wind_Speed
2 4 5 5 7 7 5 8 6 6 11 11 14 15 17 24 28 28 32 32 23 22 21 22 22 26 26 25 26 28 30 33 34 38 42 44 46 45 45 44 44 45 44 45
3 9 8 7 8 10 13 14 13 14 12 15 20 18 17 23 25 22 26 30 29 25 23 24 23 23 25 23 25 27 27 27 30 31 33 36 37 40 41 43 46 48 49 47
2 2 1 6 8 14 8 9 6 10 12 3 8 13 18 19 27 25 29 27 28 27 29 26 26 25 27 25 27 29 28 29 30 30 28 28 31 33 33 35 35 39 43 43
2 1 5 2 4 4 7 12 14 14 12 13 17 19 29 27 23 33 32 24 20 27 31 34 32 27 27 31 30 29 31 31 31 29 27 27 29 28 29 30 31 31 29 29
2 4 8 10 6 4 6 10 3 3 7 12 16 19 17 16 20 23 28 32 35 35 25 27 34 35 33 33 36 33 32 34 34 31 28 27 26 26 24 22 23 28 29 31
3 3 5 3 1 1 2 6 4 4 8 11 15 10 10 33 37 37 31 32 35 32 32 27 24 29 34 37 36 36 34 34 33 29 27 22 20 18 19 21 25 26 26 28
4 4 7 10 8 3 2 2 2 4 13 11 7 10 24 39 41 38 30 29 33 38 36 31 24 21 24 29 30 32 32 29 27 25 23 18 14 17 18 20 23 25 25 23
6 5 8 4 5 4 2 14 13 13 15 14 17 25 28 32 34 40 32 29 25 29 33 27 20 18 19 23 28 27 25 23 21 19 16 15 15 17 18 19 22 22 23 23
8 6 1 4 3 12 16 14 15 19 21 21 18 20 29 34 36 34 27 24 19 17 17 17 15 14 17 19 20 20 21 22 19 19 16 14 17 20 18 19 20 20 17 15
2 5 14 16 8 9 16 15 19 22 19 15 16 24 26 37 30 25 19 15 11 5 2 5 7 8 11 15 18 20 20 21 20 18 17 17 16 16 16 16 15 13 15 16
8 9 13 8 10 17 20 17 18 18 10 11 17 31 29 28 27 18 12 7 4 4 6 12 11 15 17 18 19 21 21 22 20 19 19 20 19 16 13 13 9 9 10 10
5 2 4 8 18 17 18 18 18 18 15 11 14 25 22 18 19 11 8 4 8 10 9 9 9 15 16 17 18 19 20 21 21 20 19 17 16 18 16 13 12 9 9 11
2 8 15 12 8 11 17 17 15 12 12 13 19 16 14 14 13 7 5 7 7 9 12 14 14 13 12 12 15 19 22 23 21 20 21 21 19 17 18 17 14 11 9 9
6 8 7 5 8 16 15 13 12 11 11 13 9 10 8 6 4 6 10 12 13 13 15 14 12 13 15 13 16 18 19 19 17 16 18 19 19 18 16 14 14 13 9 4
7 7 11 9 10 11 11 10 9 9 10 10 10 9 6 7 9 11 14 14 15 19 22 19 19 21 15 14 16 20 20 21 22 22 20 19 16 14 12 10 9 7 5 2
16 13 3 3 6 8 8 8 8 9 10 11 11 13 14 16 16 18 20 21 24 31 29 29 30 26 21 21 23 26 24 21 20 18 15 13 11 10 9 8 8 7 5 3
10 6 8 5 6 5 5 6 6 7 8 12 13 15 20 26 30 31 32 32 33 33 30 29 27 23 21 19 20 20 19 17 15 14 13 12 11 10 9 9 8 7 5 2
3 4 4 2 3 5 9 9 10 13 17 19 21 24 27 28 34 31 31 30 31 32 29 25 22 21 21 18 18 17 16 15 14 13 12 11 10 9 8 7 6 5 3 0
5 6 7 8 9 11 13 15 16 18 21 24 25 28 30 30 30 29 28 28 31 32 27 21 19 19 20 18 16 15 14 13 12 12 11 10 9 8 7 5 4 2 1 3
13 13 13 15 16 17 19 19 22 26 27 26 27 27 28 27 26 26 27 32 29 25 19 17 17 18 17 15 12 12 11 10 10 10 9 8 8 7 6 4 3 3 4 5
19 21 23 24 25 24 24 24 25 27 26 25 26 26 24 23 24 25 26 28 22 16 15 14 15 15 14 13 12 11 10 10 9 9 8 8 7 6 5 5 4 4 5 5
21 23 24 25 26 26 24 24 25 25 25 25 24 23 22 22 21 22 23 22 17 14 13 14 15 14 12 11 10 10 10 10 10 10 10 9 8 7 6 6 5 5 6 6
22 23 24 24 25 25 23 22 20 19 20 19 18 17 17 18 18 17 19 17 14 13 13 14 13 12 11 12 12 12 12 11 10 10 10 9 8 8 7 7 7 7 7 8
20 20 21 20 19 19 21 18 17 17 17 17 16 15 14 14 15 16 15 12 12 12 13 13 12 12 12 12 12 12 11 10 10 9 9 9 8 8 7 7 8 8 9 10
15 15 15 14 15 17 15 14 13 13 12 13 13 12 12 12 12 13 10 11 12 12 12 12 12 12 11 11 11 10 10 9 9 9 8 8 8 8 8 8 9 10 11 13
12 13 13 13 14 12 11 8 8 9 8 8 9 10 10 10 10 9 9 10 11 12 12 11 11 10 10 9 8 8 8 8 9 9 9 9 9 9 10 11 12 13 14 14
11 10 10 10 10 8 7 7 6 7 7 7 7 8 8 8 7 8 9 10 10 11 10 10 9 9 8 8 8 9 9 10 11 11 11 11 12 12 13 13 13 13 13 13

GFSNGP_850_spd_054.txt.gz
Wind_Speed
1 1 1 4 7 7 6 6 6 8 9 8 9 12 16 18 22 25 26 23 18 16 15 16 21 25 27 30 33 36 36 37 44 45 45 42 43 42 42 43 44 42 40 40
5 5 6 8 9 9 10 11 11 15 17 12 13 14 16 20 22 23 26 28 24 20 18 18 20 24 24 28 32 33 36 39 37 37 38 41 41 41 39 41 41 39 39 38
9 3 5 8 15 16 13 12 9 11 8 11 12 13 19 24 24 26 30 29 29 28 21 18 18 23 27 28 26 32 34 33 34 34 35 35 34 35 36 36 32 33 33 33
3 3 7 1 3 0 6 9 8 8 8 7 9 12 17 22 20 22 27 31 31 30 27 20 19 18 23 22 26 31 32 31 31 33 33 30 29 29 28 28 28 29 31 32
4 11 9 12 6 8 7 4 0 3 6 10 11 13 10 10 19 25 27 30 33 31 30 30 24 18 21 21 25 28 33 33 31 31 30 29 29 27 24 26 28 29 27 26
5 7 6 4 5 1 1 3 7 7 8 11 14 8 8 21 22 24 27 30 34 32 31 28 30 22 22 23 25 30 33 30 28 29 29 27 25 28 29 25 22 22 24 24
11 7 3 9 6 2 5 4 11 15 15 17 9 10 17 20 25 24 27 31 34 31 28 25 23 23 26 25 27 26 27 29 27 25 27 34 32 27 24 21 22 23 24 23
11 6 6 6 3 4 7 9 16 19 20 20 19 15 15 16 23 26 30 32 32 31 27 21 19 18 19 17 24 27 30 29 30 29 29 28 27 23 20 19 20 21 21 20
7 7 3 3 3 8 10 12 15 17 20 21 17 11 11 16 19 24 30 30 29 26 24 21 14 8 10 18 20 20 21 23 22 22 23 24 22 22 24 20 21 21 20 19
5 8 10 8 2 6 9 9 11 14 15 15 13 14 15 15 18 23 33 38 30 24 19 15 9 6 8 11 14 17 18 22 24 26 24 22 21 18 17 17 20 19 20 20
12 13 12 13 2 8 10 10 12 13 13 12 14 14 16 15 16 19 24 36 26 20 14 10 7 0 7 12 15 20 24 25 25 24 23 22 20 20 18 19 17 18 18 17
8 5 1 6 9 9 13 12 13 14 14 12 12 14 14 12 13 15 12 17 20 16 10 8 5 8 8 8 13 19 23 25 26 27 27 25 25 26 21 18 16 13 14 13
4 6 8 12 11 7 10 10 10 10 11 12 10 10 9 8 11 11 8 8 9 12 10 9 9 11 13 13 15 19 25 26 26 26 27 26 25 25 27 22 19 18 16 13
5 8 7 8 4 11 12 11 9 6 7 9 9 7 7 7 8 9 12 12 10 7 10 13 16 19 19 14 15 17 17 21 22 22 22 24 24 25 25 25 24 23 18 15
7 7 9 12 10 10 10 8 5 5 6 8 8 7 5 7 8 10 13 15 14 15 19 20 25 25 21 19 21 23 23 25 27 28 28 26 25 22 21 20 20 19 16 13
12 9 3 1 5 7 6 6 2 4 5 5 7 9 10 13 14 16 19 21 24 29 28 29 30 28 27 27 28 28 27 25 24 24 21 20 20 18 17 15 15 13 11 9
9 3 7 4 4 5 4 4 3 3 4 8 11 14 18 23 26 26 27 28 27 28 26 27 26 23 24 25 24 25 23 21 19 18 18 17 16 15 13 12 11 9 8 7
4 3 4 4 4 5 8 6 7 9 11 13 17 20 22 25 27 26 26 25 25 25 26 24 21 21 21 21 20 19 18 18 16 16 15 14 14 13 12 12 10 9 7 5
6 7 7 9 9 10 11 11 13 15 17 20 22 24 25 24 23 23 22 23 25 25 22 18 17 17 18 17 16 16 15 15 15 15 14 13 13 12 12 11 10 8 7 6
11 11 12 13 13 14 17 17 19 22 22 22 23 23 23 22 21 21 20 25 23 19 14 14 14 16 16 14 13 14 13 13 13 13 12 12 12 11 9 8 8 7 6 6
15 17 20 21 21 21 21 21 21 22 21 20 20 20 19 17 17 17 18 19 17 14 13 12 12 13 13 11 11 11 11 11 11 12 11 10 10 9 8 8 7 6 6 6
19 21 22 22 23 23 22 21 21 21 20 20 19 18 16 16 15 16 17 16 14 12 11 12 13 13 11 10 12 12 12 11 11 11 10 9 9 8 7 7 6 5 4 4
20 21 22 22 22 21 19 18 17 16 16 15 14 13 13 13 11 10 13 15 13 12 12 12 12 11 11 11 12 12 12 11 10 10 9 8 7 7 6 5 4 3 3 5
18 18 18 17 16 15 16 14 13 13 12 12 11 10 10 10 11 12 12 11 10 10 9 10 10 10 10 11 11 10 10 9 9 8 7 6 5 4 4 4 4 5 6 8
14 14 12 11 11 11 10 9 9 9 9 9 9 10 10 9 9 9 9 9 9 9 9 10 10 10 10 10 9 8 8 8 7 6 5 5 5 5 5 6 7 8 9 10
9 9 9 9 9 7 6 6 6 6 6 7 8 8 8 9 8 8 7 8 8 8 8 8 8 8 8 8 8 7 6 6 6 5 5 6 6 7 8 9 9 10 10 10
9 9 7 7 6 6 5 5 5 6 6 6 6 6 5 5 5 5 6 6 7 8 8 8 7 7 6 6 6 7 7 7 7 7 7 7 8 9 9 10 10 10 10 11

GFSNGP_850_spd_057.txt.gz
Wind_Speed
9 5 5 6 14 11 12 12 10 12 10 8 6 8 12 13 15 18 18 18 20 21 17 16 16 21 26 30 32 34 36 37 43 46 46 41 42 43 46 45 48 46 46 48
8 6 6 7 9 11 13 12 12 14 14 13 14 5 9 12 16 19 22 21 20 21 21 20 20 19 23 27 32 33 36 43 43 39 40 43 43 45 43 44 44 44 44 44
4 7 8 8 14 14 13 14 13 13 9 9 6 6 10 16 18 18 18 24 25 24 23 22 22 19 19 24 26 31 37 41 39 41 41 44 44 40 43 44 41 43 44 44
5 5 4 6 5 3 12 13 11 7 4 4 5 6 10 14 10 15 18 23 26 26 25 24 23 23 23 21 25 30 33 36 37 39 42 40 40 42 42 42 42 41 40 39
5 7 10 5 3 9 7 7 3 2 3 3 6 9 10 12 13 16 18 21 24 27 28 26 24 24 25 25 24 28 32 35 36 38 39 38 39 42 41 39 37 36 33 33
5 11 11 5 3 2 3 7 11 5 4 7 10 6 6 15 15 18 21 22 25 26 25 25 24 23 23 25 26 27 31 35 35 32 35 37 37 35 35 33 34 38 35 36
11 8 6 8 9 0 11 5 10 6 8 11 8 10 13 13 14 16 20 24 25 24 23 24 27 26 23 24 26 27 26 27 29 32 33 33 30 29 38 42 40 36 36 34
13 10 13 8 3 7 8 5 8 8 10 10 12 13 11 11 16 18 21 23 24 25 25 30 31 31 28 22 21 19 23 21 28 31 33 36 41 42 37 36 35 34 32 28
11 9 3 3 8 9 7 7 10 11 11 12 15 16 15 14 17 17 19 20 22 24 26 29 30 27 23 21 25 25 22 25 30 33 31 32 32 33 33 32 30 29 25 22
1 7 9 6 7 7 9 10 11 12 14 14 14 15 14 15 16 17 18 21 24 27 28 30 32 27 22 20 19 19 17 20 23 25 26 25 25 27 29 28 26 25 24 21
8 9 7 7 8 7 10 12 14 15 16 15 16 14 15 15 15 16 17 19 20 25 25 27 25 26 20 14 12 14 15 18 22 23 23 25 25 22 22 22 21 21 22 22
4 10 9 8 9 9 13 14 15 16 16 14 13 14 14 11 13 15 17 19 19 20 20 21 22 20 17 11 5 8 14 17 22 27 24 25 29 29 21 20 20 20 21 18
4 7 8 11 10 10 11 12 12 13 13 14 13 12 11 10 12 13 13 14 16 17 17 17 16 14 14 11 6 6 17 24 28 33 30 31 34 37 40 33 30 27 23 22
8 11 1 10 6 8 9 9 8 7 8 9 10 8 8 8 9 12 14 13 13 14 16 17 19 20 16 19 14 21 24 28 30 31 30 31 27 34 31 29 30 30 25 22
6 7 6 7 4 7 8 9 5 6 6 7 9 9 8 9 11 13 13 16 18 21 23 23 26 24 20 20 22 26 27 32 31 31 30 30 26 29 28 28 28 27 21 18
11 7 3 4 5 7 8 7 5 6 6 7 8 9 11 14 16 17 18 18 22 27 26 26 29 25 23 24 26 27 27 28 27 26 26 25 23 24 23 21 21 20 19 15
9 4 9 6 5 6 7 6 6 5 6 8 11 13 15 17 20 22 23 22 23 24 23 22 22 20 21 22 22 23 23 23 22 22 23 21 20 20 19 17 18 17 16 13
6 5 4 3 4 4 7 8 8 10 11 13 15 15 17 19 20 20 19 19 20 22 23 21 18 18 18 19 18 17 17 17 18 19 19 18 17 17 18 16 16 15 13 12
7 7 7 8 9 10 11 12 13 14 16 17 18 20 20 19 17 16 15 16 18 20 20 18 17 16 16 15 14 14 15 16 17 17 16 15 15 16 15 15 14 12 10 9
10 11 12 13 13 13 16 16 16 18 18 18 18 18 18 17 15 14 14 18 19 17 14 13 14 14 15 14 14 14 15 15 15 14 13 13 13 13 12 13 11 11 10 9
14 16 18 18 20 19 19 18 17 17 15 15 15 15 14 12 10 12 14 15 14 12 11 10 10 13 13 13 14 14 14 14 13 13 12 11 11 10 11 11 10 9 9 7
15 17 19 18 19 19 18 17 16 16 16 16 15 15 14 13 14 14 14 13 11 11 10 11 12 12 12 12 13 12 12 12 12 10 10 10 9 9 9 9 8 7 7 6
17 18 18 18 17 17 15 14 12 11 10 10 11 11 11 11 9 7 9 11 10 10 10 11 11 10 11 12 11 11 11 11 11 9 10 9 8 7 6 6 6 5 4 4
15 15 15 14 13 12 13 11 11 10 10 10 8 9 8 7 9 9 8 9 9 10 10 10 9 9 9 9 10 10 10 9 9 9 8 7 7 7 6 5 5 4 5 6
12 12 11 9 8 8 8 8 8 8 8 8 8 8 8 8 6 5 6 7 8 8 8 7 7 8 9 9 9 9 9 9 8 7 7 6 6 5 5 6 7 8 9 9
8 7 7 8 7 5 5 4 4 4 4 4 5 5 6 6 6 6 7 8 8 8 8 8 9 8 9 9 8 8 7 7 6 7 6 6 6 6 8 9 9 9 10 10
7 7 5 5 5 4 4 4 3 3 3 2 3 3 4 4 6 5 6 6 7 7 7 7 8 8 8 7 7 7 7 7 9 8 9 8 9 9 10 10 10 10 11 11

GFSNGP_850_spd_060.txt.gz
Wind_Speed
15 17 16 12 15 13 9 13 9 12 13 7 6 16 5 7 13 13 13 16 18 22 25 27 24 20 11 23 29 33 34 37 43 43 43 41 41 44 45 47 50 50 51 52
11 9 9 9 10 7 17 15 5 9 7 11 21 13 11 13 12 13 13 17 15 17 20 25 27 27 24 24 25 30 35 38 41 40 41 45 45 44 43 46 48 50 52 53
3 8 9 8 11 14 16 8 5 9 5 11 5 6 9 11 12 16 16 17 19 20 21 22 24 27 28 27 21 19 31 37 40 40 41 44 46 45 47 49 47 51 54 51
4 6 5 4 2 8 12 7 11 12 4 2 8 10 8 17 16 14 16 17 19 20 22 22 20 17 20 21 22 25 26 33 37 40 43 45 44 46 49 50 49 48 48 49
4 4 8 10 4 2 3 6 11 3 6 8 9 5 11 16 13 14 17 20 22 21 19 20 22 25 26 24 21 22 22 26 31 39 42 43 44 47 47 44 45 47 46 44
7 4 3 7 3 2 1 2 10 11 9 9 10 3 6 7 8 13 15 21 23 23 20 21 27 30 31 28 23 22 24 26 22 29 41 43 44 45 43 41 40 38 43 44
11 8 6 6 3 3 6 5 15 16 14 13 7 8 14 10 12 14 17 20 23 24 25 27 29 29 29 30 28 27 25 27 29 27 27 39 39 39 39 39 42 45 46 45
10 9 12 3 4 5 12 18 13 11 11 13 13 15 17 19 18 19 18 19 20 21 22 26 32 34 32 31 32 31 30 28 27 26 25 29 33 38 39 41 43 43 41 38
9 8 6 7 18 16 17 17 10 10 12 11 10 12 13 16 16 17 17 16 18 19 21 25 28 29 31 33 33 33 29 25 28 28 25 23 30 37 40 39 37 36 35 35
2 8 8 16 13 18 14 14 11 11 12 11 10 11 11 12 13 15 15 18 19 21 21 25 26 27 26 27 28 26 24 21 19 15 17 21 20 23 26 28 31 33 31 28
7 3 11 19 9 18 17 14 13 12 13 12 10 10 11 12 13 13 15 18 18 19 20 23 24 24 23 23 22 21 17 12 9 4 1 6 11 13 19 20 23 28 26 25
4 9 17 11 17 16 15 13 13 12 12 12 12 11 10 9 10 12 14 16 17 18 19 21 21 21 20 20 17 13 12 8 11 15 21 25 25 27 22 19 18 18 21 23
6 10 12 15 17 16 14 14 13 15 14 13 13 11 10 9 11 11 13 15 17 18 18 19 21 22 21 18 15 15 20 18 18 23 28 30 34 41 46 40 39 40 28 34
16 17 7 18 11 15 13 14 12 13 12 11 10 10 9 9 10 13 17 18 18 18 20 22 22 23 20 18 20 22 26 23 25 28 29 29 28 31 33 38 39 34 31 28
16 12 10 9 12 14 14 13 12 12 11 11 11 10 10 11 14 16 15 17 19 21 24 24 26 26 22 21 23 24 28 27 25 28 28 28 30 30 31 32 33 27 24 25
12 8 9 11 11 13 13 12 10 10 10 10 12 14 15 16 18 20 20 19 20 24 23 22 23 21 19 20 21 22 25 25 24 22 22 22 23 20 23 27 25 22 20 17
10 11 10 10 8 10 11 10 10 10 10 12 14 14 14 15 17 20 20 19 19 20 21 21 20 17 17 17 17 18 19 20 19 20 22 20 19 20 21 21 20 20 20 17
9 7 6 6 10 11 11 11 11 11 12 10 11 12 14 16 17 16 16 14 15 16 19 19 17 16 17 16 15 17 17 17 17 18 18 19 19 19 19 18 18 16 16 14
10 10 11 11 12 13 13 14 14 14 14 15 17 18 17 16 13 12 10 10 13 15 17 16 14 14 14 15 14 13 13 14 15 16 15 15 16 17 15 14 13 11 11 11
12 12 13 14 14 15 16 15 15 16 15 14 15 15 15 14 13 12 11 15 16 14 11 10 11 13 14 13 12 12 13 14 15 14 13 15 14 14 13 13 12 12 13 12
15 16 18 18 18 17 17 15 14 15 15 14 15 15 14 12 8 8 10 12 12 10 10 11 11 13 13 12 12 12 13 14 14 14 14 14 13 13 12 11 10 9 8 7
15 17 17 17 18 18 15 15 15 14 13 12 12 13 11 11 11 9 9 10 9 9 10 10 11 12 12 12 13 13 13 12 12 12 11 10 10 9 9 8 7 6 4 5
15 16 16 15 15 15 13 11 10 9 8 9 10 11 11 8 5 5 8 10 10 11 10 11 10 10 11 10 11 12 13 13 13 11 11 10 8 8 7 5 5 6 6 3
14 13 14 14 13 12 12 11 9 10 11 8 6 7 7 6 7 8 8 9 9 10 9 9 9 10 10 9 10 11 9 8 9 8 8 8 7 6 7 7 3 5 6 6
12 12 11 10 9 8 8 8 8 7 7 6 6 7 8 5 3 6 6 7 7 6 9 9 8 11 9 9 9 8 10 10 9 7 7 7 7 6 8 8 9 10 8 9
8 7 6 7 7 5 3 2 3 2 2 4 4 4 4 2 4 4 9 10 9 8 8 9 9 7 7 8 9 9 7 9 9 8 6 7 8 7 10 11 9 10 11 11
7 6 5 5 4 1 4 4 3 2 2 1 2 2 4 6 7 5 6 4 6 6 7 7 10 12 11 8 9 8 8 8 11 11 10 10 10 11 12 12 12 12 12 12

GFSNGP_850_spd_063.txt.gz
Wind_Speed
11 14 6 9 13 13 9 11 8 4 12 9 8 15 14 19 24 27 27 29 30 28 26 25 24 21 17 14 19 36 33 29 35 34 34 35 36 39 44 48 51 50 48 50
4 9 12 7 17 14 10 6 15 5 8 10 7 12 22 16 25 22 26 25 23 21 22 23 22 22 22 20 12 13 23 42 37 37 39 39 39 40 40 44 47 52 55 56
3 11 12 6 3 7 4 5 6 8 10 20 16 12 9 22 25 24 25 28 23 19 18 20 24 25 24 24 21 16 8 11 31 43 44 43 44 44 43 45 45 48 52 54
3 5 3 7 17 12 14 16 20 12 11 4 18 22 25 27 28 26 28 24 20 17 15 18 22 23 22 22 22 20 18 15 9 9 30 45 48 49 50 49 49 49 50 52
2 2 9 9 9 4 8 4 8 11 12 16 21 27 18 21 23 23 21 18 16 13 14 16 20 23 23 23 23 23 24 24 22 24 16 16 31 51 51 52 53 55 54 53
2 4 4 3 11 15 3 5 14 17 15 13 18 10 6 28 25 22 17 17 17 17 18 21 24 24 24 24 24 25 26 26 27 30 32 30 25 29 52 54 54 53 52 53
7 4 5 6 9 11 3 2 12 20 23 22 14 11 20 21 20 16 14 16 17 19 22 25 26 27 26 26 25 23 25 26 27 31 35 34 31 29 33 51 52 50 49 50
4 4 8 8 5 2 9 16 19 22 25 24 25 23 23 18 15 14 17 19 19 21 23 24 26 28 29 30 30 29 25 24 28 28 33 35 30 26 24 36 46 47 48 48
8 6 4 16 16 23 23 21 20 21 19 18 22 22 17 14 14 17 18 18 19 21 23 25 27 27 28 28 29 31 30 29 27 26 24 26 26 22 17 22 28 36 38 35
4 9 8 24 23 23 24 26 21 18 15 13 13 9 10 10 12 14 18 19 20 20 22 25 27 27 26 25 26 27 27 25 23 23 22 17 14 10 9 10 16 19 21 28
3 8 21 22 18 23 25 22 19 15 14 13 8 7 6 8 11 12 14 15 16 17 18 19 21 22 22 22 22 22 21 20 18 18 17 15 12 12 9 6 2 9 11 12
3 8 17 16 16 17 15 10 17 15 11 12 8 9 6 9 8 9 11 11 13 14 15 16 17 18 20 19 18 16 17 18 18 19 22 26 25 25 27 26 23 22 26 29
8 9 23 19 18 14 12 12 11 11 9 10 9 7 7 10 10 11 13 14 14 14 14 15 17 18 17 16 15 15 16 16 17 19 24 29 32 35 38 35 36 39 37 33
18 12 16 16 11 10 13 13 9 10 11 11 10 9 9 11 13 15 15 16 15 16 17 18 19 20 17 16 17 19 19 19 21 22 23 25 28 30 31 33 34 34 31 27
20 17 18 15 12 13 13 10 12 12 11 12 12 13 13 16 17 16 16 16 17 18 19 19 20 21 18 17 18 20 22 21 20 20 20 21 23 25 27 26 26 25 23 23
8 16 16 17 15 11 11 11 13 14 14 16 17 18 18 19 19 19 18 16 16 20 18 18 18 17 14 14 15 16 17 17 17 17 16 15 17 19 19 20 19 20 20 18
7 10 11 13 14 14 16 15 15 16 17 19 18 16 16 18 19 18 17 16 16 17 18 18 18 14 15 13 14 15 14 13 12 14 16 16 15 16 16 16 17 17 17 13
10 9 8 10 11 11 13 12 12 13 15 15 14 14 16 16 16 15 14 13 13 13 14 16 14 12 12 11 11 11 10 11 12 13 12 13 13 12 12 12 12 13 12 10
9 10 11 12 11 13 14 16 18 18 18 18 17 18 16 15 12 11 9 8 10 10 14 10 9 8 9 9 9 8 9 10 10 11 12 11 11 11 10 10 10 10 9 8
7 8 9 12 13 15 17 17 17 17 15 13 14 13 12 12 10 9 7 9 11 11 8 7 7 9 10 8 7 8 8 9 10 10 9 10 10 10 10 10 10 10 10 9
13 15 17 17 18 17 17 15 15 17 17 14 12 12 11 9 6 6 7 9 10 9 8 7 8 10 11 9 8 7 7 8 9 9 9 8 7 7 7 6 6 5 5 3
15 17 16 16 17 17 15 14 13 13 11 9 9 8 6 6 6 6 8 9 9 8 8 8 8 9 8 8 8 9 8 8 7 6 5 5 5 4 3 3 2 2 1 2
15 15 14 14 13 13 11 9 9 7 7 6 6 6 6 6 5 5 5 8 9 8 6 6 6 6 6 6 6 7 7 7 8 7 6 4 3 3 1 2 4 4 3 6
15 14 13 12 10 9 9 9 8 8 8 6 4 4 2 6 8 8 8 7 8 10 8 6 6 7 6 6 6 7 6 4 4 4 3 3 3 4 6 6 6 6 7 8
13 11 9 8 7 8 8 7 7 6 7 7 7 6 3 4 3 8 9 7 6 7 7 7 7 9 8 6 6 6 8 8 7 6 6 6 7 8 9 9 9 8 9 9
6 7 9 8 7 6 5 6 5 1 1 3 6 7 6 7 5 6 7 8 8 8 9 8 7 8 7 8 8 8 9 9 8 7 8 9 9 11 11 10 9 10 10 11
6 4 4 2 1 3 5 5 5 3 3 5 5 5 5 4 4 4 4 5 6 8 6 8 12 11 12 11 11 12 11 12 13 12 12 12 12 13 13 12 11 12 12 12

GFSNGP_850_spd_066.txt.gz
Wind_Speed
7 12 12 12 8 12 16 12 6 4 11 5 6 5 11 18 19 22 24 33 32 29 27 24 20 16 12 8 9 5 15 27 31 32 32 33 34 35 35 36 39 42 45 47
3 5 8 7 13 12 13 16 14 13 10 3 10 3 7 9 20 21 25 33 29 25 25 24 23 20 16 12 10 5 5 4 14 26 30 36 38 39 39 40 42 41 44 48
3 7 9 5 3 10 8 7 11 5 4 9 5 6 6 6 18 25 26 25 23 22 23 24 22 20 19 18 14 10 7 7 4 8 12 24 34 34 42 46 46 47 46 45
3 5 3 4 13 11 13 9 8 7 6 12 11 16 6 15 27 24 21 22 20 17 17 18 16 16 19 19 18 17 15 12 11 13 13 15 14 24 38 42 43 50 51 50
3 3 6 10 4 5 4 3 7 8 10 24 17 31 22 20 24 23 20 17 14 13 14 15 15 16 15 15 17 19 21 21 20 18 17 19 21 22 22 31 39 52 52 54
2 2 4 3 6 19 6 2 10 7 18 21 24 8 7 13 18 20 18 15 13 14 14 13 16 17 17 17 17 18 19 21 23 25 25 24 23 24 28 31 33 43 48 51
4 3 6 6 2 9 2 2 6 21 17 13 7 12 20 14 17 17 16 16 13 15 17 19 19 19 20 21 21 21 20 20 21 23 25 25 26 27 27 28 33 35 39 48
3 3 8 14 9 5 5 6 17 20 25 28 29 22 17 15 17 16 16 16 16 16 18 20 22 21 21 22 22 22 23 21 20 20 22 23 25 25 24 26 25 24 30 39
6 4 7 22 17 20 21 19 15 18 21 24 22 18 15 15 14 14 14 14 15 16 17 19 21 22 21 21 21 21 20 21 23 23 24 21 20 19 19 18 16 15 16 20
3 6 9 19 27 28 23 25 22 20 19 16 19 14 15 13 12 12 13 16 16 16 18 20 21 21 21 20 19 19 20 20 21 23 25 24 23 23 19 15 12 8 4 3
2 11 14 15 19 19 16 19 19 17 16 14 13 15 12 14 12 12 12 12 14 16 18 19 19 19 20 20 19 20 20 20 21 21 24 29 29 33 31 25 17 14 14 13
2 7 13 11 11 10 9 13 13 10 10 12 10 9 7 9 9 10 10 10 12 14 15 17 17 18 20 20 19 18 19 20 20 20 21 24 29 32 34 34 34 32 30 29
5 17 22 13 13 7 12 8 5 7 6 7 8 6 7 10 10 9 9 11 13 15 15 15 16 18 19 19 17 17 19 18 18 19 21 23 25 27 30 28 28 29 28 27
13 7 11 6 10 9 7 6 5 8 7 6 5 5 7 10 11 12 13 14 13 14 15 16 16 18 17 15 14 15 16 15 16 18 19 19 21 22 23 22 22 22 21 20
17 11 15 15 12 9 6 3 4 7 6 7 5 5 7 11 13 14 14 13 12 13 14 14 14 15 13 12 12 13 14 14 14 14 14 14 14 15 17 17 17 16 14 15
8 9 8 9 9 6 3 4 6 9 9 10 9 10 12 13 14 13 12 11 9 13 13 12 12 12 10 9 9 9 10 8 8 8 9 9 10 12 13 13 12 12 12 13
6 8 6 7 6 7 7 7 9 12 14 12 11 13 15 16 16 14 13 11 11 11 10 11 11 8 7 7 6 6 7 7 6 7 8 8 8 10 10 10 11 12 13 12
6 8 8 5 6 8 9 11 13 14 13 12 11 12 13 13 13 12 11 9 8 7 6 6 6 5 4 4 4 3 3 4 4 5 6 7 8 8 7 8 8 9 10 10
10 12 11 11 10 12 12 13 14 15 14 13 14 14 12 11 9 7 5 3 3 3 5 5 4 4 4 4 3 2 2 3 3 4 5 5 5 7 7 7 8 8 8 8
10 11 11 13 13 15 18 17 17 17 15 13 12 11 11 10 7 5 4 3 5 5 4 3 3 3 4 4 3 3 2 2 3 4 4 4 5 6 7 7 7 6 7 7
14 14 16 17 18 17 15 13 13 14 13 9 8 8 7 7 6 5 4 3 5 5 2 2 3 5 4 3 2 2 3 3 4 4 4 5 4 4 4 4 4 5 6 6
15 16 16 16 17 18 14 12 11 10 9 7 6 6 4 4 5 4 4 5 4 3 2 3 4 4 3 3 3 3 2 2 3 3 3 2 2 2 2 4 5 5 6 7
15 15 14 13 13 13 10 8 7 5 4 4 4 4 6 6 6 4 2 5 4 2 2 3 4 3 4 4 3 2 3 4 4 3 3 4 4 4 5 5 6 8 8 7
14 13 12 11 10 8 8 8 7 7 7 6 5 6 6 6 5 4 4 4 4 3 2 3 5 4 3 2 2 3 3 4 4 5 5 6 6 6 6 7 8 8 9 10
10 9 9 8 7 6 4 3 3 3 5 6 6 6 6 5 3 4 5 5 5 6 4 5 6 5 5 6 6 6 5 5 6 5 6 7 8 8 9 9 9 8 8 8
5 5 5 3 0 1 2 5 4 4 4 3 5 7 7 6 4 4 5 6 7 7 7 7 7 7 7 5 7 8 8 8 7 7 8 9 10 10 10 9 9 9 9 9
4 3 3 2 2 3 3 5 5 5 6 8 8 5 7 7 7 7 7 7 6 7 8 7 7 7 9 10 11 11 10 11 10 9 10 10 12 14 13 11 10 11 11 12

GFSNGP_850_spd_069.txt.gz
Wind_Speed
6 7 8 11 12 11 8 6 4 3 8 9 10 6 8 15 12 22 26 28 31 30 28 27 24 18 15 12 8 7 6 9 16 17 20 23 26 27 30 32 32 34 37 41
4 4 8 10 11 11 13 11 11 16 12 5 13 13 6 8 12 20 18 25 25 27 25 25 22 20 16 12 9 6 7 4 3 11 18 21 23 25 29 33 37 37 38 39
4 6 10 7 0 6 5 11 6 11 8 8 14 14 15 16 13 15 15 16 18 21 18 18 19 18 18 15 11 7 5 2 2 5 9 12 16 24 26 31 31 36 39 42
3 4 3 5 12 8 5 5 8 9 9 8 7 21 15 23 20 17 14 11 14 17 13 14 14 14 14 12 11 10 8 8 7 6 7 10 13 16 19 25 29 31 37 42
2 3 6 11 3 3 8 8 2 6 6 9 25 30 20 16 19 17 14 13 12 11 10 8 11 12 10 9 9 11 13 13 13 12 12 12 12 12 16 21 25 28 31 36
1 2 3 4 8 4 6 6 3 5 6 17 22 8 4 11 14 14 13 12 10 10 10 10 10 9 7 9 10 12 13 14 16 18 18 17 15 15 16 17 21 24 25 30
6 3 6 5 12 12 3 5 13 10 22 28 7 7 21 15 13 12 9 9 9 9 11 11 10 10 9 10 12 13 13 13 14 15 16 18 19 19 17 16 17 20 22 22
3 4 7 15 11 3 4 17 15 21 23 30 29 27 19 15 14 12 11 9 10 10 13 13 13 12 13 13 13 11 10 11 12 14 14 15 15 15 16 15 14 14 15 17
5 2 5 10 10 13 11 20 10 22 17 30 24 19 13 13 11 13 13 13 12 12 13 14 14 14 14 15 14 12 12 13 15 16 16 17 16 16 14 13 14 15 15 15
1 8 9 12 19 23 21 24 19 16 14 15 21 16 14 11 10 12 13 12 12 12 14 15 16 15 15 14 13 13 15 16 18 20 22 23 24 25 22 20 17 16 18 20
1 9 14 12 13 18 18 20 18 15 14 14 16 14 11 10 10 11 12 12 12 14 15 16 15 15 15 14 13 13 15 16 18 20 23 26 26 28 28 26 22 21 22 22
2 6 9 8 8 10 17 17 14 12 13 12 11 12 9 12 11 12 14 13 14 15 15 16 15 16 16 14 13 14 16 17 18 19 21 22 24 25 25 24 24 25 23 23
3 14 14 13 10 9 13 12 11 9 9 11 11 11 9 12 14 15 15 14 15 16 16 15 16 17 16 15 14 15 17 18 17 18 18 19 20 20 21 20 19 20 20 19
7 2 6 8 9 9 9 10 8 9 9 8 9 8 8 11 13 14 15 15 14 14 15 15 15 16 16 14 13 14 15 15 15 15 15 15 15 15 14 14 14 15 15 15
12 8 11 11 6 8 7 5 6 8 7 6 7 7 8 12 14 15 14 12 11 10 12 11 11 13 11 11 9 10 10 11 10 10 10 10 10 10 10 10 12 13 11 11
5 7 8 6 6 5 5 6 6 6 6 7 8 9 11 12 13 13 11 9 6 10 11 10 10 11 10 9 10 10 10 9 8 7 7 7 8 8 8 9 9 10 10 12
1 3 3 4 3 5 5 5 6 8 8 8 10 10 11 12 12 11 9 8 7 7 8 8 9 9 9 8 8 8 8 6 6 5 6 6 6 7 9 9 10 11 12 12
1 0 1 1 3 4 6 7 7 7 7 7 8 9 9 8 9 8 7 5 5 5 5 7 8 7 7 7 7 7 6 6 5 5 6 6 6 7 8 9 10 10 11 11
3 4 4 3 2 2 5 6 7 7 7 7 8 8 7 6 6 4 3 3 3 3 6 7 8 8 7 6 6 7 6 6 5 5 5 6 6 7 8 9 10 10 10 9
2 2 3 4 6 7 11 12 11 11 11 7 6 6 5 5 4 4 4 5 4 4 6 7 8 8 7 7 6 6 6 5 5 5 5 5 6 6 7 7 8 8 8 9
8 8 10 11 13 13 13 12 10 9 9 7 4 3 3 2 3 4 4 4 3 3 4 6 6 6 6 6 6 7 6 5 5 5 5 5 6 6 6 6 7 7 8 8
14 14 15 14 14 14 12 10 8 7 6 4 3 4 5 5 4 3 3 3 3 3 5 6 7 6 5 5 5 5 5 5 5 5 5 5 5 6 6 6 7 8 8 8
15 14 14 13 12 11 9 7 6 4 3 4 5 5 5 6 6 4 4 3 3 4 5 6 7 7 6 6 6 5 5 6 6 6 6 6 6 6 6 7 7 7 7 8
14 13 12 10 9 7 6 7 6 6 5 5 5 6 7 7 6 4 2 2 4 4 4 5 6 6 5 6 7 7 8 8 8 8 8 8 9 9 9 9 10 10 9 8
10 9 8 7 5 3 2 2 2 2 3 4 6 8 9 7 6 4 4 4 5 6 7 7 6 6 6 6 7 7 6 7 8 8 8 8 9 9 10 10 10 9 9 9
5 4 3 2 1 2 5 5 5 5 4 5 6 7 8 7 6 6 6 6 7 7 8 8 7 6 7 8 8 8 8 9 9 8 8 8 8 9 9 9 10 10 10 10
3 2 1 1 3 4 3 6 6 7 8 9 8 6 6 7 7 7 8 8 7 8 8 9 10 10 10 10 12 13 12 11 11 11 11 11 12 12 11 10 11 12 13 14

GFSNGP_850_spd_072.txt.gz
Wind_Speed
3 3 1 4 8 11 8 9 4 3 5 6 10 4 4 16 17 20 21 24 28 29 27 26 23 19 15 10 6 4 13 16 15 16 13 13 13 14 17 20 22 24 26 29
3 2 6 5 10 9 11 12 10 13 12 9 10 15 8 11 17 13 18 17 21 24 25 24 20 17 15 11 7 9 9 8 9 10 14 15 16 19 19 20 19 22 27 31
2 4 7 6 4 5 5 5 6 6 2 8 11 14 18 20 11 15 13 14 17 20 22 18 19 18 15 13 10 8 6 6 7 6 7 9 13 16 18 21 24 27 28 31
2 3 1 5 10 4 1 4 10 7 3 7 11 9 17 18 18 14 11 12 14 15 17 14 15 13 12 10 10 9 9 7 6 3 2 7 11 13 15 17 20 22 26 28
2 2 5 8 3 4 3 9 3 3 5 15 22 17 12 14 17 18 14 12 12 11 11 11 11 13 11 10 10 9 10 10 10 8 6 4 3 5 8 11 15 18 21 24
1 2 4 5 4 14 5 5 7 6 5 14 13 5 3 8 12 14 12 12 10 9 9 7 12 9 8 10 10 10 13 13 12 9 8 8 9 9 7 7 8 9 11 15
4 3 6 4 9 9 1 4 9 14 12 23 3 8 19 14 15 10 7 7 8 7 7 9 9 9 10 11 12 14 13 14 13 13 12 12 10 8 8 8 8 9 9 10
3 4 7 13 7 0 1 8 16 24 17 28 29 26 20 15 14 9 7 6 8 8 10 10 10 10 11 11 12 11 12 13 14 14 14 14 13 12 12 11 9 10 10 12
5 2 5 9 6 10 11 11 13 22 20 18 25 24 19 15 13 10 8 8 8 9 10 11 11 10 10 12 10 10 10 12 15 16 17 18 17 16 17 18 18 18 17 17
1 5 8 12 12 13 17 21 17 19 20 21 20 21 19 14 11 8 7 8 9 10 13 14 13 12 13 12 11 11 12 14 14 16 18 19 20 21 21 23 23 23 24 25
2 5 13 16 13 13 16 19 19 20 18 19 16 17 14 13 11 8 8 9 10 11 13 15 14 14 13 13 12 13 14 16 17 18 19 20 23 24 25 25 23 24 25 24
2 7 7 10 11 12 17 18 16 18 18 16 13 15 11 12 11 11 12 11 13 14 15 17 17 16 15 14 12 13 15 16 16 16 17 17 18 18 19 18 17 19 20 20
3 16 19 16 16 15 17 16 15 16 15 15 13 11 10 13 13 15 15 14 14 15 16 16 16 17 17 15 13 13 14 14 13 12 12 12 12 12 13 13 12 13 13 13
5 3 11 11 10 14 14 14 12 13 14 14 13 12 12 15 14 15 15 15 13 14 14 14 14 15 15 14 11 12 12 11 10 9 9 8 8 8 8 8 9 11 11 11
16 15 16 12 11 12 10 8 8 10 10 11 10 12 12 17 17 16 15 13 11 11 11 10 11 12 12 11 10 9 8 7 7 6 6 6 6 6 7 8 9 10 8 8
5 8 8 8 9 8 7 8 9 11 11 11 12 14 14 14 15 14 12 11 8 10 10 10 10 10 9 9 8 7 6 6 5 4 5 5 5 6 7 8 8 8 8 10
1 4 5 6 6 7 8 8 9 11 12 12 14 15 14 13 14 13 11 10 9 8 7 7 8 7 6 5 5 5 5 4 4 4 3 5 5 6 7 8 9 10 11 11
5 3 2 2 4 6 8 8 9 9 11 12 13 13 12 10 11 10 8 8 7 5 5 7 7 7 6 5 5 4 4 4 3 4 5 6 7 7 8 9 10 11 12 11
5 5 5 4 4 4 7 9 10 11 12 11 10 10 9 8 7 6 6 4 2 2 5 7 7 6 6 5 5 5 5 5 5 5 5 6 6 7 8 9 9 10 10 9
5 6 6 7 10 12 14 14 13 14 13 10 9 8 7 6 6 5 4 3 5 6 8 7 7 7 7 7 6 6 5 5 4 4 4 5 5 6 7 8 8 9 8 8
9 11 13 14 16 16 15 14 11 11 11 9 7 6 6 7 6 6 5 5 6 6 6 7 8 8 8 7 6 6 5 5 5 4 4 5 5 6 7 7 7 8 9 9
12 13 14 13 13 14 13 11 9 9 8 7 8 8 9 8 8 7 7 6 6 6 7 8 8 8 7 6 6 5 5 5 5 5 5 6 6 7 7 7 8 8 9 9
13 13 13 11 10 9 8 6 6 6 6 7 8 8 8 8 8 7 7 6 6 7 7 8 7 7 5 5 5 5 5 6 6 6 6 6 6 7 7 8 9 9 9 9
12 11 9 8 7 6 5 5 5 5 6 6 7 10 10 8 8 6 5 5 5 5 6 6 6 7 6 6 7 8 8 8 8 8 8 9 9 9 10 11 11 11 11 11
10 9 8 6 4 3 2 2 2 3 4 5 7 9 9 8 6 5 5 4 4 6 7 6 7 6 6 6 7 7 7 8 8 9 9 10 10 10 10 11 11 11 10 11
5 3 1 0 1 3 5 6 5 6 6 6 6 7 7 6 5 4 5 5 5 5 8 8 7 7 7 7 7 9 9 9 8 8 8 9 9 10 12 12 12 12 12 12
3 2 1 2 4 4 4 6 9 8 8 8 9 8 6 5 5 6 7 7 7 8 10 10 10 9 9 10 10 12 12 10 10 10 12 12 11 11 11 11 12 13 13 14

GFSNGP_850_spd_075.txt.gz
Wind_Speed
6 4 4 2 6 8 8 9 5 5 6 9 6 8 5 7 12 18 18 21 24 25 25 23 22 20 19 18 13 12 12 10 10 10 10 9 8 9 9 10 11 12 14 16
3 6 1 4 9 5 6 9 13 15 16 9 14 12 17 9 12 14 16 18 20 22 23 22 19 18 18 18 18 12 10 9 7 7 9 12 12 12 12 12 13 15 17 20
1 3 7 4 5 6 5 6 9 9 7 2 6 13 19 22 18 13 15 16 20 22 22 20 19 16 15 15 13 10 6 0 4 5 6 8 10 12 13 15 16 17 19 20
1 2 3 2 8 3 3 4 9 11 4 9 13 18 21 15 16 15 16 15 17 18 17 16 15 16 14 15 13 8 5 6 4 4 5 6 7 9 9 10 13 15 17 19
1 2 6 3 4 4 3 5 10 8 5 9 16 16 15 15 14 16 20 18 17 15 14 13 14 13 12 11 10 11 10 8 6 5 4 3 3 3 5 7 10 12 14 16
1 2 4 0 2 10 4 6 11 13 10 9 12 5 3 14 15 17 17 14 14 13 12 11 10 10 10 11 10 13 12 11 9 9 7 6 5 4 5 3 3 2 2 4
6 4 6 5 13 6 4 3 13 15 17 13 5 10 21 19 19 18 16 13 12 11 12 12 10 8 9 11 14 14 12 11 11 10 10 9 9 9 8 8 8 7 8 8
5 5 6 12 4 2 6 6 9 14 20 22 21 25 25 20 18 18 16 13 13 13 14 13 11 10 12 14 13 12 14 14 15 15 15 13 12 11 10 10 9 11 12 12
4 1 6 9 8 7 11 9 9 11 13 21 20 21 22 20 19 18 16 14 14 13 14 14 14 13 14 15 13 12 14 18 18 18 20 19 19 19 18 17 18 19 19 21
4 5 10 11 12 11 11 15 13 13 17 20 23 19 20 18 17 17 14 14 13 13 14 16 15 15 17 14 14 14 16 19 21 22 23 23 23 23 23 24 24 23 23 23
0 8 13 19 16 12 15 17 18 16 16 17 16 16 15 16 15 14 13 12 12 14 15 16 15 15 15 14 13 14 17 19 20 21 21 22 22 22 22 22 19 20 20 18
2 6 11 9 10 11 16 16 15 16 17 15 14 16 13 15 14 14 14 14 15 16 17 18 16 16 15 14 13 13 15 17 18 18 18 17 17 17 17 16 14 14 14 14
4 15 20 16 14 13 16 15 14 15 13 13 13 12 13 16 16 16 16 16 16 16 16 15 16 16 17 15 12 12 12 14 14 13 13 12 12 11 11 11 10 9 8 8
9 15 12 3 9 12 13 13 11 12 12 12 12 11 13 15 15 15 16 15 14 13 13 13 12 13 14 13 11 11 11 11 11 10 9 9 8 8 7 6 6 6 6 6
18 14 16 14 11 11 9 8 10 12 11 11 11 12 13 15 16 15 14 12 11 10 11 10 10 12 11 10 8 8 7 8 8 8 7 6 6 5 4 4 4 4 5 4
8 11 11 12 10 9 9 9 11 12 11 11 12 13 14 14 15 13 11 10 8 9 10 9 8 9 8 7 7 7 7 8 7 6 5 4 4 3 3 4 4 4 4 6
4 6 6 8 9 9 10 10 11 12 13 14 15 15 15 14 14 13 11 9 8 7 7 5 6 6 5 5 4 5 6 5 5 4 3 3 4 4 4 5 5 5 6 7
6 6 5 6 8 10 11 11 12 13 15 15 15 14 14 12 12 10 8 7 6 5 4 5 5 5 4 4 4 5 5 4 3 3 4 4 3 4 4 4 5 5 6 6
6 7 7 7 7 10 13 13 14 16 16 14 13 12 11 9 8 7 6 4 3 3 5 5 5 5 5 5 5 4 4 3 3 3 2 3 3 3 3 3 4 4 4 4
8 8 9 11 13 14 16 16 16 16 15 11 10 10 8 7 6 5 5 2 4 5 5 5 6 6 6 5 4 4 3 2 2 2 2 2 2 2 2 2 3 3 3 4
12 14 16 18 19 19 17 15 13 14 13 10 7 7 6 6 6 5 4 3 4 4 5 5 5 4 4 3 3 2 2 1 1 1 1 1 2 2 2 3 4 5 5 5
16 17 17 16 16 17 15 13 11 10 10 8 7 7 6 5 4 4 3 3 3 3 4 5 4 4 3 3 3 2 2 1 1 2 2 2 3 4 4 5 6 6 7 7
16 16 15 14 12 12 11 9 9 8 8 8 9 9 7 7 5 5 3 4 4 4 5 5 5 5 4 4 3 3 3 3 3 3 3 4 5 5 6 7 7 7 7 8
13 12 11 11 10 9 7 7 6 6 6 6 7 9 9 7 6 5 5 5 4 5 6 6 6 6 5 5 5 5 5 5 5 5 6 7 7 7 8 8 9 9 9 9
10 9 9 7 6 5 4 3 2 3 3 5 6 8 9 8 6 4 4 4 5 5 6 7 6 6 6 6 6 7 7 7 7 7 7 7 8 8 9 10 11 11 11 11
5 3 2 2 3 3 4 4 4 4 5 6 6 8 7 6 5 4 5 5 5 5 6 6 6 6 7 7 8 8 10 10 9 9 9 10 10 11 12 12 12 12 12 12
2 1 0 2 4 5 5 5 6 7 7 7 8 8 6 5 4 3 4 5 5 6 6 8 9 9 9 9 10 10 11 11 10 10 11 12 12 12 12 13 13 14 14 14

GFSNGP_850_spd_081.txt.gz
Wind_Speed
20 25 7 1 15 16 16 11 7 11 13 12 8 8 7 10 10 12 13 14 16 16 14 13 15 20 23 24 23 24 24 22 21 20 18 16 15 16 15 13 11 11 9 12
19 22 12 8 14 12 8 9 10 10 10 10 15 10 9 10 10 13 12 14 14 15 13 12 15 15 19 21 22 21 23 23 21 20 19 18 18 18 17 16 16 13 14 17
11 18 8 4 17 17 8 5 6 7 13 17 15 11 13 13 12 12 11 12 15 15 14 14 13 16 18 20 19 19 20 19 18 18 17 15 16 15 16 16 18 19 19 20
12 15 11 7 4 0 3 1 8 9 12 8 12 16 18 14 13 12 11 12 14 12 12 14 16 18 17 18 18 19 19 17 16 15 15 13 11 12 10 10 11 11 12 13
6 10 7 12 6 3 5 6 11 9 11 6 11 12 13 9 9 10 11 12 11 15 12 14 15 15 18 19 18 17 20 18 15 14 12 10 10 9 6 5 7 6 5 4
9 3 5 9 8 4 7 4 11 13 12 15 8 5 4 8 10 11 10 11 12 12 14 13 16 16 18 20 19 20 19 17 13 17 16 13 11 10 8 6 6 4 1 2
7 3 8 13 9 8 7 5 13 12 13 15 5 5 15 13 12 10 10 11 11 13 13 15 15 14 17 17 19 19 18 16 17 16 14 14 12 10 11 10 9 7 7 9
5 3 3 23 5 6 7 5 10 11 10 12 14 14 16 15 15 13 12 12 10 15 17 16 14 13 15 16 15 14 13 13 14 15 15 16 15 14 13 13 14 14 14 17
6 4 12 16 12 10 10 10 11 9 10 11 12 13 13 13 13 15 13 12 11 13 16 17 16 15 17 16 15 15 15 15 14 14 14 15 17 17 17 15 15 15 14 15
3 7 10 13 11 11 11 12 11 11 11 10 13 12 13 11 11 13 15 13 12 14 16 18 18 18 17 16 15 17 19 19 18 19 18 17 17 18 19 17 15 15 13 12
4 5 5 12 11 9 11 13 14 14 12 11 12 13 11 11 12 14 14 15 14 15 16 17 16 18 16 15 14 16 17 17 18 20 21 20 20 20 19 16 14 13 12 11
3 7 6 8 8 7 11 12 12 13 13 11 9 10 10 11 10 11 12 13 14 15 15 15 15 15 16 16 13 13 14 13 14 13 13 14 16 17 17 15 11 10 10 9
3 8 12 10 11 9 11 12 11 13 12 12 11 11 11 12 12 13 14 14 15 16 15 15 15 16 16 14 12 13 14 12 12 12 11 10 8 9 10 11 9 8 8 7
6 6 8 7 6 8 9 11 12 12 11 11 10 10 11 11 11 11 12 12 12 12 13 13 13 13 13 12 11 12 11 10 10 10 9 9 8 8 8 6 5 6 9 8
8 7 10 8 7 7 6 6 8 9 9 9 9 9 9 10 12 12 11 11 10 10 10 10 9 10 11 10 8 8 8 9 8 7 8 8 7 7 6 6 6 6 8 10
5 7 6 5 5 5 5 6 6 7 7 8 9 9 9 10 10 9 8 9 7 9 8 8 7 7 7 9 9 8 6 6 7 6 6 6 6 6 5 5 5 3 3 3
1 1 2 2 3 4 5 6 6 7 8 9 9 10 10 9 9 9 8 8 7 7 6 5 6 5 5 6 9 6 6 6 8 5 5 5 5 5 5 5 5 5 4 4
3 3 3 3 3 4 6 7 8 8 9 8 9 10 10 8 7 7 6 7 7 6 5 5 5 4 4 4 7 6 5 5 5 5 4 4 5 5 5 5 5 4 4 5
5 5 6 6 5 6 7 7 8 9 9 8 7 7 6 5 5 5 5 6 7 6 6 5 5 5 5 4 6 5 5 4 4 4 4 6 5 4 4 4 4 4 4 4
6 7 7 8 8 8 9 9 8 9 8 7 6 4 4 3 3 4 5 5 4 4 5 5 6 6 5 4 6 4 4 4 3 2 2 3 3 3 5 4 3 3 3 4
9 9 9 10 10 10 10 9 8 7 6 4 3 2 2 2 2 2 6 4 6 4 5 6 4 3 4 3 6 4 4 3 3 2 2 2 3 2 2 2 2 2 3 3
10 11 12 11 11 10 9 8 6 5 4 3 3 3 5 5 5 5 2 0 6 4 4 5 6 5 4 3 4 4 3 3 2 2 3 2 2 2 3 3 3 4 5 5
11 11 10 10 8 7 6 5 4 3 3 3 4 4 2 1 2 3 4 9 3 5 4 7 7 6 4 4 4 4 4 3 3 3 3 3 3 4 4 5 6 5 6 6
10 8 8 7 6 5 3 2 2 0 1 2 2 3 2 3 5 4 5 7 6 5 5 7 6 5 4 3 4 4 3 4 4 4 4 7 5 6 5 6 7 6 7 9
8 7 6 5 3 1 1 2 1 2 2 2 4 5 4 4 2 5 3 6 6 3 5 11 8 6 3 4 5 5 5 5 7 6 6 6 7 7 7 8 9 9 9 9
6 3 2 3 2 1 2 4 4 5 5 6 7 7 6 5 4 3 5 5 5 7 4 10 9 9 6 7 8 8 8 7 8 9 9 9 8 9 10 10 10 10 9 10
4 4 1 0 1 2 3 4 5 6 6 7 7 7 7 6 7 6 7 6 6 7 8 8 10 10 9 9 9 9 9 9 11 10 9 10 10 11 12 11 11 11 12 12

GFSNGP_850_spd_084.txt.gz
Wind_Speed
21 24 16 16 22 10 17 15 8 9 9 14 11 7 15 12 11 12 14 17 17 15 14 13 12 12 15 18 24 21 23 22 22 21 20 19 18 17 16 15 13 13 14 14
20 20 19 25 20 6 9 10 7 19 3 14 18 16 15 12 11 12 15 15 16 15 12 14 13 12 12 14 17 22 22 21 20 19 17 16 17 17 16 15 14 14 14 14
14 14 14 12 18 10 11 19 10 3 8 12 12 14 16 13 12 12 13 14 19 16 14 13 13 11 12 14 16 20 23 21 20 20 20 21 21 19 19 18 15 13 13 14
7 9 7 12 12 13 6 17 12 10 14 11 12 13 15 13 11 12 11 14 16 15 17 15 13 12 11 12 15 20 22 21 19 19 18 17 18 19 18 18 19 17 15 14
4 5 15 17 7 8 6 9 16 16 16 13 11 9 12 10 9 11 12 13 14 15 15 18 19 15 14 17 17 18 19 19 18 18 17 15 16 17 17 15 15 12 11 9
3 2 4 7 17 5 3 6 14 15 12 12 5 3 3 6 8 9 9 10 14 15 15 15 16 16 17 18 17 20 20 21 19 16 18 20 18 16 16 14 15 11 6 7
9 6 3 17 18 8 1 5 14 13 11 14 5 6 9 8 10 11 13 12 14 16 18 16 14 14 17 19 19 14 17 19 21 16 17 14 17 15 15 15 13 14 14 16
7 6 5 29 13 7 6 15 12 13 12 15 15 13 13 13 13 13 15 15 16 19 19 16 15 14 17 19 14 16 17 16 15 18 19 21 16 18 17 17 17 18 18 21
6 3 8 17 15 12 12 13 13 13 12 11 14 14 12 12 14 16 15 14 15 18 18 19 17 17 17 15 15 16 18 19 18 16 17 16 16 19 19 18 18 18 17 19
3 8 12 16 15 15 15 15 13 12 12 11 14 13 13 12 13 14 15 15 14 16 17 20 18 16 16 13 13 13 14 14 13 13 15 16 16 17 17 18 16 17 16 16
4 5 7 16 15 12 13 13 14 13 13 12 14 14 13 13 14 13 14 15 14 14 13 14 15 17 15 10 10 15 18 21 22 21 20 18 19 19 18 17 14 14 14 14
3 10 5 9 10 11 14 14 12 12 14 13 12 13 12 13 11 11 12 12 13 14 14 14 13 13 14 15 12 11 15 17 16 16 17 19 19 19 19 16 14 14 13 12
4 9 12 10 12 13 12 10 11 12 12 12 12 12 14 15 14 14 13 13 14 15 14 15 16 16 13 11 10 13 14 13 12 12 12 12 11 13 13 13 11 10 9 8
5 6 9 11 7 8 9 11 11 12 12 12 12 12 13 13 12 13 13 12 11 11 12 12 12 13 13 11 12 11 10 11 11 11 11 10 10 10 11 7 7 9 9 8
10 9 11 9 7 5 7 7 8 10 10 11 11 12 11 12 13 14 13 10 8 9 10 10 11 12 13 13 9 8 10 11 10 10 10 10 9 8 8 7 6 8 9 10
7 8 7 7 6 8 7 7 9 10 9 9 10 10 9 8 8 7 7 6 7 9 9 9 9 8 10 12 12 10 10 12 9 8 7 7 8 7 7 5 2 3 3 5
3 4 4 5 7 9 10 10 10 10 9 10 10 10 7 7 8 9 9 8 7 7 7 6 8 7 6 8 11 7 8 9 8 6 7 7 7 7 7 5 5 6 7 7
6 5 8 9 9 9 9 9 8 7 5 4 5 6 5 3 7 7 8 8 8 6 6 6 6 7 6 5 9 6 4 5 4 3 3 7 6 5 5 5 5 4 5 4
8 9 9 10 8 8 6 4 4 7 7 7 7 6 5 5 6 6 6 7 4 6 6 6 7 6 5 6 8 3 3 4 5 4 8 6 3 4 5 3 2 1 1 2
7 7 7 9 7 6 9 9 8 9 9 7 6 6 5 5 6 7 7 7 5 5 5 3 4 5 3 5 7 2 2 3 2 4 5 4 1 5 3 2 2 1 2 4
7 7 9 9 10 10 10 9 8 8 7 6 5 6 6 6 5 5 7 6 11 6 8 9 5 3 4 5 4 2 1 2 2 2 2 1 1 1 2 3 2 3 4 4
9 11 12 12 11 10 9 8 6 6 5 5 5 6 9 10 10 9 6 3 11 6 3 10 8 4 2 1 2 1 1 2 2 2 2 3 4 3 4 5 3 5 5 5
11 11 11 9 7 8 6 5 4 3 3 4 5 5 5 5 5 1 2 5 6 6 5 10 9 5 0 3 3 2 3 3 2 2 3 5 4 6 7 8 9 8 6 9
11 8 7 8 7 9 6 5 5 5 5 7 6 6 4 1 4 10 12 10 8 8 7 9 12 9 3 3 5 5 2 3 3 4 5 6 4 7 5 7 9 6 8 9
7 8 7 8 2 2 2 3 3 5 9 2 8 10 9 7 5 7 10 11 12 8 6 11 14 10 6 5 7 7 7 5 9 11 9 7 7 8 8 8 10 11 12 12
6 3 2 3 3 1 2 4 4 5 5 6 9 11 11 13 11 9 10 11 12 10 9 10 14 16 14 6 8 11 10 9 8 9 12 10 10 8 9 12 12 13 13 11
3 3 1 1 1 2 6 6 5 5 4 6 7 9 10 10 11 11 11 10 9 10 12 12 12 14 15 14 12 10 9 11 12 13 13 15 14 12 12 13 13 14 16 17

GFSNGP_850_spd_087.txt.gz
Wind_Speed
13 18 19 17 21 17 14 16 5 9 11 9 13 14 12 13 10 16 18 20 19 20 18 15 12 12 8 11 14 17 19 21 21 20 19 20 20 19 18 17 16 15 15 11
11 17 18 21 19 16 14 15 8 2 7 12 18 18 17 13 12 15 16 16 17 18 17 15 13 12 10 11 15 18 22 21 21 20 21 20 20 20 20 19 17 16 17 17
8 13 12 10 13 16 10 7 1 0 5 4 9 13 15 12 12 14 14 15 17 18 17 16 14 12 12 12 12 17 20 21 20 21 19 19 21 25 25 23 20 19 18 18
6 10 5 3 14 9 18 11 12 14 11 8 13 16 17 14 12 14 14 14 14 15 15 17 16 13 10 11 12 14 19 18 17 19 19 20 20 19 21 23 22 21 21 21
3 3 8 5 9 8 0 9 16 12 11 9 15 15 18 13 11 12 12 14 14 13 14 14 18 19 17 16 14 14 15 16 17 17 18 19 22 23 21 21 21 20 18 18
2 3 4 10 17 32 20 6 13 12 9 7 8 0 3 8 10 11 11 11 13 13 14 13 15 16 22 22 19 21 20 18 18 17 17 19 18 19 17 15 18 18 18 15
6 2 3 9 27 34 3 4 13 12 12 16 6 8 10 12 13 15 14 14 13 14 17 17 16 14 19 19 21 19 16 16 18 17 17 19 15 17 14 16 18 19 18 17
4 4 1 27 10 7 6 14 13 14 12 18 19 17 15 15 15 14 15 14 15 17 17 16 15 16 21 22 16 15 14 15 15 15 18 17 16 17 18 15 15 20 21 23
5 3 7 12 13 15 14 14 12 13 11 14 17 16 15 16 16 16 14 13 16 18 18 19 18 18 18 15 13 11 10 12 13 13 15 15 15 18 18 18 16 17 16 24
4 5 11 15 16 17 16 15 12 12 11 13 17 15 14 13 13 13 13 13 10 12 15 17 17 20 19 17 15 10 10 12 11 11 13 14 14 16 18 18 18 18 17 22
5 9 11 14 14 11 13 14 16 14 13 15 16 14 13 13 11 11 10 9 8 9 11 14 13 15 17 14 14 19 20 19 17 15 13 15 16 17 17 17 15 15 18 18
3 7 9 7 8 8 15 16 14 14 15 14 12 12 10 12 10 9 9 8 9 11 10 10 11 14 14 12 11 14 15 16 18 18 17 17 15 19 20 17 15 16 16 13
4 11 14 11 11 12 15 16 14 13 13 14 13 13 13 13 12 11 11 11 12 13 13 12 11 12 12 10 9 9 10 11 11 10 10 11 13 14 16 16 14 13 12 12
5 9 11 8 6 10 15 16 18 19 16 14 13 12 12 12 12 11 10 9 9 10 10 11 11 13 13 11 7 8 9 9 8 8 8 8 9 9 10 10 12 14 14 11
11 12 13 9 7 7 11 12 12 12 9 11 10 9 8 10 11 11 7 6 7 8 9 9 9 11 11 12 9 7 9 11 10 9 9 9 8 6 6 6 7 9 10 8
8 9 10 11 12 13 14 12 11 11 9 9 7 6 5 5 5 5 3 4 5 8 8 8 8 10 8 8 11 8 7 8 6 6 6 6 6 4 4 5 4 4 4 5
9 9 8 10 8 7 9 10 9 8 8 8 9 6 6 7 8 8 7 7 7 6 6 6 7 8 7 6 6 5 5 4 4 3 4 3 3 2 3 3 4 6 6 4
9 8 8 8 7 6 6 5 5 4 4 6 6 4 3 4 7 7 7 6 6 5 4 5 6 6 5 4 3 3 2 2 1 2 4 4 5 4 1 2 3 3 5 4
6 8 8 8 5 2 2 3 4 6 7 7 5 4 4 5 6 5 5 5 9 6 3 3 3 5 4 4 1 1 2 1 2 4 6 3 1 2 3 4 2 1 2 2
7 6 6 7 4 4 8 9 9 9 9 7 6 6 6 5 5 5 4 4 8 5 3 2 3 2 5 5 3 2 3 4 3 4 5 3 2 3 5 4 3 3 3 3
5 5 9 8 9 10 11 11 9 8 7 7 7 8 9 8 6 4 4 4 7 5 7 4 4 2 6 7 5 4 6 6 5 4 4 4 4 3 4 4 4 5 5 7
11 13 14 12 11 11 10 8 7 6 6 6 5 5 5 6 4 3 3 6 6 6 7 8 7 2 7 7 5 6 6 7 7 7 7 7 7 7 7 7 7 8 8 8
13 12 12 11 10 8 7 5 5 5 4 4 4 3 2 3 4 6 6 8 10 11 8 8 7 2 5 6 3 4 3 4 6 8 8 8 10 10 11 11 11 11 13 11
12 11 11 10 8 8 8 6 6 8 10 6 8 11 6 4 5 9 9 10 11 8 5 5 9 6 2 2 4 4 4 5 5 5 7 6 4 6 6 7 8 6 9 11
10 11 10 8 4 2 5 9 8 8 7 9 11 12 11 12 13 12 12 11 9 11 10 7 9 9 10 6 5 7 7 6 7 8 6 6 9 9 8 8 10 12 12 12
10 7 4 2 7 5 1 1 2 3 3 4 6 10 14 13 13 14 11 12 12 10 9 12 11 12 12 12 10 11 12 7 8 9 10 11 10 8 8 10 11 13 14 13
8 6 4 2 4 6 5 9 11 10 10 7 7 5 9 9 11 13 12 11 9 10 13 13 13 14 16 14 11 14 10 7 9 11 12 13 13 12 9 13 13 14 15 16

GFSNGP_850_spd_090.txt.gz
Wind_Speed
6 11 14 16 15 15 13 13 8 10 16 8 7 10 10 11 11 16 21 25 27 26 26 24 23 20 14 11 10 18 23 31 31 28 24 22 19 17 16 17 16 15 15 16
14 12 14 16 16 17 15 15 15 17 11 4 15 15 14 12 13 16 18 21 23 24 24 25 24 22 18 13 10 15 21 19 25 25 23 22 20 20 18 17 16 16 16 16
8 6 12 11 9 15 13 7 9 10 3 8 7 12 16 13 14 15 16 17 21 22 23 21 20 20 20 16 9 10 16 19 22 24 23 25 26 27 21 20 19 18 17 17
4 7 4 1 16 10 11 8 3 10 5 9 13 16 13 13 12 14 16 16 17 18 20 18 17 17 15 15 12 10 10 13 17 20 21 23 24 24 24 23 23 21 18 18
2 3 11 8 7 5 2 6 7 8 3 11 16 13 15 11 11 11 12 14 17 16 17 17 17 16 17 17 16 14 15 14 12 8 11 17 22 22 22 24 23 21 20 18
2 3 3 3 12 14 3 3 7 5 4 0 13 1 2 7 9 11 12 12 14 17 18 17 17 14 16 20 21 22 20 18 17 15 13 14 12 14 17 18 21 19 20 17
5 4 3 12 20 17 3 3 8 10 14 10 5 7 9 9 13 13 13 13 13 16 18 19 18 14 15 17 19 17 16 16 17 19 18 19 18 15 14 15 15 17 18 17
4 1 2 24 7 6 4 11 11 15 13 17 18 16 15 14 13 12 13 14 14 15 16 16 15 16 17 17 13 12 11 12 15 15 15 15 18 18 17 17 14 16 15 15
5 3 5 11 11 12 12 13 12 14 10 13 17 16 15 16 14 14 11 13 12 14 14 15 17 18 14 13 11 10 10 14 14 13 14 13 15 17 15 16 19 22 22 23
2 4 9 15 13 14 13 14 14 13 14 15 18 14 14 13 12 11 11 11 10 11 14 15 15 16 19 17 10 8 9 12 13 13 13 13 14 15 15 18 19 19 21 22
3 6 8 13 13 10 12 14 15 15 15 14 13 12 11 12 11 10 9 9 7 9 12 13 11 11 12 12 14 16 14 13 13 13 14 15 15 15 15 16 14 14 16 17
1 7 7 6 6 10 12 13 12 14 14 12 11 12 9 11 10 10 11 10 10 10 10 11 10 9 10 9 9 9 13 15 16 14 14 14 13 15 15 15 14 14 13 11
2 9 12 10 10 11 13 13 12 13 12 15 14 12 9 11 11 11 12 12 13 13 11 10 9 8 9 8 6 6 8 8 8 10 12 12 13 12 13 14 13 13 13 12
2 9 7 2 7 12 13 11 10 12 12 13 11 9 9 9 9 9 10 10 9 9 9 9 8 9 9 8 6 6 5 5 4 5 6 7 8 9 10 11 11 11 13 11
6 6 12 11 11 13 9 7 8 10 10 9 8 6 6 6 8 9 9 8 7 6 6 6 6 8 10 7 6 7 6 5 5 4 4 4 5 6 6 6 6 7 7 6
9 11 14 15 13 15 8 5 5 8 7 6 4 3 4 3 4 5 7 7 5 5 5 4 3 5 4 5 4 3 3 4 4 3 3 3 4 3 3 2 3 3 4 5
12 12 13 11 10 10 7 6 5 6 7 6 6 5 5 5 6 6 6 7 6 4 3 2 3 3 0 2 3 3 3 3 2 1 0 1 1 1 1 2 3 4 4 2
11 9 9 7 8 8 8 7 6 5 5 5 4 4 4 4 3 4 5 6 6 3 2 1 2 3 3 3 3 4 4 2 3 3 2 2 2 2 1 1 2 2 2 1
7 8 10 8 6 5 5 6 5 6 7 5 3 3 3 2 2 2 4 6 7 5 3 2 0 3 5 5 4 4 6 4 1 2 4 3 3 4 3 2 2 1 1 2
8 8 7 7 6 5 9 10 9 8 8 6 4 4 3 2 2 2 3 3 7 7 6 6 5 4 7 7 5 5 5 6 5 5 6 6 5 5 6 5 5 5 4 4
8 8 8 9 12 13 12 12 9 8 7 6 5 5 4 3 1 1 2 5 8 10 6 7 8 7 7 8 7 7 7 7 7 6 6 6 6 6 6 6 7 7 8 8
11 12 13 13 12 12 11 9 7 5 5 4 3 2 1 1 3 6 6 7 9 10 11 11 10 8 8 9 10 10 9 8 8 7 7 6 7 8 8 8 8 8 9 9
15 15 14 13 11 9 8 7 5 5 3 2 2 2 2 3 5 7 7 9 10 11 10 9 8 7 8 9 11 11 9 9 9 10 10 11 11 11 11 11 12 12 12 13
16 14 13 12 10 8 7 5 5 5 6 4 5 5 4 6 8 9 9 9 8 8 7 6 6 5 3 6 8 6 7 9 10 10 10 10 11 11 11 11 11 11 10 10
13 13 10 8 6 5 5 4 2 2 2 3 4 5 5 7 8 9 10 9 8 8 7 7 7 6 7 8 8 8 7 9 8 8 10 8 9 13 14 13 12 12 11 10
12 10 5 4 2 1 2 4 7 6 6 9 9 8 9 9 9 10 10 9 8 7 7 9 9 9 9 10 10 8 10 9 10 10 8 8 8 7 10 13 14 14 14 13
9 7 6 6 5 5 5 7 10 10 10 11 10 8 11 11 11 10 10 9 10 10 12 11 11 12 11 11 11 10 11 11 10 10 12 13 13 13 14 12 11 13 15 15

GFSNGP_850_spd_093.txt.gz
Wind_Speed
5 5 5 9 13 14 14 13 11 13 16 11 3 5 9 12 14 16 19 21 24 28 28 27 25 23 22 19 7 3 9 16 19 33 31 28 24 20 19 16 14 13 12 13
6 5 8 13 16 16 17 17 15 17 20 6 5 5 10 11 14 17 17 20 23 24 26 27 25 23 21 20 17 7 9 19 20 21 28 28 24 23 20 18 17 15 14 14
5 2 8 11 8 11 16 16 10 13 7 10 5 10 11 10 12 15 16 18 21 23 24 24 23 21 21 20 17 13 12 8 15 19 23 27 27 24 22 18 17 15 14 14
3 3 4 2 7 9 5 7 5 2 8 9 13 13 10 12 11 14 14 19 20 20 21 22 22 21 17 17 18 17 17 17 14 7 16 22 23 24 22 20 17 15 14 14
2 3 8 7 5 6 5 3 7 5 9 13 15 9 13 11 12 12 11 13 18 19 19 19 21 21 20 20 20 20 21 21 18 14 12 7 15 20 21 20 19 17 16 16
4 3 4 1 13 14 5 1 9 8 7 3 7 1 2 9 11 12 12 13 16 15 19 19 19 18 19 22 23 26 23 21 18 17 14 14 12 8 9 13 17 16 17 15
4 3 5 10 17 18 2 3 9 13 12 8 5 7 8 9 12 12 10 11 13 15 18 19 18 16 19 20 24 21 18 17 18 17 18 16 16 14 12 9 9 9 11 13
5 5 3 22 7 5 3 9 8 13 13 16 17 15 12 11 10 9 10 13 15 17 19 21 19 15 19 21 17 16 17 18 18 17 15 14 14 16 16 16 17 15 14 15
4 2 5 9 9 10 10 8 8 11 8 12 16 13 11 11 9 10 11 12 13 15 16 19 21 24 21 17 14 15 14 16 16 15 15 14 13 14 13 12 14 17 18 20
2 4 6 11 10 12 11 12 10 8 9 11 14 11 10 8 8 9 9 10 11 11 14 17 18 19 23 21 15 13 14 14 13 14 14 13 14 15 14 15 17 20 20 21
3 5 4 11 11 9 12 12 11 11 11 10 9 10 9 9 9 9 8 8 9 12 13 15 15 16 16 17 18 17 15 15 13 12 12 12 14 13 13 14 13 16 16 16
1 4 5 5 6 8 12 11 9 9 10 9 8 9 8 10 10 10 12 11 10 12 12 14 13 13 13 14 14 14 15 15 14 12 12 12 12 13 13 12 11 10 10 9
4 8 10 7 8 8 11 10 9 9 9 10 9 8 8 10 10 11 11 11 12 13 12 12 11 11 11 12 11 10 11 10 10 10 10 10 10 9 8 8 6 9 10 10
5 10 7 5 7 10 11 11 11 11 10 8 8 7 8 8 9 10 10 10 9 9 10 11 11 11 11 11 10 9 9 8 7 7 7 7 6 7 6 5 5 5 7 6
4 4 9 13 10 9 7 6 8 9 8 7 7 7 6 6 8 10 9 8 7 6 7 8 9 9 11 10 10 10 9 8 7 6 5 5 5 5 4 4 3 3 3 1
8 7 8 10 11 8 3 4 6 6 4 5 4 4 3 4 7 8 8 7 6 6 7 7 8 8 8 10 10 9 8 8 7 7 6 5 4 3 2 1 0 1 1 2
11 10 10 11 11 7 3 2 3 4 5 5 5 6 5 6 7 7 7 7 6 5 6 5 5 6 6 7 9 10 9 8 7 6 5 5 5 5 4 2 0 0 0 2
12 9 9 6 7 5 5 3 2 2 3 4 4 4 4 4 4 5 5 7 7 6 6 6 6 6 7 8 8 9 9 9 8 7 5 5 5 5 5 4 2 1 1 1
7 8 7 6 5 4 4 5 5 5 5 4 3 2 3 3 3 3 3 6 9 8 5 6 6 7 8 8 8 9 9 9 8 7 6 5 5 5 4 3 3 3 4 4
7 7 7 6 5 4 6 8 8 7 6 5 2 1 1 2 3 5 7 7 9 10 9 8 9 10 9 8 8 8 9 8 8 8 8 8 8 6 5 5 4 4 5 5
8 8 7 7 10 11 10 9 7 5 3 2 2 2 3 4 4 5 7 8 10 11 11 12 12 13 11 9 8 8 8 9 8 7 7 8 7 7 7 7 8 8 7 7
9 10 11 11 11 11 11 8 7 4 3 3 2 3 5 6 7 8 8 9 11 12 13 13 12 11 10 9 10 10 11 10 9 8 7 7 7 8 9 9 9 10 10 10
13 13 14 13 11 9 8 8 6 4 3 2 2 2 3 5 7 9 11 11 12 13 12 11 10 11 10 9 10 11 11 9 9 8 8 9 10 11 11 11 11 12 12 12
17 16 14 12 10 7 6 5 4 3 3 2 2 3 4 5 7 9 11 12 10 10 10 9 8 9 8 8 8 9 10 9 9 9 10 10 11 11 10 10 10 11 10 9
15 14 12 10 7 6 5 3 1 2 4 4 6 8 9 9 10 9 10 11 11 10 9 9 10 10 9 9 9 8 8 9 10 10 10 8 7 7 9 11 13 13 12 12
14 11 7 4 4 3 2 4 6 8 9 10 10 11 13 13 12 12 8 10 10 10 10 11 11 11 11 11 11 10 10 10 11 10 10 10 10 10 11 11 11 13 14 14
13 9 6 5 1 1 4 6 9 12 10 11 13 13 13 14 14 11 11 13 12 13 14 13 14 15 15 14 14 14 14 13 14 14 12 12 13 14 14 13 12 13 13 14

GFSNGP_850_spd_096.txt.gz
Wind_Speed
4 1 2 4 9 10 7 10 5 16 14 12 2 2 8 8 10 13 16 22 26 30 33 33 32 31 29 26 21 16 9 3 11 18 20 27 30 28 23 21 18 17 16 13
2 6 7 8 11 10 13 14 16 19 21 6 8 10 10 10 11 14 16 19 22 26 29 32 32 30 29 27 25 21 15 7 2 14 12 22 23 25 24 22 21 18 15 13
2 0 4 6 1 0 6 9 12 15 15 9 6 8 7 8 10 13 15 19 22 23 25 27 28 27 27 25 22 21 21 17 16 9 8 18 28 31 30 25 19 16 14 12
2 2 1 1 5 1 8 7 11 8 5 9 14 14 12 10 11 13 14 17 19 20 21 23 23 24 25 26 26 25 23 23 22 16 9 5 6 26 26 23 19 16 14 12
2 1 5 4 5 5 4 4 7 8 4 13 20 21 16 12 14 13 11 13 15 17 18 19 21 22 23 25 28 29 29 25 23 21 17 13 12 11 15 18 19 17 14 12
2 2 4 2 11 13 8 4 9 9 5 6 12 2 3 9 13 13 11 12 15 14 16 18 21 19 22 26 27 29 27 25 22 21 20 16 15 15 14 11 11 10 11 10
3 2 3 8 14 13 3 4 10 10 9 9 5 10 14 11 13 12 13 13 14 18 21 20 17 18 21 24 28 24 22 22 22 21 22 20 17 16 15 15 14 12 12 13
3 4 4 18 4 5 6 7 9 10 11 21 22 19 15 13 12 12 13 14 15 17 19 22 23 19 21 24 21 20 20 21 22 22 21 19 19 18 17 17 16 18 18 19
2 2 4 7 8 9 9 8 9 11 14 18 19 16 14 13 12 12 13 13 14 16 18 20 23 26 24 22 19 19 19 22 22 20 20 20 20 20 19 18 18 19 19 21
3 2 4 8 10 12 12 12 12 13 14 13 16 13 13 11 12 12 12 13 14 14 17 19 20 20 23 22 20 19 20 20 20 19 19 19 20 21 22 22 22 22 22 23
3 4 6 10 8 6 9 10 12 12 12 13 10 11 10 12 13 13 13 13 13 15 17 17 17 17 18 19 19 19 19 18 18 19 19 18 18 19 19 20 18 18 18 16
2 1 6 5 6 7 9 10 9 10 11 11 10 10 9 12 12 13 14 13 14 15 15 16 16 16 16 17 16 15 16 17 17 17 16 16 16 16 16 15 13 13 12 12
3 8 12 10 7 7 9 9 9 10 10 10 10 9 9 10 10 10 11 12 14 15 15 14 15 15 16 17 16 15 15 15 14 14 13 13 13 12 11 10 7 9 10 8
7 12 9 4 7 9 9 8 9 9 9 9 7 6 7 8 8 8 9 11 11 11 11 12 13 14 16 16 15 15 15 14 13 13 12 11 10 9 8 7 7 7 6 5
6 1 6 11 10 8 6 5 5 7 7 6 5 5 5 6 6 7 8 8 8 8 8 10 10 12 14 15 15 15 14 14 14 12 11 10 9 8 7 7 6 6 6 5
10 10 10 11 10 7 4 3 3 4 5 4 3 4 4 5 7 8 8 8 6 9 10 10 9 11 12 12 13 13 13 12 12 12 11 10 9 8 7 5 4 5 5 5
14 10 12 14 10 7 4 3 2 4 5 4 5 6 7 7 7 8 9 9 9 9 10 10 10 9 10 11 12 13 13 12 10 9 9 9 9 8 7 5 4 4 4 4
9 5 8 7 9 7 6 5 4 4 4 5 5 6 5 5 5 7 9 10 10 9 9 10 10 10 10 10 10 11 12 12 10 8 8 7 7 7 7 6 5 4 4 5
9 10 10 9 7 6 6 5 5 5 5 4 4 5 5 5 6 7 8 8 10 11 11 11 11 12 12 11 9 10 10 10 9 8 7 6 6 6 6 5 5 5 5 5
9 9 8 8 7 5 6 7 7 7 6 5 5 5 6 6 7 9 10 10 13 14 14 14 14 14 12 10 9 9 10 10 9 8 7 6 5 5 4 4 4 5 5 6
9 9 8 7 8 11 11 11 9 7 6 5 6 7 8 8 9 10 11 11 13 14 15 16 15 14 12 11 10 10 10 9 9 8 7 6 6 6 5 5 6 5 5 5
7 7 9 10 11 12 11 9 8 6 5 5 5 6 7 7 9 11 12 13 14 15 16 16 15 14 14 12 12 12 12 11 9 8 7 7 7 7 7 8 8 8 8 8
11 12 14 13 11 9 8 7 6 4 4 5 5 6 6 7 8 10 11 13 14 14 15 15 13 14 14 14 13 13 13 12 11 10 9 8 8 9 10 11 11 11 11 10
16 15 14 12 10 9 7 6 5 5 5 4 4 5 6 8 9 10 12 13 13 14 14 14 14 13 14 13 13 12 11 11 12 12 12 11 10 9 9 8 8 9 10 10
15 15 13 11 10 9 7 6 5 5 5 6 7 9 11 12 13 13 13 12 12 12 12 12 12 13 13 14 14 13 12 12 12 13 12 11 12 11 10 10 10 10 10 11
15 13 11 8 7 5 3 3 3 7 9 7 8 10 11 12 12 14 14 14 12 14 13 12 14 15 15 16 16 15 15 15 15 14 14 12 11 11 12 13 13 13 12 10
14 12 9 8 6 4 2 2 5 8 9 9 10 12 13 14 13 11 9 10 13 16 17 17 18 18 20 21 22 22 19 17 17 19 17 17 16 15 15 16 14 14 13 12

GFSNGP_850_spd_099.txt.gz
Wind_Speed
1 3 2 3 8 7 7 8 7 8 16 19 16 13 5 2 6 11 14 18 21 26 29 31 33 32 31 29 27 23 16 11 7 4 4 17 17 22 24 27 29 26 23 21
3 6 6 9 12 10 9 10 13 16 21 19 14 9 8 6 6 9 12 15 20 22 25 28 30 31 30 30 28 24 21 15 12 5 4 8 22 20 29 29 31 27 23 21
2 1 3 8 8 9 2 5 9 12 16 12 5 8 6 6 5 7 11 13 18 20 22 25 26 27 29 29 28 27 26 20 17 17 12 7 5 15 25 30 31 28 24 20
1 2 3 4 6 2 4 9 3 11 11 8 12 15 10 8 6 9 10 14 15 19 20 22 23 24 25 28 30 30 29 28 25 24 20 18 9 12 18 23 29 27 21 17
1 2 4 4 4 3 4 3 8 10 7 11 19 19 15 10 9 9 12 14 15 16 16 19 21 22 25 27 29 31 31 29 27 25 24 22 21 17 15 8 19 22 18 14
3 2 2 1 11 10 7 3 10 11 8 11 7 1 4 7 9 13 14 16 19 21 19 19 21 21 24 27 29 31 30 28 26 25 24 24 23 21 18 16 15 17 17 14
3 2 1 6 14 11 3 5 10 12 14 6 5 9 11 8 12 13 14 16 17 19 24 23 20 21 24 26 29 26 25 25 26 26 26 24 21 20 19 18 15 17 19 18
2 3 2 15 2 3 6 6 9 12 14 20 20 15 13 13 14 14 16 17 18 20 22 23 24 24 26 27 24 23 24 25 27 26 25 24 23 22 20 19 20 21 22 23
2 2 4 7 7 5 6 9 9 12 11 15 15 14 15 15 14 14 15 16 17 18 20 22 24 25 26 25 24 24 24 26 26 26 26 26 27 26 24 23 25 26 26 26
4 3 5 8 9 10 11 13 12 12 13 13 16 15 15 14 14 14 15 16 16 16 19 21 22 22 23 23 23 22 24 25 24 24 24 25 25 26 26 26 25 25 25 25
3 6 8 9 9 8 11 12 13 13 13 14 14 15 15 16 16 15 15 16 16 18 19 20 20 20 20 20 19 20 21 21 22 22 22 21 22 23 23 21 19 19 20 20
2 3 6 6 7 8 11 11 10 12 14 14 14 16 14 16 15 14 15 15 16 17 18 19 19 19 19 20 20 18 19 20 19 18 18 18 18 18 17 16 14 15 15 15
4 5 11 10 9 9 11 10 11 13 13 14 13 12 12 13 12 12 13 13 15 16 17 17 17 17 18 19 19 18 18 17 16 15 15 14 14 14 14 13 11 11 12 11
15 16 9 4 8 10 11 12 11 12 12 12 11 10 10 10 10 11 12 13 13 13 14 14 14 16 17 18 17 17 16 16 15 15 13 12 11 11 9 8 8 9 10 10
12 1 6 14 12 10 9 9 9 11 10 10 8 9 9 9 10 10 10 11 11 10 11 12 12 13 14 15 15 15 15 14 14 12 12 12 11 9 8 7 7 8 7 6
11 11 14 12 11 8 6 7 8 9 8 8 8 8 10 10 11 11 10 9 8 12 13 12 12 12 12 12 12 13 13 12 11 10 10 10 9 9 8 7 7 6 6 5
16 12 11 10 9 7 5 6 6 7 8 8 9 9 9 8 8 9 9 10 11 11 11 11 11 10 10 11 12 12 12 10 8 8 8 9 9 8 8 7 6 6 6 6
7 6 10 8 9 7 7 7 7 8 8 8 8 7 7 7 7 8 9 11 11 11 10 11 11 12 11 10 10 10 10 10 9 8 8 8 8 8 7 7 6 6 6 6
10 10 11 9 8 7 7 7 7 8 9 8 7 7 7 7 7 7 7 9 9 9 12 13 13 13 11 10 9 9 9 9 8 8 7 6 6 5 5 5 5 6 6 6
14 13 12 10 10 7 8 10 10 10 9 8 7 7 7 7 6 7 8 9 11 12 14 14 14 13 12 10 9 10 10 9 9 8 7 6 5 5 5 5 5 5 6 6
13 13 11 10 10 11 13 13 11 10 9 8 8 7 6 6 7 8 9 10 13 13 14 15 14 14 13 11 11 10 10 9 9 8 7 6 6 5 6 6 7 7 7 7
12 12 12 13 14 16 14 12 11 9 9 7 6 6 6 7 8 9 10 11 12 13 13 14 14 13 14 14 13 13 13 11 10 9 8 8 8 7 7 8 9 9 9 9
14 15 17 17 15 14 13 11 9 8 8 8 7 6 5 5 6 7 9 10 11 12 13 13 13 13 14 15 15 15 14 13 13 13 12 10 9 9 9 10 10 10 11 11
18 19 19 17 15 13 12 11 9 8 6 4 3 3 5 7 8 10 10 11 11 12 12 12 12 13 13 14 14 14 14 14 14 14 14 13 11 10 9 8 8 10 10 11
19 19 17 15 14 12 11 9 8 5 3 2 3 5 7 9 10 11 12 12 12 10 12 12 13 14 15 16 16 16 16 15 15 14 13 13 13 11 10 10 10 11 11 11
20 18 16 14 12 11 9 7 4 2 3 2 3 5 7 8 10 10 9 9 10 11 13 14 17 17 18 18 19 20 21 21 20 17 16 16 16 14 13 12 12 13 14 14
19 17 14 11 10 8 6 4 1 2 4 4 5 7 9 10 10 10 9 8 9 13 14 17 17 19 20 20 20 20 21 20 18 18 18 18 17 17 19 19 16 17 17 16

GFSNGP_850_spd_102.txt.gz
Wind_Speed
4 4 2 2 6 7 10 10 6 9 11 14 16 18 10 1 4 5 9 12 14 16 19 21 24 28 30 28 29 28 22 20 18 10 7 5 7 12 19 21 24 29 31 32
2 3 4 8 9 10 11 12 14 15 16 11 20 6 2 2 5 6 9 11 14 15 17 19 24 26 28 28 29 28 26 23 19 13 8 6 3 13 21 27 30 30 31 27
2 2 1 7 5 10 9 7 7 11 12 17 15 3 4 5 8 7 9 11 13 15 16 17 23 24 25 27 28 28 28 26 24 20 20 17 13 7 9 23 32 34 35 29
3 3 4 6 5 7 3 9 5 8 12 10 10 12 12 11 10 9 11 12 13 13 15 18 19 21 22 24 26 29 29 29 27 26 23 20 17 13 5 7 15 18 25 25
3 5 4 4 3 3 3 2 6 9 10 2 9 12 14 11 10 10 11 11 13 12 14 18 20 20 23 25 27 28 30 29 27 25 24 23 24 23 20 13 11 16 20 17
3 3 4 5 7 4 1 6 6 7 8 8 12 5 5 8 9 10 11 10 12 14 16 20 21 22 24 27 28 30 29 27 26 26 24 24 23 22 22 20 20 15 15 19
5 3 5 1 10 3 5 5 7 8 10 10 4 7 9 7 9 10 10 12 13 15 19 20 21 23 26 27 29 27 26 26 25 26 26 25 23 23 24 24 22 22 20 20
3 3 2 13 1 4 5 6 6 9 11 17 16 12 11 10 10 10 11 13 14 16 18 18 19 20 24 27 24 24 24 27 28 27 27 26 27 27 26 26 27 26 26 27
4 4 5 8 6 4 4 7 8 9 9 11 12 12 10 10 10 11 13 14 15 15 16 18 20 20 20 21 22 22 23 24 25 25 26 27 27 28 29 29 30 29 29 28
5 5 7 6 7 8 8 9 9 9 10 11 13 10 10 10 11 13 14 15 14 15 17 19 19 19 20 18 17 18 19 20 21 23 24 23 25 26 25 25 24 24 26 25
5 8 9 7 6 7 9 10 11 11 11 11 11 11 10 11 12 14 14 16 16 16 17 18 18 19 19 19 17 16 17 17 17 18 19 21 24 24 24 23 21 21 20 18
2 9 8 9 8 8 10 10 11 11 12 11 11 11 11 12 12 12 15 15 16 18 18 18 19 20 21 21 19 17 16 17 17 15 15 14 14 17 19 18 15 15 13 13
6 8 14 14 11 10 11 11 11 12 11 11 10 10 10 11 10 11 12 14 16 16 16 17 17 19 20 21 20 19 18 15 14 15 14 13 12 11 11 14 14 14 13 12
17 20 15 13 10 12 13 13 12 12 11 10 11 10 10 10 10 10 11 12 13 13 13 14 14 16 18 19 19 18 16 17 15 14 13 12 11 10 10 10 11 12 13 13
10 4 12 18 16 14 12 12 12 11 11 11 10 10 9 10 10 10 9 9 10 10 11 11 12 14 14 15 15 16 16 15 13 13 14 13 11 10 10 9 9 9 9 10
9 13 19 17 14 12 12 11 11 11 10 10 10 11 11 11 10 10 9 9 8 10 11 11 11 11 12 12 13 14 13 14 13 11 11 11 11 10 9 9 9 9 8 8
18 17 17 16 14 12 11 9 10 10 11 11 11 11 10 10 9 8 8 8 9 10 11 12 11 11 11 11 11 11 11 11 12 10 11 11 10 10 9 8 8 8 8 8
9 12 13 14 15 14 13 12 12 12 12 12 12 10 9 7 6 6 6 8 8 9 9 9 9 10 10 10 10 10 10 10 10 10 10 9 8 9 8 7 7 7 7 9
10 13 13 13 13 13 13 13 13 13 13 12 11 9 8 6 6 5 6 7 7 8 10 10 10 11 11 11 9 9 9 9 8 8 7 8 7 7 7 7 7 6 7 7
14 14 15 14 13 13 15 15 15 14 13 11 10 8 7 5 5 5 5 6 8 8 10 11 12 12 12 11 10 9 9 9 8 8 8 7 7 7 7 8 6 6 6 6
16 16 15 14 15 15 16 16 15 13 12 11 9 6 6 6 6 5 7 3 9 11 12 13 13 12 12 11 10 10 9 9 8 8 8 8 8 7 7 7 7 7 7 7
16 16 16 15 17 19 18 16 14 12 10 8 7 7 6 5 5 5 5 5 8 10 11 11 12 12 12 12 10 10 9 9 8 8 8 9 8 8 8 8 8 8 8 8
17 17 18 19 19 19 17 15 12 10 8 8 7 6 5 2 1 1 4 7 8 10 10 10 12 12 13 12 10 10 10 10 9 9 9 9 9 9 9 9 9 9 8 8
18 20 21 20 18 16 15 13 12 10 8 7 5 2 1 2 4 6 6 8 8 9 9 11 13 13 14 14 12 12 12 12 12 12 11 12 10 10 10 9 8 9 9 10
21 22 21 19 17 14 14 12 10 7 5 3 1 1 3 4 4 5 8 8 10 10 7 13 14 16 17 16 14 14 14 14 15 16 16 15 13 12 11 11 11 10 10 10
22 20 18 15 12 13 12 10 7 5 4 3 2 1 3 5 6 7 7 6 8 9 10 12 15 15 11 12 13 13 14 14 14 14 15 15 15 15 15 14 14 14 13 12
18 18 17 15 13 12 10 8 6 4 4 4 3 2 4 5 6 5 5 5 6 9 10 13 13 14 16 16 13 13 12 12 12 13 11 10 10 10 11 13 14 15 15 15

GFSNGP_850_spd_108.txt.gz
Wind_Speed
8 2 3 3 5 6 8 9 8 9 8 13 13 13 13 12 12 13 14 15 16 16 18 18 19 23 23 25 27 27 29 30 31 29 27 25 24 18 11 14 14 10 20 20
10 9 6 8 7 8 9 10 11 10 5 14 15 16 15 17 15 13 12 13 13 14 16 17 20 22 22 24 25 26 28 30 30 30 30 29 27 26 20 13 14 10 3 15
9 7 3 7 6 8 7 6 8 6 11 8 12 11 13 10 10 10 9 11 12 13 16 18 20 19 21 22 23 26 28 30 31 32 31 31 30 27 26 23 15 12 8 5
1 5 4 9 8 4 4 11 11 9 10 10 11 12 10 11 8 8 8 11 12 13 16 21 19 18 20 21 24 26 28 30 32 33 33 32 32 32 30 28 26 22 17 14
3 7 6 8 6 3 2 5 8 6 6 10 14 15 12 9 9 10 10 11 13 13 14 20 23 22 23 24 26 28 30 30 31 30 31 32 34 36 36 34 33 32 28 24
5 5 6 6 5 8 5 4 7 7 5 6 9 4 5 6 9 10 11 12 12 13 14 18 22 27 29 29 29 30 30 30 27 27 29 31 32 33 34 36 37 35 35 34
7 6 4 1 4 1 3 4 8 5 8 2 3 9 12 9 10 11 12 12 12 14 18 18 19 22 24 29 29 28 28 28 28 27 28 28 29 31 32 34 35 37 38 38
6 8 5 8 3 3 5 8 10 8 11 16 17 14 13 11 11 13 14 14 15 17 19 19 19 20 25 25 25 25 26 26 29 31 30 30 29 29 30 32 34 36 36 37
5 3 5 9 12 7 6 11 9 10 10 11 13 13 12 12 10 10 14 15 15 15 14 15 17 19 22 23 21 21 23 25 26 26 29 31 31 31 31 31 32 32 32 33
6 6 6 8 10 10 11 12 12 11 12 12 13 12 12 11 11 11 12 13 12 12 14 16 17 19 21 19 19 19 21 21 24 27 27 28 30 32 32 33 30 29 29 28
5 8 10 7 9 12 14 13 14 13 12 13 14 12 11 11 11 11 11 10 10 11 13 15 16 17 18 19 17 18 20 21 20 20 21 25 27 29 31 33 31 29 27 24
1 18 3 16 13 13 14 14 14 15 14 12 12 12 11 11 9 8 9 9 11 13 13 15 17 18 19 20 18 18 18 19 20 19 19 19 19 22 25 27 27 26 26 24
6 14 13 18 15 13 15 15 14 14 13 13 11 11 10 10 9 9 9 11 13 14 14 15 17 17 18 19 22 20 18 18 19 20 20 21 21 21 20 21 23 25 24 23
19 22 15 17 12 14 15 15 15 14 13 12 11 10 10 10 9 9 10 10 10 10 10 10 12 12 12 14 17 19 20 16 18 20 20 20 20 21 20 21 22 23 22 18
16 0 16 15 18 16 15 16 15 14 13 12 10 10 9 10 10 9 10 7 7 9 10 12 14 15 14 14 16 15 19 18 15 16 16 15 16 16 17 17 19 20 24 19
9 16 18 19 18 17 16 15 14 14 12 11 10 10 10 10 9 9 8 6 6 10 11 12 13 14 15 13 14 13 12 16 16 14 15 15 13 16 15 16 15 19 23 25
20 20 18 17 17 16 14 13 13 13 12 12 11 11 11 9 7 7 7 8 10 11 12 13 15 14 14 14 15 14 14 14 14 16 15 16 16 16 16 15 15 14 18 20
14 17 15 15 17 16 15 14 15 14 15 15 15 12 10 7 6 7 8 8 10 11 12 11 11 12 14 13 14 15 15 15 15 15 15 14 15 13 15 15 14 15 15 15
16 17 17 16 16 17 17 17 18 17 16 13 12 11 9 7 6 7 9 9 7 8 10 11 13 15 16 14 14 13 13 13 13 13 16 14 14 15 13 14 15 14 15 15
17 17 19 18 17 17 19 16 15 16 15 14 12 10 8 7 7 7 5 6 9 9 9 10 11 11 15 12 14 13 14 14 13 13 15 16 16 15 14 13 14 14 14 13
22 22 20 18 17 14 13 13 16 17 16 13 11 9 8 7 6 3 8 4 11 10 10 12 12 14 14 12 12 14 14 15 16 16 16 17 17 17 16 16 16 15 15 15
20 19 18 16 15 14 14 16 15 15 14 12 10 8 8 7 6 5 7 3 9 9 8 6 11 17 15 15 10 13 13 15 15 15 17 18 18 18 20 17 18 17 17 15
18 17 16 16 15 17 18 17 16 14 12 11 11 10 9 5 3 2 5 5 4 9 6 9 13 16 19 17 12 13 14 15 16 16 16 17 17 18 19 18 18 18 17 17
17 17 17 17 16 17 19 18 15 13 11 10 8 6 7 5 1 1 5 9 9 10 8 12 14 17 17 14 14 15 16 16 16 17 18 17 15 16 18 20 19 18 16 16
16 17 17 17 18 16 17 16 14 12 10 6 5 4 3 2 7 6 7 7 8 9 6 9 14 18 15 11 14 15 14 16 17 18 18 19 15 14 16 17 17 12 7 11
16 15 18 16 14 15 15 14 11 11 10 7 5 4 2 1 1 1 6 8 5 6 4 10 15 17 15 16 16 13 15 15 18 20 21 17 16 17 18 20 20 19 18 14
14 17 19 15 12 13 14 12 11 11 10 8 8 4 3 1 3 1 2 5 7 8 9 11 12 15 17 19 15 17 15 15 18 19 16 18 19 17 20 21 21 19 18 18

GFSNGP_850_spd_111.txt.gz
Wind_Speed
3 6 6 8 3 5 8 5 5 4 8 9 12 11 15 18 16 18 23 21 20 20 19 19 20 21 22 23 24 25 26 26 27 28 28 28 28 26 24 21 18 16 14 9
3 8 4 5 6 5 4 5 1 14 10 10 14 15 17 14 15 15 13 12 12 13 18 20 21 21 21 22 23 23 25 27 28 29 30 32 32 31 28 27 24 19 16 13
3 7 3 3 2 3 9 13 4 4 8 11 10 11 12 11 12 11 11 12 14 16 22 22 21 21 21 21 22 24 25 27 28 28 32 34 34 35 36 35 31 29 28 22
1 5 4 4 6 9 12 10 10 11 10 12 13 14 12 12 11 12 13 16 15 16 20 24 22 23 23 24 25 25 26 26 28 30 31 32 35 36 37 37 39 38 37 34
3 3 6 6 3 2 4 4 6 6 11 17 19 20 14 11 12 11 11 11 14 12 15 17 21 25 26 27 27 28 29 27 28 29 31 32 34 36 37 38 40 41 42 42
1 3 5 3 7 9 3 2 6 8 4 5 11 2 2 7 8 10 11 11 12 12 12 15 19 19 26 26 26 27 31 30 29 29 30 32 32 34 34 36 38 40 42 43
2 2 2 1 7 5 4 3 10 4 3 7 4 6 17 10 11 10 10 10 10 13 16 15 17 21 20 26 23 24 24 25 27 29 31 30 30 31 31 34 35 37 39 41
3 1 4 7 1 3 8 11 13 10 13 23 24 20 17 14 14 13 12 12 10 11 13 14 14 17 20 19 19 16 22 26 27 28 30 30 29 29 30 31 33 34 35 37
2 2 6 8 12 10 12 17 14 14 15 19 20 17 15 15 13 13 14 13 11 9 9 12 14 14 16 18 18 17 17 21 24 27 29 30 31 32 33 33 33 34 34 33
4 5 7 9 12 12 13 15 15 15 15 16 19 17 16 14 13 12 12 11 7 9 13 13 12 13 15 13 14 17 20 21 22 24 26 28 31 34 35 37 34 33 33 33
5 9 13 11 12 15 17 17 17 15 17 19 19 17 15 14 13 12 10 9 9 12 15 17 15 17 16 17 16 17 20 23 23 24 25 27 29 31 33 34 33 31 31 30
3 21 6 17 17 18 19 19 18 22 21 18 16 16 14 13 12 11 11 11 12 13 14 15 15 16 18 20 23 20 22 26 26 25 25 26 26 26 27 27 30 30 23 24
8 15 18 22 19 17 20 20 19 18 17 20 16 16 14 15 12 11 12 11 12 13 15 15 15 15 17 17 19 21 19 19 22 21 22 22 22 22 22 20 23 27 24 22
26 26 20 22 18 19 19 21 19 18 17 16 17 15 14 14 12 11 10 10 12 12 12 12 11 11 13 14 15 17 16 14 15 15 15 15 17 17 18 20 24 27 25 20
11 3 25 20 22 21 22 22 21 20 19 18 15 17 16 16 14 12 9 9 8 8 10 12 12 11 10 10 10 12 12 12 13 13 14 13 14 16 17 18 22 24 25 25
15 22 24 25 24 23 23 22 22 22 20 20 20 16 12 11 12 10 6 6 6 10 12 11 10 10 10 9 9 9 8 9 11 11 13 12 13 15 16 17 18 21 24 26
24 23 25 25 25 24 22 22 22 22 20 19 16 13 12 13 12 10 8 8 10 11 11 10 11 11 9 8 10 10 11 9 10 14 16 13 14 14 15 16 17 18 20 22
19 22 23 23 24 22 21 21 21 20 20 19 17 13 12 11 10 10 9 10 13 9 8 9 9 11 8 8 12 13 13 11 13 16 16 15 15 13 14 14 14 15 16 18
20 20 20 21 21 22 23 23 20 18 17 16 16 14 11 10 10 10 9 9 10 6 7 7 10 11 9 9 12 14 14 14 14 15 16 17 17 16 15 15 16 15 14 14
21 20 21 22 22 21 21 19 18 17 16 15 15 14 13 12 11 10 10 7 8 8 6 7 11 12 11 9 12 13 14 15 15 15 16 18 19 19 20 20 18 17 16 16
24 24 23 21 19 17 16 17 18 18 17 15 14 13 12 12 9 7 6 4 8 8 7 8 10 15 14 12 10 9 11 12 13 14 14 15 15 17 18 20 19 20 21 17
23 23 21 19 19 18 16 17 18 19 18 17 14 13 12 12 11 7 2 2 6 5 6 9 10 13 16 12 9 9 12 14 14 14 14 16 17 18 18 16 17 18 18 18
22 20 19 18 17 16 18 18 18 16 16 15 15 15 12 9 5 3 2 3 6 7 8 7 8 12 14 10 9 12 14 15 15 15 17 18 17 17 17 17 15 17 12 13
19 18 18 18 16 18 21 21 19 17 15 16 15 12 12 10 8 4 1 2 6 7 6 6 8 11 16 14 13 15 15 15 17 18 19 19 19 19 18 18 18 15 11 7
17 18 18 17 18 20 21 21 19 17 17 15 13 12 11 9 6 3 3 4 3 3 4 6 11 16 18 16 16 17 15 17 19 20 21 22 21 19 20 20 20 20 19 17
18 18 17 17 18 21 21 19 18 18 16 14 12 9 6 5 4 3 1 2 2 3 6 10 13 15 16 18 18 18 18 20 20 21 21 21 21 20 20 20 20 20 19 18
15 17 20 17 14 18 18 16 16 16 13 10 9 8 5 5 4 4 4 5 7 9 9 11 13 14 16 17 19 20 20 20 19 20 21 21 20 19 20 20 20 19 18 19

GFSNGP_850_spd_114.txt.gz
Wind_Speed
7 3 4 5 2 8 12 12 7 6 9 10 8 10 13 12 11 11 11 11 12 14 14 14 17 17 19 20 19 20 22 25 27 27 27 27 27 28 26 24 24 22 18 16
2 11 3 4 3 2 2 2 8 15 10 10 14 14 11 9 9 10 12 12 13 15 15 17 19 20 20 20 21 22 25 27 27 27 28 29 31 31 29 28 29 28 26 25
3 7 5 5 2 5 5 7 6 6 6 10 9 9 9 10 9 9 9 9 11 16 19 19 21 22 22 21 21 23 25 27 28 28 29 31 32 33 36 36 32 32 33 34
2 6 4 2 5 8 14 6 6 13 12 10 13 13 12 9 8 7 6 8 9 12 13 17 17 19 21 23 26 27 28 27 27 27 28 29 31 33 34 37 38 39 39 39
3 4 3 4 4 5 4 3 3 8 12 18 20 18 11 7 8 9 7 10 9 10 12 12 17 19 22 23 24 27 29 28 27 27 26 27 29 31 32 33 35 38 40 42
3 4 6 3 3 6 4 1 5 7 13 18 17 3 4 9 9 11 10 9 10 9 10 12 14 18 22 22 23 24 25 25 25 26 27 27 27 28 28 29 31 33 36 38
2 2 0 1 4 3 4 4 11 9 7 12 6 3 19 14 13 12 11 9 8 9 12 13 14 16 22 20 19 17 17 20 22 24 26 27 26 26 26 27 28 30 32 34
3 2 5 1 0 5 7 13 15 11 6 15 19 23 19 16 16 13 11 6 7 9 11 11 12 12 15 19 14 13 15 18 21 23 25 26 27 27 28 28 30 31 32 33
2 2 3 6 10 14 11 19 13 16 18 25 27 22 19 18 15 13 10 8 9 10 10 10 9 8 11 14 13 13 15 18 20 22 24 26 28 30 32 32 32 34 35 35
4 4 5 9 12 12 14 16 15 16 19 20 23 21 19 16 14 11 8 8 8 9 11 13 12 12 12 10 13 15 17 19 20 22 24 27 30 32 35 37 33 33 34 35
4 7 11 8 12 15 16 16 18 17 18 19 23 21 18 17 14 10 8 9 10 14 14 15 14 14 13 12 14 16 18 19 20 22 23 26 28 28 31 32 29 28 30 29
4 18 8 18 19 17 18 19 20 22 23 21 20 21 18 16 13 11 13 12 12 12 12 12 11 11 13 15 15 15 16 18 19 20 21 22 22 22 23 25 26 23 22 24
6 26 11 26 20 19 20 19 23 23 22 24 18 18 17 17 15 15 14 13 11 10 10 10 10 10 11 12 14 13 14 14 16 17 17 17 19 20 22 21 23 25 25 24
25 26 22 25 20 23 22 20 19 19 19 19 20 18 18 17 16 14 13 11 10 10 10 9 8 9 10 10 11 13 12 12 14 14 14 14 16 19 20 23 26 28 27 27
16 1 24 26 25 25 23 23 22 21 21 21 20 20 18 18 16 15 13 11 10 9 9 7 7 8 8 10 12 11 10 12 14 15 15 13 13 14 16 18 21 24 25 27
10 21 29 30 26 28 28 24 25 24 24 24 23 19 16 14 14 12 10 10 8 9 10 9 7 7 7 9 11 9 10 11 13 14 13 13 14 14 15 16 17 20 24 25
27 25 27 26 29 30 28 26 26 26 25 24 21 18 15 14 14 13 12 11 9 8 9 6 5 5 6 9 11 10 9 10 12 13 14 14 14 14 15 16 16 16 15 17
18 24 28 30 31 30 27 26 26 25 25 22 20 17 17 16 15 15 12 10 9 9 8 7 6 6 6 8 11 10 9 11 12 14 14 16 16 17 18 18 18 17 16 17
18 22 22 24 26 27 26 26 25 22 21 20 19 18 16 15 13 12 12 9 9 6 7 7 7 6 5 8 10 10 10 11 11 11 12 13 12 14 15 17 17 19 19 21
20 21 23 24 24 25 24 23 21 21 20 20 19 18 17 14 13 13 11 9 9 6 5 6 7 7 8 8 8 9 9 12 14 13 14 14 14 13 13 14 14 14 16 17
22 23 23 23 23 20 20 22 20 21 22 19 17 16 15 16 13 10 9 5 5 5 5 3 6 9 10 7 8 9 11 14 16 16 15 15 16 17 17 16 16 16 14 12
24 25 22 19 21 21 20 20 20 20 21 20 18 16 17 16 14 11 8 3 3 3 2 3 5 8 10 11 12 12 14 16 17 15 16 17 18 17 17 18 17 16 15 13
23 23 21 20 19 19 19 19 19 19 21 20 19 18 15 12 8 6 6 4 1 1 3 3 6 7 10 14 13 14 17 17 16 16 17 17 19 20 19 18 17 16 14 13
21 21 20 19 18 19 21 21 20 20 19 19 19 18 16 14 11 8 5 4 2 4 3 4 5 8 13 14 14 16 16 15 17 18 19 19 19 19 19 19 19 19 18 17
19 19 18 18 19 19 21 24 24 23 22 21 19 16 11 9 6 8 6 4 3 3 3 4 9 12 14 16 16 16 17 17 18 18 19 19 19 19 19 19 19 19 19 19
18 18 18 18 18 20 23 25 25 24 23 22 18 14 11 9 8 8 5 3 3 3 7 10 12 14 15 16 17 18 18 19 18 19 19 19 18 18 19 19 19 19 20 21
16 17 18 18 17 20 23 24 23 23 22 19 16 13 9 9 7 6 5 4 5 7 9 11 13 14 15 16 17 17 18 17 17 17 17 17 18 19 20 20 20 20 20 21

GFSNGP_850_spd_117.txt.gz
Wind_Speed
5 5 2 4 13 14 15 12 8 6 10 15 15 14 16 15 10 7 6 6 9 10 12 13 11 13 14 15 17 19 21 23 23 24 25 27 28 30 29 27 27 27 27 27
4 10 9 10 14 8 13 15 13 6 7 11 18 19 14 11 9 6 5 5 6 7 8 11 13 15 16 16 17 19 20 22 22 24 25 24 27 30 31 32 33 32 33 35
7 4 7 7 10 11 3 1 6 7 7 16 14 14 14 12 9 9 8 7 6 5 7 9 12 14 17 18 18 21 22 22 22 23 23 26 27 28 31 33 34 35 36 38
1 3 7 1 3 4 6 2 3 8 16 15 14 15 14 11 10 9 8 7 5 6 7 9 10 11 13 16 19 22 23 22 22 22 23 23 24 26 28 30 33 34 35 38
3 4 2 2 4 5 4 4 0 11 14 19 20 18 7 7 8 8 7 8 7 6 6 7 9 11 13 17 18 20 21 23 24 24 22 22 24 26 27 28 31 33 34 35
2 3 6 5 3 6 3 3 8 12 16 20 18 3 4 12 10 10 8 6 5 5 5 5 9 9 13 15 16 17 19 21 22 23 24 24 25 26 26 27 29 31 33 35
5 4 4 2 6 4 5 5 11 20 22 23 4 3 21 16 13 10 9 6 5 5 5 7 8 10 12 13 16 15 15 17 19 20 22 23 25 24 25 27 28 30 32 33
4 3 6 3 3 6 4 10 16 17 19 19 14 22 22 19 16 15 11 7 5 6 6 8 6 7 11 15 12 12 14 16 19 21 22 24 26 27 27 28 30 33 34 34
3 4 1 2 1 9 13 20 14 15 16 23 26 26 24 22 20 15 10 9 8 7 7 6 5 6 9 13 12 12 14 17 19 21 23 25 29 30 31 33 34 35 35 35
3 3 3 8 13 11 15 15 14 15 22 28 31 28 27 23 18 14 10 9 9 9 9 10 9 9 11 11 12 13 15 17 19 21 23 26 28 31 33 33 32 31 34 33
3 5 8 6 12 17 18 18 19 18 22 26 28 27 24 21 17 13 10 11 11 11 12 13 12 11 10 10 10 14 15 16 18 19 21 23 25 27 28 27 26 26 28 29
5 16 5 14 21 20 20 20 20 23 23 22 25 25 22 19 15 13 13 12 12 11 11 11 9 10 11 11 11 12 14 16 17 18 19 19 20 21 22 23 24 24 24 26
5 21 7 22 23 18 19 20 21 21 23 27 22 21 19 19 16 16 14 12 11 11 10 9 9 9 10 10 11 12 14 15 16 17 17 17 19 21 22 22 23 25 26 26
19 24 19 25 14 20 20 20 20 22 22 22 22 20 19 19 18 16 14 12 11 9 8 7 7 7 8 9 10 11 13 14 15 14 13 15 17 17 19 23 25 26 26 26
15 2 17 22 24 21 21 25 25 25 24 22 21 22 21 21 19 17 14 12 10 9 8 5 4 7 8 10 10 12 13 14 14 13 14 14 15 16 18 20 22 23 23 25
7 8 20 27 27 25 26 25 27 26 24 24 23 22 20 19 18 15 12 11 9 9 8 6 4 7 8 9 11 11 12 12 13 14 14 16 16 18 19 20 20 21 23 26
19 18 26 27 28 29 28 26 26 26 26 25 23 21 21 20 18 14 13 11 9 8 7 6 5 7 7 8 10 11 11 11 13 14 16 16 16 16 17 17 18 18 19 21
7 13 25 28 30 29 27 25 25 26 25 24 22 21 20 18 15 14 13 12 10 8 7 6 6 5 7 8 10 11 12 12 13 15 16 15 15 15 15 15 15 15 16 17
8 18 22 24 25 26 26 25 23 23 22 21 21 18 16 15 14 14 14 12 10 8 8 7 5 5 6 9 10 11 11 11 13 15 15 15 15 16 16 17 17 16 17 16
12 15 17 21 22 24 25 22 21 22 21 21 19 19 19 17 15 15 13 11 10 8 7 4 4 5 8 8 8 10 10 13 15 15 15 15 16 17 17 16 17 17 17 16
15 17 19 20 23 22 20 21 22 22 22 20 19 19 18 18 17 15 13 10 9 8 5 1 3 6 8 8 9 10 11 14 16 16 16 17 17 18 18 19 19 18 17 16
19 20 20 20 20 20 20 21 22 21 22 21 18 18 19 19 18 15 11 7 8 6 3 2 4 5 7 9 11 12 14 16 16 16 17 18 19 20 20 20 20 19 19 19
20 20 18 17 19 19 20 20 20 20 22 21 20 19 18 17 15 14 11 9 7 4 3 3 3 5 7 12 12 13 15 15 15 17 18 18 19 20 21 21 21 21 21 21
18 19 18 17 17 19 21 21 20 20 19 19 18 18 20 20 16 13 9 8 5 3 3 3 3 5 9 12 13 14 15 15 16 16 17 18 19 20 20 21 21 22 22 22
15 17 18 17 18 18 19 22 22 22 22 22 22 21 17 13 7 11 9 7 5 4 3 3 5 7 10 12 13 15 15 15 15 16 17 18 19 20 20 21 21 22 22 22
15 17 17 18 18 19 21 23 25 25 25 25 22 19 17 15 11 11 9 7 5 5 4 5 6 9 11 13 14 14 15 15 16 16 17 18 19 20 20 21 21 22 22 23
15 16 18 18 17 18 20 24 26 26 27 24 22 19 15 13 12 11 9 7 5 4 4 5 8 10 11 13 13 13 14 15 15 16 16 17 18 19 20 21 22 23 23 24

GFSNGP_850_spd_120.txt.gz
Wind_Speed
5 5 5 5 6 7 16 17 9 6 10 15 16 16 18 22 17 10 5 3 6 6 8 9 11 12 12 12 12 13 15 18 22 22 22 22 22 24 26 27 30 31 32 34
4 7 10 9 11 9 12 10 7 7 6 3 18 19 19 18 16 11 7 4 5 6 7 10 12 12 13 12 13 14 16 19 19 18 19 20 21 24 25 27 29 33 35 37
6 4 2 8 17 13 6 4 5 13 7 12 13 16 18 18 14 11 8 6 4 5 6 7 9 9 12 13 13 15 18 18 17 16 18 20 21 22 24 28 29 32 35 36
2 3 10 1 4 5 8 4 4 3 14 16 16 17 19 16 15 13 11 9 6 5 4 5 5 8 10 13 13 17 16 16 17 18 18 19 20 22 25 27 29 33 34 34
3 4 4 3 4 5 7 6 5 11 12 19 24 18 9 12 10 11 11 11 8 5 5 4 3 4 6 8 12 13 15 17 17 19 19 19 21 23 24 27 29 33 34 34
3 4 6 5 1 3 2 6 9 15 16 19 20 7 4 17 15 14 12 9 8 6 4 2 2 2 4 7 9 13 14 15 16 18 19 20 21 22 24 28 30 30 32 33
4 4 6 4 5 6 5 5 16 24 25 24 7 4 22 22 18 15 12 10 9 8 6 5 5 4 4 7 10 11 11 13 15 18 20 22 23 23 25 27 29 31 32 34
3 3 7 6 4 6 3 5 19 22 25 23 14 20 27 24 22 17 14 11 10 9 8 7 5 3 5 10 9 8 11 14 17 18 20 23 24 26 28 30 33 35 35 36
7 5 1 2 1 4 9 17 18 25 26 27 23 28 27 25 21 17 13 11 10 10 9 8 6 5 6 10 8 9 11 15 17 19 21 24 26 29 31 33 35 37 38 39
3 2 3 4 8 11 10 15 18 20 25 26 28 27 27 25 23 17 12 12 12 11 10 10 9 7 8 8 9 9 12 15 16 18 20 23 26 29 31 34 34 34 35 36
1 2 5 7 10 15 14 14 16 18 23 27 28 29 28 25 20 16 14 14 13 13 12 11 10 8 8 7 8 11 13 14 15 16 18 21 24 26 27 28 28 30 33 34
5 13 5 8 22 19 18 18 19 23 26 26 26 30 27 24 19 16 16 15 15 13 11 11 10 10 9 9 9 10 11 13 13 15 17 18 20 21 22 22 23 25 26 29
2 17 6 16 23 21 19 21 22 24 26 28 26 26 24 22 19 18 17 16 14 12 11 10 8 8 9 10 9 10 11 12 13 15 17 19 19 21 21 22 23 26 27 28
14 20 15 24 15 22 19 21 21 20 22 24 25 24 22 22 21 19 17 15 14 12 11 9 7 7 9 10 10 10 11 12 14 15 16 15 16 18 19 22 25 27 28 30
8 2 11 22 25 21 21 24 24 24 25 24 23 23 22 23 22 20 17 15 14 12 9 7 6 7 9 9 9 9 11 13 14 14 15 15 15 17 20 21 23 25 26 26
8 10 19 24 27 25 25 25 27 28 26 25 24 22 22 21 21 19 16 14 12 12 10 7 5 6 7 8 7 9 11 13 13 14 15 16 16 18 19 21 21 23 24 25
17 14 21 24 27 26 28 27 27 28 27 25 25 24 23 22 21 18 17 15 12 10 8 7 5 6 7 8 8 10 10 11 13 14 15 16 16 18 19 20 20 20 19 19
1 2 17 22 26 26 26 25 25 25 26 25 24 24 23 22 20 18 17 16 13 11 9 6 5 6 6 7 7 9 10 11 13 15 15 15 16 18 19 19 19 19 18 17
1 4 15 17 20 23 23 23 22 23 23 23 23 23 20 19 16 18 17 15 12 10 9 7 6 4 4 5 6 8 10 12 13 14 15 15 16 18 18 18 18 18 19 19
7 9 12 14 18 20 22 20 19 20 21 22 22 22 21 19 18 18 16 14 12 9 9 6 5 3 3 5 7 9 10 12 13 14 15 16 17 18 18 18 19 19 19 18
9 10 11 14 17 16 16 18 19 21 22 22 21 20 21 20 19 18 17 14 13 11 7 5 3 2 4 6 8 10 11 13 14 15 16 17 17 18 19 19 19 19 20 20
11 12 12 12 14 15 14 15 17 20 22 22 20 19 21 21 20 17 12 9 12 11 6 3 0 2 4 7 9 10 11 12 14 15 15 16 17 19 19 20 20 21 21 22
13 12 12 10 12 14 14 16 17 19 20 21 20 21 20 19 19 18 16 14 12 9 6 3 2 2 5 8 10 10 12 13 14 15 15 17 18 19 19 21 22 22 22 22
14 16 13 11 12 15 16 18 18 18 18 21 20 18 19 22 19 15 11 11 10 7 5 4 3 3 6 8 9 10 12 13 14 15 15 16 17 18 19 20 21 22 22 22
12 13 13 13 14 15 16 19 20 19 20 20 19 19 18 16 12 14 12 12 9 7 5 5 4 5 7 8 9 11 12 13 13 14 15 16 17 18 19 20 21 22 23 23
11 12 13 13 14 15 18 20 22 23 24 24 22 22 20 18 14 12 12 10 7 7 5 4 5 6 7 8 9 11 12 12 12 13 14 15 16 18 19 20 21 22 23 23
11 12 14 14 14 14 16 19 22 24 25 24 24 23 20 18 14 12 11 9 8 7 5 5 6 7 7 8 10 11 12 11 12 12 13 14 15 17 18 19 21 22 23 23

GFSNGP_850_spd_123.txt.gz
Wind_Speed
13 10 7 8 12 13 15 17 11 22 16 14 18 17 22 21 18 15 11 6 5 4 5 6 8 10 10 10 11 12 13 15 18 18 17 19 20 21 21 20 24 25 26 27
14 9 13 14 15 14 16 18 16 18 21 8 19 18 22 24 23 19 14 9 7 6 5 6 7 9 11 11 11 12 14 15 15 15 15 18 18 20 20 21 23 25 27 27
12 6 7 10 19 18 14 17 15 16 19 10 11 20 28 27 23 19 16 12 10 7 6 6 5 7 11 12 12 13 13 14 15 15 17 18 18 18 19 21 23 25 27 27
7 5 12 5 2 6 14 17 15 11 7 18 17 14 18 21 23 19 16 14 11 9 7 7 5 6 7 9 10 11 12 14 15 15 16 16 16 18 20 21 24 25 25 28
7 8 6 7 6 7 7 8 12 12 12 16 21 18 8 17 19 19 16 16 14 10 9 7 4 4 4 5 8 10 13 15 16 16 16 16 17 19 21 22 24 26 27 26
5 8 8 3 2 6 4 9 14 17 18 21 23 9 7 19 19 20 16 16 14 12 9 6 5 4 4 6 8 11 13 14 15 15 16 17 17 19 23 23 25 25 27 29
4 3 5 5 7 6 5 4 10 18 23 26 11 3 23 26 21 18 17 17 15 12 9 7 7 5 5 8 10 11 10 11 13 15 17 18 19 21 22 23 24 26 28 29
3 6 10 11 8 8 1 2 10 17 21 20 12 18 29 28 25 23 21 18 15 12 10 9 7 5 7 8 10 8 8 10 12 15 17 18 19 21 23 24 26 27 28 30
8 4 1 3 2 4 6 7 15 19 22 23 22 27 30 28 25 21 19 18 15 13 11 9 6 6 7 8 8 7 7 9 12 14 16 18 20 21 22 23 26 27 26 30
3 4 3 6 8 6 6 10 17 21 23 25 27 30 29 28 26 23 19 17 15 14 12 10 9 8 7 8 6 5 6 8 10 12 15 18 18 19 19 20 20 21 24 23
2 1 1 9 14 14 12 13 17 20 22 26 27 29 28 29 26 20 19 18 16 14 14 13 11 9 8 6 5 5 6 8 9 11 14 15 17 16 16 18 20 20 20 22
5 8 4 3 21 18 17 18 20 24 25 24 26 28 30 29 24 21 20 19 18 16 15 14 12 10 9 7 5 5 5 7 9 10 11 13 13 15 16 17 16 18 19 21
1 10 4 6 18 19 17 17 19 22 26 29 27 28 30 28 23 21 20 20 18 17 15 14 12 10 8 7 6 6 6 8 8 10 11 13 14 15 16 17 19 19 22 22
9 13 10 15 10 18 16 19 20 22 25 27 29 29 28 26 23 21 21 20 18 17 16 13 11 9 9 8 6 7 7 9 9 11 11 12 14 16 17 18 19 19 22 23
7 3 3 16 22 20 20 23 25 26 27 28 28 28 27 25 25 24 22 21 19 18 16 13 11 9 9 8 7 7 8 9 9 10 11 12 12 14 15 16 17 18 18 20
6 7 14 19 23 23 23 24 24 24 27 29 29 27 25 24 25 24 23 21 20 19 16 13 11 9 9 7 7 7 7 8 8 9 10 11 12 13 14 16 16 17 19 22
16 10 14 17 21 23 23 23 23 26 28 28 28 27 26 26 25 24 22 20 18 17 15 12 11 10 8 7 6 6 6 7 8 9 10 11 12 14 15 16 17 17 18 19
3 1 11 17 23 22 22 22 23 26 28 28 27 26 26 27 26 25 24 22 21 18 15 13 10 9 7 6 6 5 5 6 7 8 9 10 12 13 15 16 16 17 18 17
3 4 12 15 19 20 23 23 23 26 25 24 25 25 24 24 23 23 22 21 19 18 16 13 10 7 5 4 4 4 5 7 8 8 10 11 12 13 14 15 16 17 17 18
8 10 11 14 16 17 21 21 20 21 21 23 24 24 25 24 22 22 21 19 16 14 14 12 8 6 5 3 2 3 5 6 7 8 9 10 12 13 14 15 16 16 17 17
10 11 12 13 15 16 15 17 18 20 21 21 23 23 23 22 21 22 22 21 18 16 13 10 7 6 4 2 3 4 5 6 7 8 9 10 11 13 14 15 15 16 16 17
9 11 11 12 14 15 15 15 16 18 21 23 23 23 23 23 23 22 18 16 18 16 11 8 6 5 3 2 3 4 5 7 7 8 9 10 11 13 14 15 15 16 17 18
10 10 10 10 13 15 16 15 16 18 21 22 23 22 23 23 23 24 22 19 17 14 10 7 5 4 1 3 4 5 6 7 7 8 9 10 11 12 14 15 15 16 18 19
11 11 11 10 13 15 16 17 17 18 19 21 21 22 23 25 23 20 15 15 16 13 9 7 5 4 2 3 4 5 6 7 7 8 9 10 11 12 13 14 15 17 18 19
11 12 13 12 13 15 15 17 19 20 21 22 22 21 21 20 19 19 16 16 14 12 10 8 6 4 3 4 4 5 6 6 7 7 8 9 10 11 12 14 16 17 18 19
12 13 12 12 12 14 15 18 21 22 23 24 24 24 22 21 18 16 15 15 13 11 10 8 6 5 4 4 5 6 6 6 6 7 7 8 9 11 12 14 16 17 17 18
11 11 12 13 13 13 15 17 20 22 23 24 25 25 22 22 19 16 15 16 12 11 10 8 6 5 5 5 6 5 5 5 6 6 7 8 9 10 11 13 15 16 17 18

GFSNGP_850_spd_126.txt.gz
Wind_Speed
19 18 17 17 18 18 21 21 18 21 21 23 16 12 20 23 23 21 20 16 11 8 5 5 5 6 6 7 7 7 7 8 10 11 11 12 13 14 14 15 16 16 18 21
21 19 19 21 24 25 24 25 24 23 29 20 23 11 19 26 26 24 21 15 12 10 9 7 6 7 7 7 7 7 8 8 9 9 11 12 13 14 13 14 16 17 18 19
18 16 17 16 25 25 27 23 22 23 26 20 12 13 25 29 27 26 23 18 15 13 11 9 8 9 8 7 7 7 7 8 9 9 10 12 12 12 13 15 15 17 19 20
12 7 15 15 6 11 17 20 23 23 22 16 15 18 20 23 26 25 22 20 17 15 13 11 9 8 8 7 7 7 8 10 10 10 10 11 11 13 14 15 18 19 20 21
9 14 19 21 9 5 9 18 16 18 18 12 6 13 7 17 22 22 22 21 18 15 14 13 10 9 7 7 8 7 9 10 11 11 10 10 12 14 15 15 17 20 21 23
15 17 20 17 15 8 5 12 12 18 14 15 20 9 8 22 22 25 25 21 20 18 16 13 11 9 8 8 8 9 9 10 10 11 11 12 13 15 15 16 17 18 21 22
16 17 13 9 6 11 8 5 1 9 13 21 14 3 27 28 25 26 22 21 21 18 15 13 12 10 9 9 9 9 9 9 9 10 11 12 13 14 15 16 17 18 18 21
13 10 11 11 11 8 0 1 4 8 17 20 12 19 28 30 27 25 24 24 21 19 16 14 12 10 10 10 9 8 7 7 9 10 11 12 13 14 15 15 16 16 17 17
8 3 3 20 2 7 3 3 7 13 16 20 22 23 26 27 27 26 25 22 18 17 16 13 12 10 11 9 8 7 6 7 8 9 10 12 13 14 14 15 15 16 16 17
1 7 7 13 10 6 6 5 10 14 18 21 24 26 26 27 27 25 23 20 18 17 16 14 12 12 11 10 8 7 7 7 7 8 10 11 11 13 14 14 14 15 15 17
9 5 5 13 16 13 10 10 13 15 18 20 25 26 27 26 25 24 22 20 18 17 16 15 13 12 11 9 8 7 6 6 6 7 7 9 12 12 11 14 14 13 14 13
7 3 7 2 13 14 13 14 17 20 19 20 23 26 25 24 22 22 21 19 18 17 17 16 14 13 11 9 8 7 6 5 6 6 6 7 6 7 12 11 12 14 16 16
2 5 3 5 11 12 13 15 17 18 20 24 21 23 25 25 22 21 20 21 21 21 20 18 16 14 12 10 9 8 7 6 6 6 6 6 6 6 5 10 13 14 14 13
8 8 6 8 6 12 14 15 16 17 19 21 23 23 24 23 23 21 21 22 22 21 19 17 15 13 11 9 8 7 7 8 7 6 6 6 6 5 5 6 7 8 12 12
3 1 1 9 14 15 15 17 20 21 22 23 23 25 24 24 23 21 23 24 22 20 19 17 14 13 11 10 9 8 7 7 6 5 5 5 4 4 5 5 6 7 9 11
5 6 10 13 16 17 17 19 20 22 23 24 24 24 23 22 22 23 24 23 23 22 19 17 14 12 11 10 8 7 6 5 5 4 3 3 4 4 5 6 6 7 9 13
11 8 11 14 16 17 17 17 18 21 23 24 24 24 23 23 23 24 24 23 21 20 18 15 14 12 11 10 8 6 5 4 4 4 2 2 3 4 4 5 5 6 7 12
1 3 9 12 17 17 17 17 18 20 22 22 25 27 27 27 27 27 26 24 23 21 19 16 13 12 10 8 7 5 4 2 2 1 1 2 3 4 5 5 6 7 7 9
1 5 10 13 15 16 17 18 20 21 24 27 27 26 25 26 25 26 26 24 23 21 19 17 14 12 9 8 6 4 3 1 1 0 2 3 4 4 5 6 6 8 8 9
5 9 11 14 14 16 18 20 23 24 23 23 26 26 26 25 25 25 24 23 20 17 18 16 14 11 9 7 6 4 2 2 1 1 2 3 4 5 6 7 7 8 9 11
9 10 11 13 14 14 16 17 19 21 23 23 24 26 25 25 24 24 25 22 21 17 18 15 12 10 9 7 5 4 3 2 2 2 2 2 3 4 5 6 7 9 10 12
10 10 11 12 14 15 15 16 17 19 21 23 24 26 28 26 25 24 21 18 22 20 18 15 13 12 9 7 5 4 3 2 2 2 2 2 3 4 5 6 8 9 11 12
10 10 10 12 13 14 15 15 16 18 22 24 25 26 27 26 26 28 25 21 21 22 18 14 12 11 9 6 4 3 3 3 2 2 2 2 3 4 5 6 8 10 11 12
11 11 11 12 13 13 15 15 16 17 19 21 23 25 27 28 25 19 18 21 22 21 16 13 12 11 8 5 4 3 3 3 3 3 2 2 3 4 6 7 9 10 11 12
12 11 10 10 12 12 13 15 17 18 20 21 22 23 23 22 22 22 20 20 21 20 16 13 12 10 7 5 5 4 4 4 4 3 3 3 3 4 5 7 8 10 11 12
11 12 12 11 10 12 14 16 17 19 21 22 23 23 24 22 21 20 20 19 21 19 15 13 12 10 8 6 6 5 5 5 4 4 4 3 3 4 5 6 8 9 10 12
13 12 12 12 13 13 14 16 18 20 22 23 24 25 24 22 21 20 18 20 20 18 15 14 13 10 8 7 7 6 6 5 5 6 5 4 4 5 5 7 8 9 10 11

GFSNGP_850_spd_129.txt.gz
Wind_Speed
21 23 11 11 13 18 18 17 12 18 19 21 17 12 22 17 20 20 24 22 19 15 11 8 7 6 4 3 4 3 4 5 7 8 8 9 10 11 11 12 12 13 13 16
22 23 22 22 22 26 22 23 23 23 25 23 28 28 21 22 21 23 23 22 20 17 14 11 9 7 6 5 5 4 5 6 6 7 7 8 9 9 10 11 12 13 14 16
21 20 20 18 29 23 25 26 24 23 24 24 20 17 16 15 23 24 23 23 21 18 16 13 12 10 7 6 6 5 6 6 5 5 6 7 8 8 10 11 12 13 15 15
6 11 13 13 17 25 21 24 23 24 22 22 20 19 11 14 22 24 23 23 20 18 16 15 14 11 9 8 7 6 6 5 6 6 7 8 8 9 10 11 13 14 16 16
7 12 16 19 15 6 11 17 17 19 19 21 17 2 3 9 22 27 28 24 23 20 18 17 14 14 11 10 8 7 6 6 6 6 6 7 8 9 10 11 12 14 15 18
12 14 17 19 20 16 10 14 16 21 19 16 9 8 7 13 20 29 29 28 25 23 21 21 17 15 12 12 10 10 8 7 7 7 7 7 8 10 10 11 12 12 14 17
15 14 16 25 25 4 11 14 7 7 5 7 10 2 16 23 26 30 29 26 24 23 22 21 19 17 16 12 10 9 8 7 6 7 8 8 9 10 10 11 11 12 13 15
13 17 18 16 2 12 6 2 1 1 2 10 14 17 26 27 29 29 27 25 23 23 20 16 15 14 15 12 12 11 8 7 7 8 8 9 9 10 12 11 11 12 13 14
11 6 7 7 11 11 4 3 3 4 8 16 19 23 26 28 27 28 27 24 21 20 18 16 14 13 13 12 11 10 8 7 8 9 10 9 10 10 9 11 11 12 13 14
8 11 14 12 12 8 8 6 5 7 13 17 24 26 26 27 28 27 25 22 20 20 19 18 15 14 13 13 11 10 9 8 8 8 9 8 8 9 10 11 11 11 12 13
14 16 6 11 18 14 9 7 8 11 15 19 23 26 24 26 27 27 26 22 21 20 19 18 16 15 14 13 12 11 9 8 7 7 6 7 8 10 9 12 12 11 12 11
12 4 12 5 13 14 13 11 13 16 16 16 19 25 25 26 24 24 24 22 21 20 19 18 16 15 13 12 11 11 10 8 8 6 6 6 4 7 11 14 15 17 14 12
8 2 2 2 5 10 12 13 14 15 16 20 20 23 24 24 23 23 23 22 24 24 24 20 19 18 14 12 11 10 10 9 8 7 6 6 5 5 5 13 15 17 20 18
5 5 4 6 4 9 11 13 15 15 17 19 21 22 22 23 23 23 22 23 25 27 28 24 21 18 15 13 13 13 12 13 9 7 6 5 5 5 5 5 6 10 16 17
7 4 2 6 10 11 13 15 17 18 20 20 21 22 23 23 23 22 21 22 22 22 22 21 19 16 14 13 12 11 10 8 7 6 5 5 5 4 4 4 4 5 7 10
5 5 6 9 11 12 13 15 17 19 20 21 22 22 22 22 22 22 22 22 23 22 22 21 18 16 15 13 12 10 8 8 9 4 5 4 4 3 3 3 4 5 7 10
7 6 8 9 11 12 13 13 15 18 20 21 21 22 23 23 23 22 22 21 22 23 22 20 18 16 15 14 11 8 6 6 6 5 4 3 3 3 3 4 4 4 6 12
2 2 5 8 11 12 13 13 15 17 19 20 23 25 26 27 26 27 26 26 24 22 21 19 17 15 14 13 11 8 6 5 4 3 2 2 3 2 2 2 3 4 4 9
3 3 6 9 11 12 13 13 16 18 21 26 29 30 28 25 28 27 25 24 24 23 22 20 17 15 13 12 9 7 6 5 5 3 1 0 1 0 1 1 2 4 4 6
6 7 8 9 10 12 14 16 20 21 24 25 27 28 27 26 25 24 23 23 19 17 20 19 17 14 12 11 10 7 6 5 5 4 3 2 1 1 2 3 2 3 4 5
8 9 11 13 13 13 14 17 20 20 21 22 23 26 25 24 22 23 24 19 21 17 20 18 15 12 11 11 8 7 6 6 4 3 3 2 1 2 2 2 3 3 4 5
7 8 9 10 11 11 11 13 14 15 18 20 22 23 24 25 23 22 19 16 20 21 20 17 14 14 12 10 8 7 6 6 5 4 3 3 3 3 3 4 4 4 5 6
8 8 9 9 9 10 10 11 12 13 16 20 21 22 24 27 26 24 20 20 20 21 18 15 16 12 12 10 8 7 6 6 5 5 6 5 5 5 5 5 5 5 5 6
9 9 10 10 10 10 11 11 10 12 14 16 18 20 24 26 23 16 14 18 20 21 16 16 14 14 12 10 8 7 6 7 6 7 7 6 6 6 6 5 5 6 6 7
11 10 10 10 10 9 10 11 11 12 13 14 17 20 20 21 21 17 17 18 20 20 19 15 14 13 12 9 8 7 7 7 7 7 7 8 7 7 6 6 6 6 7 7
11 9 9 9 8 10 10 12 11 13 14 15 18 20 21 20 18 18 17 19 21 19 17 16 14 14 12 10 8 8 8 8 8 9 8 8 8 7 7 7 7 7 7 8
11 11 10 10 10 11 11 12 13 14 17 17 19 21 21 20 20 18 18 19 20 20 16 16 15 15 13 10 9 9 9 9 9 9 9 9 8 9 9 9 8 8 9 9

GFSNGP_850_spd_132.txt.gz
Wind_Speed
13 14 11 6 9 12 15 15 14 19 17 18 15 11 16 21 24 26 23 23 21 19 17 14 11 10 8 6 6 5 5 4 5 3 3 4 5 6 6 6 8 9 11 13
14 14 14 11 11 22 21 20 16 21 19 14 19 17 23 26 23 26 25 22 23 20 18 14 12 11 10 9 8 9 7 6 4 3 3 4 5 5 5 7 8 7 10 13
16 16 15 15 26 23 25 22 16 19 16 15 16 17 20 23 17 27 26 26 25 22 19 16 14 13 12 11 9 8 7 5 3 2 2 3 4 5 7 10 11 13 11 13
9 12 20 16 16 20 21 19 19 18 18 17 14 17 9 13 30 32 29 29 28 27 24 19 17 15 12 12 10 9 9 7 5 4 3 4 5 7 9 11 12 13 16 15
5 6 9 13 13 9 8 7 15 13 14 14 17 12 6 6 29 31 31 32 34 32 25 22 20 17 14 13 12 10 8 6 5 4 3 5 7 8 9 10 12 14 15 16
4 3 4 9 13 16 9 6 13 16 14 14 18 7 3 14 26 32 33 37 34 27 23 22 22 18 16 14 14 11 7 6 6 6 6 6 8 10 10 12 12 12 14 16
13 10 8 16 18 23 14 9 9 7 10 13 3 6 20 20 25 30 33 32 27 24 23 22 21 23 20 19 13 12 12 10 7 8 7 8 10 11 13 12 12 13 12 14
9 10 15 6 10 13 6 3 3 2 4 15 18 18 20 19 25 28 29 28 25 25 23 23 23 22 20 15 15 12 10 9 9 9 8 10 10 12 12 10 10 9 9 11
5 3 2 7 8 14 12 4 1 0 5 12 14 18 20 21 25 25 26 25 24 24 25 21 18 17 19 17 15 12 10 10 11 11 10 8 9 9 10 8 8 8 7 9
12 13 13 16 17 9 5 4 3 3 9 12 17 21 23 25 26 25 23 24 23 22 21 21 18 16 14 16 14 12 11 11 11 12 13 9 4 6 7 7 7 7 8 10
7 10 22 18 9 11 12 6 6 8 14 13 16 22 25 26 26 26 25 24 23 23 23 22 19 17 16 15 14 13 12 9 8 6 7 7 6 10 11 12 13 12 8 10
10 8 7 8 9 15 10 9 10 13 13 12 17 23 23 24 26 27 26 25 23 22 24 22 20 19 18 17 16 15 13 11 10 10 3 4 4 6 9 12 13 14 14 13
5 4 1 1 6 8 10 9 11 13 12 17 18 19 22 26 25 26 26 25 24 24 24 23 23 22 19 16 15 14 14 14 14 11 10 12 6 4 6 8 10 13 15 16
7 2 3 4 3 4 7 9 11 11 14 17 18 20 23 26 26 27 25 26 29 30 28 26 25 25 23 21 21 21 16 15 14 12 10 8 6 5 4 5 7 8 11 15
7 6 6 3 5 6 8 11 13 15 18 18 21 23 24 25 28 25 23 28 29 30 30 28 26 24 21 20 20 18 15 14 11 11 9 8 7 4 4 3 3 3 8 10
7 6 5 6 7 8 9 11 14 17 19 21 23 23 24 22 25 24 24 25 27 28 29 27 24 21 19 18 18 16 13 11 7 8 9 6 6 5 4 4 4 1 7 9
8 6 7 7 8 9 9 11 14 19 19 21 23 23 23 24 25 24 22 22 23 24 25 25 23 20 17 15 13 13 13 14 12 10 8 7 5 5 3 3 3 1 7 9
4 4 6 8 10 10 11 11 15 18 19 21 22 23 24 26 26 24 25 26 23 21 22 21 20 20 19 18 12 9 10 11 9 7 7 8 6 4 4 3 1 1 2 8
5 6 7 9 10 11 12 13 15 17 19 21 24 25 27 26 27 29 28 26 23 25 24 22 20 19 20 19 15 13 12 11 9 8 5 6 6 4 4 3 1 1 1 4
9 10 11 11 11 12 14 14 16 18 19 23 26 26 28 26 27 26 24 23 22 22 22 22 20 19 18 17 13 11 10 10 9 6 6 5 4 3 2 3 3 2 3 3
11 11 12 11 11 10 10 12 13 16 19 21 23 25 26 25 24 22 22 22 21 17 21 21 19 17 16 17 14 11 10 10 8 6 6 5 5 5 4 4 3 4 4 4
11 11 12 12 12 11 10 10 11 13 16 18 20 22 25 24 23 21 19 20 21 18 21 21 17 16 15 17 13 11 10 9 8 6 6 6 6 5 6 5 5 6 6 6
10 11 12 13 12 11 11 11 10 11 14 17 18 19 22 24 25 27 22 19 18 21 22 21 20 16 16 16 12 10 9 8 8 7 7 7 8 8 8 7 7 7 7 7
10 10 10 11 11 11 12 10 10 10 12 13 14 15 20 23 24 21 20 19 16 21 22 21 17 15 16 13 11 10 9 9 8 8 8 8 8 8 9 8 8 9 8 7
9 10 10 11 10 10 9 11 11 12 12 12 14 16 17 19 22 21 20 18 17 24 21 17 16 17 16 12 11 9 9 8 8 8 7 9 9 8 9 9 9 9 8 9
10 10 10 9 9 11 10 12 11 12 13 13 15 17 17 18 20 20 19 17 22 24 19 18 17 18 15 13 11 9 10 8 8 9 8 9 9 10 10 10 10 10 10 10
9 9 9 11 10 9 10 13 12 13 15 13 15 17 18 19 21 21 19 18 24 23 18 19 19 18 15 12 10 10 10 8 10 10 11 11 10 11 11 11 11 11 11 11

GFSNGP_850_spd_135.txt.gz
Wind_Speed
4 10 9 7 9 6 2 3 5 4 5 5 7 10 22 26 25 24 31 32 33 34 31 25 16 12 10 9 11 7 7 6 5 4 3 2 3 4 4 4 4 8 10 12
6 7 7 4 10 11 8 9 7 9 14 8 17 19 23 27 38 35 36 39 37 37 34 27 20 16 12 9 12 10 9 9 7 5 3 3 2 3 4 4 4 6 10 13
5 10 12 4 10 11 11 12 8 10 12 11 13 17 18 29 26 37 42 41 38 39 36 28 21 17 17 16 13 14 11 9 7 5 3 2 1 2 5 8 9 10 11 13
4 7 5 7 12 17 17 17 14 15 11 9 12 11 3 8 26 38 37 36 38 37 34 27 21 19 20 16 15 13 11 8 7 5 4 3 3 5 7 9 10 11 13 14
1 3 7 10 10 3 9 10 1 2 8 10 14 9 4 4 20 32 39 41 41 38 34 30 24 23 22 20 18 15 12 10 8 5 4 5 6 7 9 9 11 12 13 13
3 3 4 5 4 7 2 5 6 9 5 3 7 2 3 7 20 31 37 40 43 39 33 25 24 24 24 22 18 13 12 10 8 7 6 8 9 10 11 10 9 9 11 13
7 6 5 9 15 19 2 7 8 2 2 4 3 3 12 17 25 33 39 41 39 35 31 27 27 29 26 22 17 14 13 11 10 9 9 10 11 12 12 10 6 6 9 11
5 7 8 2 1 2 5 3 0 2 3 8 12 16 19 21 26 31 36 37 35 32 27 26 28 27 25 21 17 15 12 11 11 10 11 12 12 12 11 7 5 3 6 9
8 6 7 8 10 12 10 7 6 8 9 10 17 20 21 23 25 27 31 32 29 26 26 26 27 25 24 22 21 17 16 14 13 13 12 11 11 11 10 7 5 3 5 8
3 3 11 22 14 16 15 11 8 9 10 11 14 20 22 22 24 26 27 26 25 24 27 27 24 23 20 21 18 16 17 17 16 14 11 9 8 7 5 5 3 5 6 8
3 11 10 11 8 5 2 7 8 10 8 10 13 20 22 24 26 26 25 23 24 26 26 25 21 20 21 21 19 19 19 18 16 12 8 8 11 10 8 10 7 6 7 8
4 6 15 9 8 10 7 12 8 13 12 9 12 18 21 24 24 24 24 24 25 25 24 23 22 17 16 20 18 17 15 15 15 14 10 9 6 8 9 9 9 10 12 10
7 5 2 6 2 7 8 11 16 16 12 10 11 14 19 21 23 23 24 27 27 25 25 28 26 21 20 21 23 16 14 14 12 12 11 10 7 6 5 7 7 8 11 11
8 6 5 5 2 1 11 13 13 13 9 7 9 16 18 20 22 24 27 29 29 30 30 28 28 26 25 24 20 19 20 19 19 16 12 10 7 5 4 5 3 3 7 9
10 7 5 2 5 5 6 13 15 15 12 12 12 17 18 23 25 27 29 29 30 31 30 28 27 26 24 23 22 22 19 19 19 17 16 14 12 9 6 4 3 1 2 5
8 7 5 6 8 9 9 12 15 16 15 17 17 19 20 23 26 28 28 28 32 33 31 29 27 25 25 23 22 20 17 15 14 13 13 13 10 10 11 10 7 6 7 4
11 8 8 10 11 10 10 10 15 15 16 16 18 18 19 23 26 25 25 26 28 28 28 25 25 25 23 22 22 20 19 17 16 16 14 13 13 12 11 11 10 8 6 2
9 8 9 12 12 12 11 10 13 14 15 17 19 19 22 24 27 25 23 23 24 25 25 24 23 22 20 20 19 17 17 17 16 15 14 13 12 11 10 9 9 7 6 4
6 8 8 10 11 12 12 12 13 13 14 17 19 22 22 25 26 24 21 21 22 23 24 23 22 22 21 19 16 15 19 19 16 14 13 13 11 9 9 9 8 8 7 7
11 11 12 13 11 12 13 12 10 11 14 18 22 23 25 25 23 20 18 20 18 19 21 24 23 23 23 20 17 14 15 16 14 12 13 13 11 9 9 9 9 9 8 8
12 13 13 13 12 10 9 10 10 12 16 17 20 23 24 24 20 17 20 20 18 17 19 23 24 25 23 22 19 16 16 16 13 11 11 9 9 9 9 9 9 8 8 8
13 13 13 13 13 12 11 10 9 12 15 17 18 20 22 22 20 18 19 21 19 18 20 24 24 22 22 22 18 15 14 14 13 12 11 12 11 10 9 9 9 9 8 7
13 14 14 14 13 13 12 11 10 11 13 15 16 18 19 19 20 21 22 20 19 18 22 24 22 19 21 23 19 15 14 13 12 12 11 11 11 10 10 9 9 9 8 7
14 14 14 14 14 14 12 10 11 10 10 11 12 13 16 19 19 20 21 18 17 18 23 24 21 18 19 20 17 14 14 13 12 11 10 11 11 11 11 10 10 10 8 9
14 15 15 14 13 13 11 11 11 10 11 11 12 12 13 14 18 23 21 18 18 20 23 23 20 19 18 19 15 14 13 12 12 10 11 11 11 11 10 10 10 10 10 10
14 15 14 11 9 10 11 11 12 12 12 12 13 14 14 15 20 20 19 17 19 20 22 22 21 20 19 18 14 14 12 11 10 10 10 10 9 10 10 9 10 10 10 10
10 9 11 12 9 9 8 13 10 11 11 10 12 14 15 17 19 19 18 18 19 20 23 20 19 19 19 16 13 12 10 11 11 10 10 10 10 11 10 10 11 10 11 11

GFSNGP_850_spd_138.txt.gz
Wind_Speed
8 14 12 11 11 5 4 2 8 17 6 3 6 7 12 20 24 27 29 29 30 31 35 33 24 20 17 16 16 14 12 11 10 7 5 4 3 4 5 6 5 7 6 5
3 3 7 7 12 13 7 4 5 2 8 4 14 18 19 20 19 19 24 37 37 37 39 36 30 24 20 20 19 18 14 12 10 7 6 4 3 3 3 2 3 4 6 7
3 4 4 5 12 11 11 12 7 6 11 15 8 9 18 30 29 30 35 37 39 44 43 40 33 24 22 21 20 16 13 12 11 8 7 4 2 1 2 4 5 6 8 8
3 5 3 11 10 8 8 13 10 9 10 11 14 16 19 23 28 31 38 42 41 43 40 40 32 27 22 21 20 17 15 15 12 9 7 5 4 5 5 6 6 7 8 10
1 3 4 10 6 6 4 5 5 6 7 7 7 6 7 9 9 20 31 37 45 46 44 41 34 28 25 23 20 17 17 15 12 9 7 7 7 7 6 6 7 7 8 9
2 1 4 4 5 12 6 4 5 2 5 1 6 3 5 9 12 17 25 36 44 41 41 39 33 28 26 24 21 19 16 14 11 9 8 9 9 8 7 5 5 6 6 8
4 4 7 5 8 2 3 5 5 2 2 1 3 4 4 7 12 22 30 38 40 40 42 38 32 30 27 23 22 18 17 15 12 11 11 12 13 10 6 4 3 5 6 7
5 4 6 6 2 2 6 4 4 4 4 4 5 5 8 11 17 23 32 37 38 41 39 35 32 29 25 26 21 18 17 15 14 13 14 16 14 12 8 4 2 4 6 8
6 5 5 6 5 8 11 16 14 9 7 5 10 13 14 16 19 24 31 35 38 39 37 34 29 26 26 24 21 20 17 16 16 17 17 15 13 12 11 6 3 3 5 8
1 2 4 13 13 9 10 15 15 10 9 8 10 14 16 20 22 25 28 33 35 35 33 31 29 27 24 24 22 18 18 18 18 18 16 13 11 10 8 7 4 4 6 7
4 6 8 9 6 3 4 8 10 10 11 11 13 15 19 20 20 22 28 30 31 30 29 28 28 27 25 23 21 21 21 22 21 17 14 14 13 10 9 9 5 4 6 6
5 8 5 8 9 8 9 11 14 15 15 12 11 14 19 20 21 22 26 27 27 25 25 27 27 26 24 23 22 23 25 24 20 18 14 13 14 14 12 9 9 8 8 6
6 10 11 8 7 7 10 10 15 16 11 11 11 14 19 19 20 21 23 24 24 26 26 26 24 22 22 24 24 24 23 22 20 18 16 16 14 11 12 10 10 9 9 7
16 11 10 11 8 11 7 13 11 11 11 8 7 9 15 17 19 21 22 23 24 25 26 26 23 20 22 24 24 20 17 18 19 18 16 15 12 10 8 7 8 9 7 4
21 19 14 10 12 7 11 15 17 17 14 10 4 4 13 17 20 21 23 25 27 27 26 25 24 22 23 22 21 19 17 19 17 15 14 13 12 10 10 9 8 5 3 3
10 15 12 13 14 11 14 19 20 17 14 9 5 6 11 15 20 21 24 27 28 29 29 28 26 23 24 25 24 20 16 15 15 16 15 15 13 13 12 11 9 8 5 6
12 12 14 16 15 14 15 15 12 13 11 7 6 9 14 18 19 20 24 26 27 30 30 29 28 27 26 23 21 20 20 17 17 17 18 18 17 14 13 11 10 10 9 10
17 14 12 14 15 13 11 10 11 10 8 8 9 14 16 19 21 23 24 23 25 29 28 27 24 23 23 22 20 20 19 19 18 18 18 16 15 14 13 13 13 13 11 9
11 10 10 11 10 9 9 11 11 9 8 9 12 16 16 17 19 20 20 20 22 27 27 26 23 22 21 21 21 20 20 20 19 17 15 15 15 14 14 13 13 13 11 9
10 8 10 11 9 6 9 10 9 7 8 9 13 16 17 17 16 18 18 17 19 22 24 25 23 21 21 20 20 20 20 18 16 15 15 15 14 13 13 13 13 12 11 10
10 10 9 9 10 8 6 8 7 8 9 9 13 15 15 15 17 18 16 15 15 16 21 24 22 23 22 20 19 16 16 16 16 15 15 14 15 15 14 14 13 12 11 11
12 12 11 11 11 11 10 9 6 8 10 12 13 14 16 18 18 16 13 11 15 17 19 21 23 23 21 19 16 14 13 13 14 14 14 14 14 13 13 12 12 11 10 10
12 12 11 10 11 11 11 10 7 7 10 11 12 14 15 16 17 17 17 14 14 18 20 20 22 23 22 20 18 16 14 13 13 13 13 13 13 12 11 11 10 10 10 10
13 12 12 12 11 12 12 11 11 10 9 9 10 11 12 15 17 17 14 12 15 17 19 19 21 21 21 21 19 17 14 13 13 13 13 12 12 12 12 12 12 11 11 11
13 13 13 13 12 12 11 10 11 11 11 11 12 12 12 12 14 15 15 14 15 17 18 20 19 19 18 17 18 16 14 13 12 12 12 11 12 12 12 13 13 12 12 12
14 13 13 12 11 11 11 9 9 10 11 12 12 12 12 13 13 13 14 15 14 15 18 20 20 18 16 14 15 15 13 13 12 12 12 11 11 11 11 12 12 12 12 11
13 13 13 11 9 8 7 10 9 9 9 9 9 12 12 13 12 14 15 14 14 15 18 20 19 17 15 14 14 13 12 12 11 11 10 10 11 10 10 11 11 11 11 12

GFSNGP_850_spd_141.txt.gz
Wind_Speed
3 3 4 6 13 14 8 14 16 18 18 4 4 6 6 16 23 26 30 33 35 33 30 27 25 22 20 20 20 18 16 12 10 9 7 7 5 5 5 5 5 3 3 3
5 6 5 8 13 13 6 5 4 3 6 8 4 12 12 19 25 30 36 38 37 34 26 25 29 32 28 24 21 20 16 13 11 10 7 8 5 3 3 3 1 2 2 2
3 4 3 7 7 9 3 4 2 4 6 11 14 7 16 23 27 35 38 39 41 43 38 43 41 37 31 26 22 21 18 15 12 10 10 7 5 3 1 2 2 2 3 4
2 6 4 6 5 7 11 11 12 12 14 14 18 20 22 26 35 37 37 39 42 41 39 41 37 38 32 24 24 24 20 16 14 12 11 9 6 4 5 4 3 3 4 5
3 4 6 8 6 6 7 6 9 15 16 17 17 16 11 28 33 35 38 36 37 39 39 41 36 37 30 27 25 24 20 17 15 13 12 10 7 8 7 4 3 4 4 5
2 2 4 3 1 3 2 4 1 5 5 2 5 1 6 13 16 15 17 20 33 38 40 36 36 38 32 29 26 27 20 16 14 13 12 10 10 9 8 6 4 5 4 4
6 5 6 6 6 3 2 4 2 1 3 3 4 5 6 9 10 13 13 15 30 37 38 38 40 35 33 26 28 23 19 17 16 15 13 13 12 9 7 5 4 4 4 5
5 5 7 9 4 6 7 6 8 8 8 6 6 7 8 8 5 7 12 21 29 32 32 33 36 35 30 27 26 23 19 18 18 17 17 16 13 10 8 4 3 3 5 6
7 6 7 4 4 7 14 16 16 13 14 10 8 8 7 7 8 11 16 20 24 29 32 36 37 31 27 28 25 21 20 20 20 19 19 18 15 12 10 5 2 3 5 6
3 4 7 12 12 12 13 17 17 12 14 13 10 9 10 9 10 14 18 23 26 29 33 36 34 30 25 25 23 22 23 23 22 21 21 19 15 12 10 6 4 4 5 6
3 5 9 18 15 8 8 11 12 13 13 14 11 11 11 13 15 15 17 22 26 29 32 33 32 29 27 25 25 24 24 24 23 22 20 19 15 12 10 7 4 5 6 6
4 9 5 8 11 7 8 11 13 15 15 14 11 10 11 12 15 16 19 24 24 27 28 30 28 27 27 25 24 25 25 25 24 22 20 18 17 17 13 9 9 9 8 6
5 7 13 11 9 9 10 10 12 14 12 12 9 7 12 15 15 14 15 21 23 24 26 26 25 26 26 25 24 24 24 25 23 21 19 18 18 17 16 14 12 11 9 8
15 11 10 13 11 8 11 12 12 11 8 6 3 4 9 12 13 14 16 19 20 21 22 23 25 25 25 23 23 22 23 22 21 20 18 18 16 14 12 11 12 13 13 10
17 16 19 19 14 15 10 9 12 12 10 8 5 2 9 12 13 15 16 18 19 19 20 22 23 21 20 21 21 21 21 20 18 18 16 15 14 13 11 11 10 9 9 10
13 13 16 17 14 11 13 11 13 12 10 8 3 2 4 9 12 14 15 16 19 22 21 21 20 19 21 22 23 21 16 14 16 17 18 18 16 14 13 12 12 11 9 10
9 5 5 7 10 14 11 9 10 9 8 5 6 5 7 9 11 13 14 14 16 19 20 20 20 18 20 22 22 19 17 16 16 17 19 18 16 15 13 12 12 12 10 8
11 5 9 15 12 10 8 8 10 10 11 9 7 6 6 9 12 13 13 15 17 19 20 20 21 20 20 21 19 18 18 18 18 18 18 18 16 14 13 12 12 13 12 10
8 4 8 10 10 9 7 8 11 11 10 6 6 6 6 6 8 10 12 15 17 20 23 24 22 19 20 21 18 23 21 20 18 17 16 16 16 14 13 13 13 13 13 12
8 5 10 10 10 6 7 10 10 8 6 6 7 9 9 8 8 9 11 12 13 18 23 24 22 19 19 21 21 22 20 19 18 17 16 16 14 13 13 13 13 13 13 12
8 10 10 10 9 9 8 9 9 6 7 5 4 7 7 8 8 8 11 11 11 13 19 22 23 21 21 19 19 19 18 17 17 16 15 14 13 14 13 12 12 12 12 12
11 11 11 10 11 12 11 8 5 5 5 6 7 8 9 9 10 11 10 7 8 13 17 21 23 21 19 16 16 15 15 14 14 14 13 13 13 13 12 12 11 11 12 12
11 11 12 10 8 9 10 8 6 4 5 5 6 8 8 8 10 12 11 9 8 11 14 18 19 18 16 16 15 14 12 11 12 12 11 11 11 11 11 10 10 10 11 11
11 10 9 8 7 9 9 9 8 8 8 7 6 6 7 10 12 11 9 6 8 11 13 17 16 16 16 16 15 13 11 10 9 10 10 11 11 11 11 10 10 10 11 11
11 10 10 10 9 9 8 9 9 10 9 9 9 9 9 9 8 8 10 8 9 11 12 16 18 18 17 14 13 13 12 10 9 10 9 9 10 9 10 11 10 11 12 12
11 10 10 9 8 8 8 7 7 8 8 9 9 9 9 10 9 9 9 9 9 10 12 15 18 17 16 14 12 12 12 10 10 10 10 10 10 10 10 11 11 11 12 13
10 9 9 8 8 7 5 6 5 5 6 7 6 8 9 8 9 9 9 9 9 9 11 14 16 15 12 11 10 10 11 10 10 10 9 9 9 9 9 10 11 12 13 13